Wetterdaten: Freitag, 21.04.2017
Datum Zeit Temp. A. Feuchte A. Luftdruck Regen Wind Richtung Richtung Sonnenschein ET UV Solar Taupunkt Windchill Windben Empfang
21.04.2017 00:00 1,6 C 85 % 1033,5 hPa 0,0 l/m 5,5 km/h (1 Bft) SW 232 0 min 0,000 mm 0,0 UV-I 0 W/m -0,6 C 1,6 C 8,0 km/h (2 Bft) 100,00 %
21.04.2017 00:02 1,6 C 85 % 1033,4 hPa 0,0 l/m 5,2 km/h (1 Bft) SW 234 0 min 0,000 mm 0,0 UV-I 0 W/m -0,6 C 1,6 C 6,4 km/h (2 Bft) 97,78 %
21.04.2017 00:04 1,5 C 85 % 1033,4 hPa 0,0 l/m 6,8 km/h (2 Bft) W-SW 240 0 min 0,000 mm 0,0 UV-I 0 W/m -0,7 C 1,1 C 9,7 km/h (2 Bft) 94,44 %
21.04.2017 00:06 1,5 C 85 % 1033,5 hPa 0,0 l/m 6,8 km/h (2 Bft) W-SW 246 0 min 0,000 mm 0,0 UV-I 0 W/m -0,7 C 1,1 C 11,3 km/h (2 Bft) 98,21 %
21.04.2017 00:08 1,5 C 85 % 1033,4 hPa 0,0 l/m 5,2 km/h (1 Bft) W-SW 246 0 min 0,000 mm 0,0 UV-I 0 W/m -0,7 C 1,5 C 8,0 km/h (2 Bft) 97,56 %
21.04.2017 00:10 1,5 C 85 % 1033,4 hPa 0,0 l/m 5,1 km/h (1 Bft) W-SW 245 0 min 0,000 mm 0,0 UV-I 0 W/m -0,7 C 1,5 C 8,0 km/h (2 Bft) 98,21 %
21.04.2017 00:12 1,5 C 85 % 1033,3 hPa 0,0 l/m 5,6 km/h (1 Bft) W-SW 244 0 min 0,000 mm 0,0 UV-I 0 W/m -0,7 C 1,5 C 9,7 km/h (2 Bft) 95,12 %
21.04.2017 00:14 1,5 C 85 % 1033,4 hPa 0,0 l/m 5,8 km/h (2 Bft) W 263 0 min 0,000 mm 0,0 UV-I 0 W/m -0,7 C 1,5 C 8,0 km/h (2 Bft) 97,73 %
21.04.2017 00:16 1,5 C 85 % 1033,4 hPa 0,0 l/m 5,7 km/h (1 Bft) SW 223 0 min 0,000 mm 0,0 UV-I 0 W/m -0,7 C 1,5 C 9,7 km/h (2 Bft) 98,11 %
21.04.2017 00:18 1,5 C 85 % 1033,3 hPa 0,0 l/m 6,6 km/h (2 Bft) W-SW 240 0 min 0,000 mm 0,0 UV-I 0 W/m -0,7 C 1,3 C 11,3 km/h (2 Bft) 97,37 %
21.04.2017 00:20 1,5 C 85 % 1033,4 hPa 0,0 l/m 7,2 km/h (2 Bft) SW 216 0 min 0,000 mm 0,0 UV-I 0 W/m -0,7 C 0,7 C 11,3 km/h (2 Bft) 96,23 %
21.04.2017 00:22 1,5 C 85 % 1033,4 hPa 0,0 l/m 6,0 km/h (2 Bft) W-SW 242 0 min 0,000 mm 0,0 UV-I 0 W/m -0,7 C 1,5 C 9,7 km/h (2 Bft) 98,00 %
21.04.2017 00:24 1,5 C 85 % 1033,4 hPa 0,0 l/m 6,7 km/h (2 Bft) W-SW 245 0 min 0,000 mm 0,0 UV-I 0 W/m -0,7 C 1,2 C 11,3 km/h (2 Bft) 97,87 %
21.04.2017 00:26 1,5 C 85 % 1033,4 hPa 0,0 l/m 6,6 km/h (2 Bft) W-SW 244 0 min 0,000 mm 0,0 UV-I 0 W/m -0,7 C 1,3 C 9,7 km/h (2 Bft) 95,74 %
21.04.2017 00:28 1,5 C 85 % 1033,4 hPa 0,0 l/m 7,2 km/h (2 Bft) SW 232 0 min 0,000 mm 0,0 UV-I 0 W/m -0,7 C 0,7 C 12,9 km/h (3 Bft) 97,56 %
21.04.2017 00:30 1,5 C 85 % 1033,3 hPa 0,0 l/m 6,5 km/h (2 Bft) W-SW 241 0 min 0,000 mm 0,0 UV-I 0 W/m -0,7 C 1,4 C 11,3 km/h (2 Bft) 97,56 %
21.04.2017 00:32 1,5 C 85 % 1033,4 hPa 0,0 l/m 7,9 km/h (2 Bft) W 259 0 min 0,000 mm 0,0 UV-I 0 W/m -0,7 C 0,0 C 12,9 km/h (3 Bft) 96,43 %
21.04.2017 00:34 1,5 C 85 % 1033,3 hPa 0,0 l/m 7,2 km/h (2 Bft) W-SW 239 0 min 0,000 mm 0,0 UV-I 0 W/m -0,7 C 0,7 C 11,3 km/h (2 Bft) 97,44 %
21.04.2017 00:36 1,5 C 85 % 1033,3 hPa 0,0 l/m 7,8 km/h (2 Bft) SW 231 0 min 0,000 mm 0,0 UV-I 0 W/m -0,7 C 0,1 C 11,3 km/h (2 Bft) 94,23 %
21.04.2017 00:38 1,6 C 84 % 1033,3 hPa 0,0 l/m 8,4 km/h (2 Bft) W-SW 241 0 min 0,000 mm 0,0 UV-I 0 W/m -0,8 C -0,3 C 14,5 km/h (3 Bft) 97,87 %
21.04.2017 00:40 1,6 C 85 % 1033,2 hPa 0,0 l/m 8,3 km/h (2 Bft) S-SW 201 0 min 0,000 mm 0,0 UV-I 0 W/m -0,6 C -0,2 C 14,5 km/h (3 Bft) 97,62 %
21.04.2017 00:42 1,6 C 85 % 1033,2 hPa 0,0 l/m 8,3 km/h (2 Bft) W-SW 247 0 min 0,000 mm 0,0 UV-I 0 W/m -0,6 C -0,2 C 12,9 km/h (3 Bft) 100,00 %
21.04.2017 00:44 1,6 C 85 % 1033,2 hPa 0,0 l/m 12,7 km/h (3 Bft) W-SW 238 0 min 0,000 mm 0,0 UV-I 0 W/m -0,6 C -3,6 C 17,7 km/h (3 Bft) 100,00 %
21.04.2017 00:46 1,6 C 85 % 1033,2 hPa 0,0 l/m 10,2 km/h (2 Bft) SW 229 0 min 0,000 mm 0,0 UV-I 0 W/m -0,6 C -1,8 C 17,7 km/h (3 Bft) 98,11 %
21.04.2017 00:48 1,6 C 85 % 1033,2 hPa 0,0 l/m 9,6 km/h (2 Bft) SW 232 0 min 0,000 mm 0,0 UV-I 0 W/m -0,6 C -1,4 C 16,1 km/h (3 Bft) 100,00 %
21.04.2017 00:50 1,7 C 85 % 1033,2 hPa 0,0 l/m 10,1 km/h (2 Bft) SW 232 0 min 0,000 mm 0,0 UV-I 0 W/m -0,5 C -1,7 C 17,7 km/h (3 Bft) 100,00 %
21.04.2017 00:52 1,7 C 85 % 1033,2 hPa 0,0 l/m 11,0 km/h (2 Bft) W 265 0 min 0,000 mm 0,0 UV-I 0 W/m -0,5 C -2,3 C 14,5 km/h (3 Bft) 96,23 %
21.04.2017 00:54 1,7 C 85 % 1033,2 hPa 0,0 l/m 9,6 km/h (2 Bft) SW 229 0 min 0,000 mm 0,0 UV-I 0 W/m -0,5 C -1,3 C 14,5 km/h (3 Bft) 97,87 %
21.04.2017 00:56 1,7 C 84 % 1033,1 hPa 0,0 l/m 9,3 km/h (2 Bft) W-SW 243 0 min 0,000 mm 0,0 UV-I 0 W/m -0,7 C -1,0 C 14,5 km/h (3 Bft) 100,00 %
21.04.2017 00:58 1,7 C 84 % 1033,1 hPa 0,0 l/m 8,3 km/h (2 Bft) SW 228 0 min 0,000 mm 0,0 UV-I 0 W/m -0,7 C -0,1 C 12,9 km/h (3 Bft) 100,00 %
21.04.2017 01:00 1,8 C 85 % 1033,1 hPa 0,0 l/m 8,1 km/h (2 Bft) S-SW 211 0 min 0,000 mm 0,0 UV-I 0 W/m -0,4 C 0,2 C 11,3 km/h (2 Bft) 100,00 %
21.04.2017 01:02 1,8 C 85 % 1033,1 hPa 0,0 l/m 9,0 km/h (2 Bft) SW 214 0 min 0,000 mm 0,0 UV-I 0 W/m -0,4 C -0,6 C 12,9 km/h (3 Bft) 100,00 %
21.04.2017 01:04 1,8 C 84 % 1033,1 hPa 0,0 l/m 8,3 km/h (2 Bft) S 190 0 min 0,000 mm 0,0 UV-I 0 W/m -0,6 C -0,0 C 14,5 km/h (3 Bft) 100,00 %
21.04.2017 01:06 1,8 C 84 % 1033,1 hPa 0,0 l/m 12,3 km/h (3 Bft) SW 223 0 min 0,000 mm 0,0 UV-I 0 W/m -0,6 C -3,1 C 19,3 km/h (3 Bft) 97,56 %
21.04.2017 01:08 1,8 C 84 % 1033,0 hPa 0,0 l/m 9,0 km/h (2 Bft) S-SW 200 0 min 0,000 mm 0,0 UV-I 0 W/m -0,6 C -0,6 C 14,5 km/h (3 Bft) 100,00 %
21.04.2017 01:10 1,8 C 84 % 1033,0 hPa 0,0 l/m 9,4 km/h (2 Bft) S-SW 212 0 min 0,000 mm 0,0 UV-I 0 W/m -0,6 C -1,0 C 16,1 km/h (3 Bft) 100,00 %
21.04.2017 01:12 1,8 C 84 % 1033,0 hPa 0,0 l/m 9,7 km/h (2 Bft) S-SW 209 0 min 0,000 mm 0,0 UV-I 0 W/m -0,6 C -1,2 C 16,1 km/h (3 Bft) 98,11 %
21.04.2017 01:14 1,8 C 84 % 1033,0 hPa 0,0 l/m 8,4 km/h (2 Bft) SW 215 0 min 0,000 mm 0,0 UV-I 0 W/m -0,6 C -0,1 C 12,9 km/h (3 Bft) 100,00 %
21.04.2017 01:16 1,8 C 83 % 1033,0 hPa 0,0 l/m 8,9 km/h (2 Bft) S-SW 210 0 min 0,000 mm 0,0 UV-I 0 W/m -0,8 C -0,6 C 12,9 km/h (3 Bft) 95,52 %
21.04.2017 01:18 1,8 C 83 % 1033,0 hPa 0,0 l/m 9,1 km/h (2 Bft) S-SW 205 0 min 0,000 mm 0,0 UV-I 0 W/m -0,8 C -0,7 C 16,1 km/h (3 Bft) 97,62 %
21.04.2017 01:20 1,8 C 83 % 1033,0 hPa 0,0 l/m 9,0 km/h (2 Bft) S-SW 210 0 min 0,000 mm 0,0 UV-I 0 W/m -0,8 C -0,6 C 14,5 km/h (3 Bft) 100,00 %
21.04.2017 01:22 1,8 C 83 % 1033,0 hPa 0,0 l/m 10,6 km/h (2 Bft) S-SW 208 0 min 0,000 mm 0,0 UV-I 0 W/m -0,8 C -1,9 C 14,5 km/h (3 Bft) 98,00 %
21.04.2017 01:24 1,8 C 83 % 1033,0 hPa 0,0 l/m 9,8 km/h (2 Bft) S-SW 213 0 min 0,000 mm 0,0 UV-I 0 W/m -0,8 C -1,3 C 14,5 km/h (3 Bft) 97,37 %
21.04.2017 01:26 1,8 C 83 % 1033,0 hPa 0,0 l/m 8,0 km/h (2 Bft) S-SW 212 0 min 0,000 mm 0,0 UV-I 0 W/m -0,8 C 0,2 C 11,3 km/h (2 Bft) 100,00 %
21.04.2017 01:28 1,7 C 83 % 1032,9 hPa 0,0 l/m 8,4 km/h (2 Bft) SW 224 0 min 0,000 mm 0,0 UV-I 0 W/m -0,9 C -0,2 C 12,9 km/h (3 Bft) 98,00 %
21.04.2017 01:30 1,7 C 83 % 1033,0 hPa 0,0 l/m 7,6 km/h (2 Bft) S-SW 211 0 min 0,000 mm 0,0 UV-I 0 W/m -0,9 C 0,5 C 11,3 km/h (2 Bft) 100,00 %
21.04.2017 01:32 1,8 C 83 % 1033,0 hPa 0,0 l/m 7,3 km/h (2 Bft) SW 215 0 min 0,000 mm 0,0 UV-I 0 W/m -0,8 C 0,9 C 11,3 km/h (2 Bft) 97,37 %
21.04.2017 01:34 1,8 C 83 % 1032,9 hPa 0,0 l/m 7,4 km/h (2 Bft) S-SW 213 0 min 0,000 mm 0,0 UV-I 0 W/m -0,8 C 0,8 C 11,3 km/h (2 Bft) 100,00 %
21.04.2017 01:36 1,7 C 83 % 1032,9 hPa 0,0 l/m 5,9 km/h (2 Bft) S-SW 210 0 min 0,000 mm 0,0 UV-I 0 W/m -0,9 C 1,7 C 11,3 km/h (2 Bft) 98,11 %
21.04.2017 01:38 1,8 C 83 % 1032,9 hPa 0,0 l/m 6,8 km/h (2 Bft) S-SW 207 0 min 0,000 mm 0,0 UV-I 0 W/m -0,8 C 1,4 C 11,3 km/h (2 Bft) 100,00 %
21.04.2017 01:40 1,7 C 83 % 1032,9 hPa 0,0 l/m 7,3 km/h (2 Bft) S-SW 212 0 min 0,000 mm 0,0 UV-I 0 W/m -0,9 C 0,8 C 9,7 km/h (2 Bft) 97,56 %
21.04.2017 01:42 1,7 C 83 % 1032,9 hPa 0,0 l/m 8,4 km/h (2 Bft) SW 215 0 min 0,000 mm 0,0 UV-I 0 W/m -0,9 C -0,2 C 11,3 km/h (2 Bft) 100,00 %
21.04.2017 01:44 1,7 C 83 % 1032,9 hPa 0,0 l/m 6,2 km/h (2 Bft) SW 219 0 min 0,000 mm 0,0 UV-I 0 W/m -0,9 C 1,7 C 9,7 km/h (2 Bft) 100,00 %
21.04.2017 01:46 1,7 C 83 % 1032,9 hPa 0,0 l/m 4,8 km/h (1 Bft) SW 214 0 min 0,000 mm 0,0 UV-I 0 W/m -0,9 C 1,7 C 9,7 km/h (2 Bft) 100,00 %
21.04.2017 01:48 1,7 C 84 % 1032,8 hPa 0,0 l/m 6,3 km/h (2 Bft) S-SW 194 0 min 0,000 mm 0,0 UV-I 0 W/m -0,7 C 1,7 C 11,3 km/h (2 Bft) 100,00 %
21.04.2017 01:50 1,7 C 84 % 1032,9 hPa 0,0 l/m 5,4 km/h (1 Bft) S-SW 202 0 min 0,000 mm 0,0 UV-I 0 W/m -0,7 C 1,7 C 8,0 km/h (2 Bft) 100,00 %
21.04.2017 01:52 1,6 C 84 % 1032,9 hPa 0,0 l/m 5,8 km/h (2 Bft) S-SW 200 0 min 0,000 mm 0,0 UV-I 0 W/m -0,8 C 1,6 C 9,7 km/h (2 Bft) 100,00 %
21.04.2017 01:54 1,5 C 84 % 1032,8 hPa 0,0 l/m 4,9 km/h (1 Bft) S-SW 207 0 min 0,000 mm 0,0 UV-I 0 W/m -0,9 C 1,5 C 8,0 km/h (2 Bft) 97,37 %
21.04.2017 01:56 1,4 C 84 % 1032,8 hPa 0,0 l/m 4,2 km/h (1 Bft) S-SW 203 0 min 0,000 mm 0,0 UV-I 0 W/m -1,0 C 1,4 C 6,4 km/h (2 Bft) 100,00 %
21.04.2017 01:58 1,4 C 85 % 1032,8 hPa 0,0 l/m 5,1 km/h (1 Bft) S 182 0 min 0,000 mm 0,0 UV-I 0 W/m -0,8 C 1,4 C 9,7 km/h (2 Bft) 100,00 %
21.04.2017 02:00 1,3 C 85 % 1032,8 hPa 0,0 l/m 4,5 km/h (1 Bft) S-SW 196 0 min 0,000 mm 0,0 UV-I 0 W/m -0,9 C 1,3 C 6,4 km/h (2 Bft) 100,00 %
21.04.2017 02:02 1,3 C 85 % 1032,8 hPa 0,0 l/m 3,0 km/h (1 Bft) S 182 0 min 0,000 mm 0,0 UV-I 0 W/m -0,9 C 1,3 C 4,8 km/h (1 Bft) 100,00 %
21.04.2017 02:04 1,3 C 85 % 1032,8 hPa 0,0 l/m 4,4 km/h (1 Bft) S 180 0 min 0,000 mm 0,0 UV-I 0 W/m -0,9 C 1,3 C 6,4 km/h (2 Bft) 100,00 %
21.04.2017 02:06 1,2 C 86 % 1032,8 hPa 0,0 l/m 5,2 km/h (1 Bft) S-SW 199 0 min 0,000 mm 0,0 UV-I 0 W/m -0,9 C 1,2 C 9,7 km/h (2 Bft) 100,00 %
21.04.2017 02:08 1,2 C 86 % 1032,8 hPa 0,0 l/m 5,3 km/h (1 Bft) S 183 0 min 0,000 mm 0,0 UV-I 0 W/m -0,9 C 1,2 C 9,7 km/h (2 Bft) 96,43 %
21.04.2017 02:10 1,2 C 86 % 1032,8 hPa 0,0 l/m 4,5 km/h (1 Bft) S 190 0 min 0,000 mm 0,0 UV-I 0 W/m -0,9 C 1,2 C 9,7 km/h (2 Bft) 97,56 %
21.04.2017 02:12 1,2 C 86 % 1032,8 hPa 0,0 l/m 5,1 km/h (1 Bft) S-SW 209 0 min 0,000 mm 0,0 UV-I 0 W/m -0,9 C 1,2 C 8,0 km/h (2 Bft) 100,00 %
21.04.2017 02:14 1,2 C 86 % 1032,7 hPa 0,0 l/m 4,7 km/h (1 Bft) S 187 0 min 0,000 mm 0,0 UV-I 0 W/m -0,9 C 1,2 C 6,4 km/h (2 Bft) 95,74 %
21.04.2017 02:16 1,1 C 86 % 1032,6 hPa 0,0 l/m 5,0 km/h (1 Bft) S-SW 201 0 min 0,000 mm 0,0 UV-I 0 W/m -1,0 C 1,1 C 11,3 km/h (2 Bft) 97,56 %
21.04.2017 02:18 1,1 C 86 % 1032,7 hPa 0,0 l/m 5,8 km/h (2 Bft) S-SW 200 0 min 0,000 mm 0,0 UV-I 0 W/m -1,0 C 1,1 C 9,7 km/h (2 Bft) 94,00 %
21.04.2017 02:20 1,1 C 86 % 1032,6 hPa 0,0 l/m 4,8 km/h (1 Bft) S-SW 201 0 min 0,000 mm 0,0 UV-I 0 W/m -1,0 C 1,1 C 6,4 km/h (2 Bft) 95,45 %
21.04.2017 02:22 1,0 C 86 % 1032,6 hPa 0,0 l/m 4,4 km/h (1 Bft) S-SW 195 0 min 0,000 mm 0,0 UV-I 0 W/m -1,1 C 1,0 C 6,4 km/h (2 Bft) 92,00 %
21.04.2017 02:24 1,0 C 87 % 1032,6 hPa 0,0 l/m 5,2 km/h (1 Bft) S-SW 196 0 min 0,000 mm 0,0 UV-I 0 W/m -0,9 C 1,0 C 8,0 km/h (2 Bft) 96,00 %
21.04.2017 02:26 0,9 C 87 % 1032,6 hPa 0,0 l/m 4,2 km/h (1 Bft) S-SW 197 0 min 0,000 mm 0,0 UV-I 0 W/m -1,0 C 0,9 C 6,4 km/h (2 Bft) 94,00 %
21.04.2017 02:28 0,9 C 87 % 1032,6 hPa 0,0 l/m 4,4 km/h (1 Bft) S 184 0 min 0,000 mm 0,0 UV-I 0 W/m -1,0 C 0,9 C 8,0 km/h (2 Bft) 93,18 %
21.04.2017 02:30 0,9 C 87 % 1032,6 hPa 0,0 l/m 4,4 km/h (1 Bft) S-SW 196 0 min 0,000 mm 0,0 UV-I 0 W/m -1,0 C 0,9 C 6,4 km/h (2 Bft) 93,33 %
21.04.2017 02:32 0,9 C 87 % 1032,6 hPa 0,0 l/m 4,9 km/h (1 Bft) S-SW 197 0 min 0,000 mm 0,0 UV-I 0 W/m -1,0 C 0,9 C 8,0 km/h (2 Bft) 95,31 %
21.04.2017 02:34 0,9 C 87 % 1032,6 hPa 0,0 l/m 5,1 km/h (1 Bft) S-SW 197 0 min 0,000 mm 0,0 UV-I 0 W/m -1,0 C 0,9 C 6,4 km/h (2 Bft) 92,00 %
21.04.2017 02:36 0,8 C 87 % 1032,6 hPa 0,0 l/m 5,2 km/h (1 Bft) S-SW 201 0 min 0,000 mm 0,0 UV-I 0 W/m -1,1 C 0,8 C 6,4 km/h (2 Bft) 98,51 %
21.04.2017 02:38 0,8 C 87 % 1032,5 hPa 0,0 l/m 5,5 km/h (1 Bft) S-SW 203 0 min 0,000 mm 0,0 UV-I 0 W/m -1,1 C 0,8 C 9,7 km/h (2 Bft) 92,00 %
21.04.2017 02:40 0,8 C 87 % 1032,5 hPa 0,0 l/m 6,0 km/h (2 Bft) SW 214 0 min 0,000 mm 0,0 UV-I 0 W/m -1,1 C 0,8 C 9,7 km/h (2 Bft) 100,00 %
21.04.2017 02:42 0,8 C 87 % 1032,5 hPa 0,0 l/m 6,9 km/h (2 Bft) S-SW 200 0 min 0,000 mm 0,0 UV-I 0 W/m -1,1 C 0,3 C 9,7 km/h (2 Bft) 95,59 %
21.04.2017 02:44 0,9 C 87 % 1032,5 hPa 0,0 l/m 6,8 km/h (2 Bft) S-SW 211 0 min 0,000 mm 0,0 UV-I 0 W/m -1,0 C 0,5 C 11,3 km/h (2 Bft) 96,00 %
21.04.2017 02:46 0,9 C 87 % 1032,5 hPa 0,0 l/m 8,7 km/h (2 Bft) S-SW 198 0 min 0,000 mm 0,0 UV-I 0 W/m -1,0 C -1,3 C 12,9 km/h (3 Bft) 94,74 %
21.04.2017 02:48 0,9 C 87 % 1032,4 hPa 0,0 l/m 5,9 km/h (2 Bft) S-SW 194 0 min 0,000 mm 0,0 UV-I 0 W/m -1,0 C 0,9 C 11,3 km/h (2 Bft) 98,00 %
21.04.2017 02:50 0,9 C 86 % 1032,5 hPa 0,0 l/m 7,7 km/h (2 Bft) S-SW 205 0 min 0,000 mm 0,0 UV-I 0 W/m -1,2 C -0,4 C 11,3 km/h (2 Bft) 96,00 %
21.04.2017 02:52 1,0 C 86 % 1032,4 hPa 0,0 l/m 6,3 km/h (2 Bft) S-SW 205 0 min 0,000 mm 0,0 UV-I 0 W/m -1,1 C 1,0 C 9,7 km/h (2 Bft) 97,37 %
21.04.2017 02:54 1,0 C 86 % 1032,5 hPa 0,0 l/m 7,7 km/h (2 Bft) SW 225 0 min 0,000 mm 0,0 UV-I 0 W/m -1,1 C -0,3 C 11,3 km/h (2 Bft) 97,92 %
21.04.2017 02:56 1,0 C 86 % 1032,4 hPa 0,0 l/m 6,0 km/h (2 Bft) S-SW 200 0 min 0,000 mm 0,0 UV-I 0 W/m -1,1 C 1,0 C 9,7 km/h (2 Bft) 96,00 %
21.04.2017 02:58 1,0 C 86 % 1032,4 hPa 0,0 l/m 6,3 km/h (2 Bft) SW 236 0 min 0,000 mm 0,0 UV-I 0 W/m -1,1 C 1,0 C 9,7 km/h (2 Bft) 97,87 %
21.04.2017 03:00 1,0 C 86 % 1032,4 hPa 0,0 l/m 6,9 km/h (2 Bft) SW 222 0 min 0,000 mm 0,0 UV-I 0 W/m -1,1 C 0,5 C 9,7 km/h (2 Bft) 95,74 %
21.04.2017 03:02 1,1 C 86 % 1032,4 hPa 0,0 l/m 6,8 km/h (2 Bft) SW 217 0 min 0,000 mm 0,0 UV-I 0 W/m -1,0 C 0,7 C 11,3 km/h (2 Bft) 97,37 %
21.04.2017 03:04 1,1 C 85 % 1032,4 hPa 0,0 l/m 5,4 km/h (1 Bft) SW 214 0 min 0,000 mm 0,0 UV-I 0 W/m -1,1 C 1,1 C 8,0 km/h (2 Bft) 92,45 %
21.04.2017 03:06 1,1 C 85 % 1032,4 hPa 0,0 l/m 7,4 km/h (2 Bft) SW 229 0 min 0,000 mm 0,0 UV-I 0 W/m -1,1 C 0,1 C 11,3 km/h (2 Bft) 95,45 %
21.04.2017 03:08 1,1 C 85 % 1032,4 hPa 0,0 l/m 6,8 km/h (2 Bft) SW 215 0 min 0,000 mm 0,0 UV-I 0 W/m -1,1 C 0,7 C 11,3 km/h (2 Bft) 98,21 %
21.04.2017 03:10 1,1 C 85 % 1032,3 hPa 0,0 l/m 7,9 km/h (2 Bft) S-SW 203 0 min 0,000 mm 0,0 UV-I 0 W/m -1,1 C -0,4 C 12,9 km/h (3 Bft) 92,11 %
21.04.2017 03:12 1,0 C 85 % 1032,3 hPa 0,0 l/m 7,5 km/h (2 Bft) SW 229 0 min 0,000 mm 0,0 UV-I 0 W/m -1,2 C -0,1 C 12,9 km/h (3 Bft) 96,43 %
21.04.2017 03:14 1,0 C 85 % 1032,4 hPa 0,0 l/m 6,1 km/h (2 Bft) SW 233 0 min 0,000 mm 0,0 UV-I 0 W/m -1,2 C 1,0 C 9,7 km/h (2 Bft) 96,30 %
21.04.2017 03:16 1,0 C 85 % 1032,4 hPa 0,0 l/m 6,4 km/h (2 Bft) SW 234 0 min 0,000 mm 0,0 UV-I 0 W/m -1,2 C 1,0 C 11,3 km/h (2 Bft) 97,01 %
21.04.2017 03:18 1,0 C 85 % 1032,4 hPa 0,0 l/m 5,3 km/h (1 Bft) SW 219 0 min 0,000 mm 0,0 UV-I 0 W/m -1,2 C 1,0 C 8,0 km/h (2 Bft) 97,44 %
21.04.2017 03:20 0,9 C 85 % 1032,3 hPa 0,0 l/m 5,1 km/h (1 Bft) S-SW 212 0 min 0,000 mm 0,0 UV-I 0 W/m -1,3 C 0,9 C 6,4 km/h (2 Bft) 98,00 %
21.04.2017 03:22 0,9 C 85 % 1032,3 hPa 0,0 l/m 5,4 km/h (1 Bft) SW 233 0 min 0,000 mm 0,0 UV-I 0 W/m -1,3 C 0,9 C 8,0 km/h (2 Bft) 98,00 %
21.04.2017 03:24 0,8 C 85 % 1032,3 hPa 0,0 l/m 6,5 km/h (2 Bft) SW 222 0 min 0,000 mm 0,0 UV-I 0 W/m -1,4 C 0,7 C 9,7 km/h (2 Bft) 98,00 %
21.04.2017 03:26 0,8 C 86 % 1032,3 hPa 0,0 l/m 6,0 km/h (2 Bft) SW 214 0 min 0,000 mm 0,0 UV-I 0 W/m -1,3 C 0,8 C 9,7 km/h (2 Bft) 100,00 %
21.04.2017 03:28 0,8 C 86 % 1032,3 hPa 0,0 l/m 7,2 km/h (2 Bft) S-SW 205 0 min 0,000 mm 0,0 UV-I 0 W/m -1,3 C -0,0 C 11,3 km/h (2 Bft) 100,00 %
21.04.2017 03:30 0,7 C 86 % 1032,3 hPa 0,0 l/m 6,6 km/h (2 Bft) SW 223 0 min 0,000 mm 0,0 UV-I 0 W/m -1,4 C 0,5 C 9,7 km/h (2 Bft) 100,00 %
21.04.2017 03:32 0,7 C 86 % 1032,3 hPa 0,0 l/m 6,4 km/h (2 Bft) SW 223 0 min 0,000 mm 0,0 UV-I 0 W/m -1,4 C 0,7 C 9,7 km/h (2 Bft) 100,00 %
21.04.2017 03:34 0,7 C 86 % 1032,3 hPa 0,0 l/m 4,4 km/h (1 Bft) S-SW 210 0 min 0,000 mm 0,0 UV-I 0 W/m -1,4 C 0,7 C 6,4 km/h (2 Bft) 100,00 %
21.04.2017 03:36 0,6 C 86 % 1032,3 hPa 0,0 l/m 5,4 km/h (1 Bft) SW 214 0 min 0,000 mm 0,0 UV-I 0 W/m -1,5 C 0,6 C 8,0 km/h (2 Bft) 98,00 %
21.04.2017 03:38 0,6 C 86 % 1032,2 hPa 0,0 l/m 5,8 km/h (2 Bft) S-SW 211 0 min 0,000 mm 0,0 UV-I 0 W/m -1,5 C 0,6 C 9,7 km/h (2 Bft) 100,00 %
21.04.2017 03:40 0,6 C 86 % 1032,2 hPa 0,0 l/m 6,8 km/h (2 Bft) SW 218 0 min 0,000 mm 0,0 UV-I 0 W/m -1,5 C 0,2 C 9,7 km/h (2 Bft) 98,21 %
21.04.2017 03:42 0,6 C 86 % 1032,2 hPa 0,0 l/m 6,2 km/h (2 Bft) S-SW 207 0 min 0,000 mm 0,0 UV-I 0 W/m -1,5 C 0,6 C 9,7 km/h (2 Bft) 97,56 %
21.04.2017 03:44 0,6 C 86 % 1032,2 hPa 0,0 l/m 4,9 km/h (1 Bft) SW 221 0 min 0,000 mm 0,0 UV-I 0 W/m -1,5 C 0,6 C 6,4 km/h (2 Bft) 100,00 %
21.04.2017 03:46 0,5 C 86 % 1032,2 hPa 0,0 l/m 4,2 km/h (1 Bft) SW 221 0 min 0,000 mm 0,0 UV-I 0 W/m -1,6 C 0,5 C 6,4 km/h (2 Bft) 100,00 %
21.04.2017 03:48 0,5 C 86 % 1032,3 hPa 0,0 l/m 5,0 km/h (1 Bft) SW 225 0 min 0,000 mm 0,0 UV-I 0 W/m -1,6 C 0,5 C 6,4 km/h (2 Bft) 100,00 %
21.04.2017 03:50 0,5 C 86 % 1032,2 hPa 0,0 l/m 4,7 km/h (1 Bft) SW 225 0 min 0,000 mm 0,0 UV-I 0 W/m -1,6 C 0,5 C 6,4 km/h (2 Bft) 95,74 %
21.04.2017 03:52 0,5 C 86 % 1032,3 hPa 0,0 l/m 4,8 km/h (1 Bft) SW 224 0 min 0,000 mm 0,0 UV-I 0 W/m -1,6 C 0,5 C 6,4 km/h (2 Bft) 97,56 %
21.04.2017 03:54 0,4 C 87 % 1032,3 hPa 0,0 l/m 5,0 km/h (1 Bft) SW 224 0 min 0,000 mm 0,0 UV-I 0 W/m -1,5 C 0,4 C 6,4 km/h (2 Bft) 98,11 %
21.04.2017 03:56 0,4 C 87 % 1032,2 hPa 0,0 l/m 4,4 km/h (1 Bft) SW 224 0 min 0,000 mm 0,0 UV-I 0 W/m -1,5 C 0,4 C 6,4 km/h (2 Bft) 97,87 %
21.04.2017 03:58 0,4 C 87 % 1032,2 hPa 0,0 l/m 5,4 km/h (1 Bft) SW 221 0 min 0,000 mm 0,0 UV-I 0 W/m -1,5 C 0,4 C 8,0 km/h (2 Bft) 100,00 %
21.04.2017 04:00 0,4 C 87 % 1032,1 hPa 0,0 l/m 5,3 km/h (1 Bft) SW 217 0 min 0,000 mm 0,0 UV-I 0 W/m -1,5 C 0,4 C 8,0 km/h (2 Bft) 97,56 %
21.04.2017 04:02 0,4 C 87 % 1032,1 hPa 0,0 l/m 6,2 km/h (2 Bft) SW 236 0 min 0,000 mm 0,0 UV-I 0 W/m -1,5 C 0,4 C 11,3 km/h (2 Bft) 100,00 %
21.04.2017 04:04 0,4 C 87 % 1032,1 hPa 0,0 l/m 4,9 km/h (1 Bft) SW 220 0 min 0,000 mm 0,0 UV-I 0 W/m -1,5 C 0,4 C 6,4 km/h (2 Bft) 100,00 %
21.04.2017 04:06 0,4 C 87 % 1032,1 hPa 0,0 l/m 5,2 km/h (1 Bft) SW 227 0 min 0,000 mm 0,0 UV-I 0 W/m -1,5 C 0,4 C 6,4 km/h (2 Bft) 100,00 %
21.04.2017 04:08 0,4 C 87 % 1032,0 hPa 0,0 l/m 4,9 km/h (1 Bft) SW 232 0 min 0,000 mm 0,0 UV-I 0 W/m -1,5 C 0,4 C 8,0 km/h (2 Bft) 100,00 %
21.04.2017 04:10 0,3 C 87 % 1032,0 hPa 0,0 l/m 5,3 km/h (1 Bft) SW 220 0 min 0,000 mm 0,0 UV-I 0 W/m -1,6 C 0,3 C 8,0 km/h (2 Bft) 100,00 %
21.04.2017 04:12 0,3 C 87 % 1032,0 hPa 0,0 l/m 6,5 km/h (2 Bft) S-SW 207 0 min 0,000 mm 0,0 UV-I 0 W/m -1,6 C 0,2 C 8,0 km/h (2 Bft) 98,21 %
21.04.2017 04:14 0,3 C 87 % 1032,0 hPa 0,0 l/m 6,4 km/h (2 Bft) W-SW 240 0 min 0,000 mm 0,0 UV-I 0 W/m -1,6 C 0,3 C 9,7 km/h (2 Bft) 98,21 %
21.04.2017 04:16 0,3 C 87 % 1032,0 hPa 0,0 l/m 6,6 km/h (2 Bft) SW 225 0 min 0,000 mm 0,0 UV-I 0 W/m -1,6 C 0,1 C 9,7 km/h (2 Bft) 100,00 %
21.04.2017 04:18 0,3 C 87 % 1032,0 hPa 0,0 l/m 5,9 km/h (2 Bft) SW 215 0 min 0,000 mm 0,0 UV-I 0 W/m -1,6 C 0,3 C 8,0 km/h (2 Bft) 97,37 %
21.04.2017 04:20 0,3 C 87 % 1032,0 hPa 0,0 l/m 5,6 km/h (1 Bft) S-SW 208 0 min 0,000 mm 0,0 UV-I 0 W/m -1,6 C 0,3 C 8,0 km/h (2 Bft) 100,00 %
21.04.2017 04:22 0,3 C 87 % 1032,1 hPa 0,0 l/m 5,3 km/h (1 Bft) S-SW 207 0 min 0,000 mm 0,0 UV-I 0 W/m -1,6 C 0,3 C 8,0 km/h (2 Bft) 100,00 %
21.04.2017 04:24 0,3 C 87 % 1032,0 hPa 0,0 l/m 5,8 km/h (2 Bft) SW 235 0 min 0,000 mm 0,0 UV-I 0 W/m -1,6 C 0,3 C 8,0 km/h (2 Bft) 97,37 %
21.04.2017 04:26 0,3 C 87 % 1032,1 hPa 0,0 l/m 4,5 km/h (1 Bft) SW 235 0 min 0,000 mm 0,0 UV-I 0 W/m -1,6 C 0,3 C 6,4 km/h (2 Bft) 94,34 %
21.04.2017 04:28 0,3 C 87 % 1032,0 hPa 0,0 l/m 4,6 km/h (1 Bft) SW 224 0 min 0,000 mm 0,0 UV-I 0 W/m -1,6 C 0,3 C 8,0 km/h (2 Bft) 98,00 %
21.04.2017 04:30 0,3 C 87 % 1032,0 hPa 0,0 l/m 5,6 km/h (1 Bft) SW 221 0 min 0,000 mm 0,0 UV-I 0 W/m -1,6 C 0,3 C 9,7 km/h (2 Bft) 94,74 %
21.04.2017 04:32 0,3 C 88 % 1032,0 hPa 0,0 l/m 5,6 km/h (1 Bft) SW 226 0 min 0,000 mm 0,0 UV-I 0 W/m -1,4 C 0,3 C 8,0 km/h (2 Bft) 97,87 %
21.04.2017 04:34 0,3 C 87 % 1032,0 hPa 0,0 l/m 5,4 km/h (1 Bft) SW 234 0 min 0,000 mm 0,0 UV-I 0 W/m -1,6 C 0,3 C 8,0 km/h (2 Bft) 98,00 %
21.04.2017 04:36 0,3 C 87 % 1031,9 hPa 0,0 l/m 5,9 km/h (2 Bft) SW 217 0 min 0,000 mm 0,0 UV-I 0 W/m -1,6 C 0,3 C 8,0 km/h (2 Bft) 97,87 %
21.04.2017 04:38 0,3 C 87 % 1031,9 hPa 0,0 l/m 6,2 km/h (2 Bft) SW 215 0 min 0,000 mm 0,0 UV-I 0 W/m -1,6 C 0,3 C 9,7 km/h (2 Bft) 94,34 %
21.04.2017 04:40 0,3 C 87 % 1031,9 hPa 0,0 l/m 5,6 km/h (1 Bft) SW 215 0 min 0,000 mm 0,0 UV-I 0 W/m -1,6 C 0,3 C 8,0 km/h (2 Bft) 100,00 %
21.04.2017 04:42 0,3 C 87 % 1031,9 hPa 0,0 l/m 6,4 km/h (2 Bft) SW 221 0 min 0,000 mm 0,0 UV-I 0 W/m -1,6 C 0,3 C 11,3 km/h (2 Bft) 96,43 %
21.04.2017 04:44 0,3 C 87 % 1031,9 hPa 0,0 l/m 6,5 km/h (2 Bft) SW 222 0 min 0,000 mm 0,0 UV-I 0 W/m -1,6 C 0,2 C 9,7 km/h (2 Bft) 97,56 %
21.04.2017 04:46 0,3 C 87 % 1031,9 hPa 0,0 l/m 6,4 km/h (2 Bft) S-SW 200 0 min 0,000 mm 0,0 UV-I 0 W/m -1,6 C 0,3 C 9,7 km/h (2 Bft) 96,00 %
21.04.2017 04:48 0,3 C 87 % 1031,8 hPa 0,0 l/m 6,1 km/h (2 Bft) SW 217 0 min 0,000 mm 0,0 UV-I 0 W/m -1,6 C 0,3 C 8,0 km/h (2 Bft) 97,56 %
21.04.2017 04:50 0,3 C 87 % 1031,8 hPa 0,0 l/m 6,3 km/h (2 Bft) S-SW 211 0 min 0,000 mm 0,0 UV-I 0 W/m -1,6 C 0,3 C 8,0 km/h (2 Bft) 98,00 %
21.04.2017 04:52 0,3 C 87 % 1031,8 hPa 0,0 l/m 6,1 km/h (2 Bft) S-SW 212 0 min 0,000 mm 0,0 UV-I 0 W/m -1,6 C 0,3 C 8,0 km/h (2 Bft) 98,00 %
21.04.2017 04:54 0,3 C 87 % 1031,8 hPa 0,0 l/m 5,4 km/h (1 Bft) S-SW 212 0 min 0,000 mm 0,0 UV-I 0 W/m -1,6 C 0,3 C 8,0 km/h (2 Bft) 97,56 %
21.04.2017 04:56 0,3 C 87 % 1031,8 hPa 0,0 l/m 5,6 km/h (1 Bft) SW 216 0 min 0,000 mm 0,0 UV-I 0 W/m -1,6 C 0,3 C 8,0 km/h (2 Bft) 98,00 %
21.04.2017 04:58 0,3 C 87 % 1031,8 hPa 0,0 l/m 5,9 km/h (2 Bft) SW 218 0 min 0,000 mm 0,0 UV-I 0 W/m -1,6 C 0,3 C 9,7 km/h (2 Bft) 92,45 %
21.04.2017 05:00 0,3 C 87 % 1031,8 hPa 0,0 l/m 4,8 km/h (1 Bft) SW 220 0 min 0,000 mm 0,0 UV-I 0 W/m -1,6 C 0,3 C 8,0 km/h (2 Bft) 92,68 %
21.04.2017 05:02 0,2 C 87 % 1031,7 hPa 0,0 l/m 4,9 km/h (1 Bft) SW 220 0 min 0,000 mm 0,0 UV-I 0 W/m -1,7 C 0,2 C 6,4 km/h (2 Bft) 94,34 %
21.04.2017 05:04 0,2 C 87 % 1031,7 hPa 0,0 l/m 4,8 km/h (1 Bft) SW 221 0 min 0,000 mm 0,0 UV-I 0 W/m -1,7 C 0,2 C 8,0 km/h (2 Bft) 100,00 %
21.04.2017 05:06 0,2 C 87 % 1031,7 hPa 0,0 l/m 4,8 km/h (1 Bft) SW 221 0 min 0,000 mm 0,0 UV-I 0 W/m -1,7 C 0,2 C 6,4 km/h (2 Bft) 94,74 %
21.04.2017 05:08 0,2 C 88 % 1031,7 hPa 0,0 l/m 5,3 km/h (1 Bft) SW 222 0 min 0,000 mm 0,0 UV-I 0 W/m -1,5 C 0,2 C 6,4 km/h (2 Bft) 100,00 %
21.04.2017 05:10 0,2 C 88 % 1031,7 hPa 0,0 l/m 4,9 km/h (1 Bft) SW 224 0 min 0,000 mm 0,0 UV-I 0 W/m -1,5 C 0,2 C 8,0 km/h (2 Bft) 100,00 %
21.04.2017 05:12 0,2 C 88 % 1031,7 hPa 0,0 l/m 5,5 km/h (1 Bft) SW 224 0 min 0,000 mm 0,0 UV-I 0 W/m -1,5 C 0,2 C 8,0 km/h (2 Bft) 95,12 %
21.04.2017 05:14 0,2 C 88 % 1031,7 hPa 0,0 l/m 6,5 km/h (2 Bft) SW 232 0 min 0,000 mm 0,0 UV-I 0 W/m -1,5 C 0,1 C 8,0 km/h (2 Bft) 100,00 %
21.04.2017 05:16 0,2 C 88 % 1031,7 hPa 0,0 l/m 5,8 km/h (2 Bft) W-SW 239 0 min 0,000 mm 0,0 UV-I 0 W/m -1,5 C 0,2 C 8,0 km/h (2 Bft) 97,62 %
21.04.2017 05:18 0,2 C 88 % 1031,6 hPa 0,0 l/m 5,5 km/h (1 Bft) SW 230 0 min 0,000 mm 0,0 UV-I 0 W/m -1,5 C 0,2 C 8,0 km/h (2 Bft) 100,00 %
21.04.2017 05:20 0,2 C 88 % 1031,6 hPa 0,0 l/m 6,2 km/h (2 Bft) W-SW 242 0 min 0,000 mm 0,0 UV-I 0 W/m -1,5 C 0,2 C 8,0 km/h (2 Bft) 100,00 %
21.04.2017 05:22 0,1 C 88 % 1031,6 hPa 0,0 l/m 4,8 km/h (1 Bft) SW 225 0 min 0,000 mm 0,0 UV-I 0 W/m -1,6 C 0,1 C 8,0 km/h (2 Bft) 100,00 %
21.04.2017 05:24 0,1 C 88 % 1031,6 hPa 0,0 l/m 5,5 km/h (1 Bft) SW 232 0 min 0,000 mm 0,0 UV-I 0 W/m -1,6 C 0,1 C 8,0 km/h (2 Bft) 100,00 %
21.04.2017 05:26 0,1 C 88 % 1031,6 hPa 0,0 l/m 5,4 km/h (1 Bft) SW 221 0 min 0,000 mm 0,0 UV-I 0 W/m -1,6 C 0,1 C 8,0 km/h (2 Bft) 100,00 %
21.04.2017 05:28 0,1 C 88 % 1031,6 hPa 0,0 l/m 5,3 km/h (1 Bft) SW 225 0 min 0,000 mm 0,0 UV-I 0 W/m -1,6 C 0,1 C 8,0 km/h (2 Bft) 100,00 %
21.04.2017 05:30 0,1 C 88 % 1031,6 hPa 0,0 l/m 5,5 km/h (1 Bft) SW 232 0 min 0,000 mm 0,0 UV-I 0 W/m -1,6 C 0,1 C 8,0 km/h (2 Bft) 100,00 %
21.04.2017 05:32 0,1 C 88 % 1031,6 hPa 0,0 l/m 5,2 km/h (1 Bft) SW 234 0 min 0,000 mm 0,0 UV-I 0 W/m -1,6 C 0,1 C 6,4 km/h (2 Bft) 100,00 %
21.04.2017 05:34 0,1 C 88 % 1031,6 hPa 0,0 l/m 5,8 km/h (2 Bft) SW 225 0 min 0,000 mm 0,0 UV-I 0 W/m -1,6 C 0,1 C 8,0 km/h (2 Bft) 100,00 %
21.04.2017 05:36 0,1 C 88 % 1031,5 hPa 0,0 l/m 5,5 km/h (1 Bft) SW 221 0 min 0,000 mm 0,0 UV-I 0 W/m -1,6 C 0,1 C 8,0 km/h (2 Bft) 96,23 %
21.04.2017 05:38 0,0 C 88 % 1031,6 hPa 0,0 l/m 4,4 km/h (1 Bft) SW 221 0 min 0,000 mm 0,0 UV-I 0 W/m -1,7 C 0,0 C 6,4 km/h (2 Bft) 100,00 %
21.04.2017 05:40 -0,1 C 88 % 1031,5 hPa 0,0 l/m 4,9 km/h (1 Bft) SW 221 0 min 0,000 mm 0,0 UV-I 0 W/m -1,8 C -0,1 C 6,4 km/h (2 Bft) 100,00 %
21.04.2017 05:42 -0,1 C 88 % 1031,6 hPa 0,0 l/m 5,3 km/h (1 Bft) SW 221 0 min 0,000 mm 0,0 UV-I 0 W/m -1,8 C -0,1 C 6,4 km/h (2 Bft) 97,14 %
21.04.2017 05:44 -0,1 C 88 % 1031,6 hPa 0,0 l/m 5,2 km/h (1 Bft) SW 221 0 min 0,000 mm 0,0 UV-I 0 W/m -1,8 C -0,1 C 8,0 km/h (2 Bft) 98,00 %
21.04.2017 05:46 -0,2 C 89 % 1031,6 hPa 0,0 l/m 5,9 km/h (2 Bft) SW 226 0 min 0,000 mm 0,0 UV-I 0 W/m -1,8 C -0,2 C 8,0 km/h (2 Bft) 98,11 %
21.04.2017 05:48 -0,2 C 89 % 1031,6 hPa 0,0 l/m 6,2 km/h (2 Bft) SW 234 0 min 0,000 mm 0,0 UV-I 0 W/m -1,8 C -0,2 C 8,0 km/h (2 Bft) 97,37 %
21.04.2017 05:50 -0,2 C 89 % 1031,6 hPa 0,0 l/m 5,3 km/h (1 Bft) SW 234 0 min 0,000 mm 0,0 UV-I 1 W/m -1,8 C -0,2 C 8,0 km/h (2 Bft) 94,34 %
21.04.2017 05:52 -0,2 C 89 % 1031,6 hPa 0,0 l/m 5,3 km/h (1 Bft) SW 227 0 min 0,000 mm 0,0 UV-I 5 W/m -1,8 C -0,2 C 6,4 km/h (2 Bft) 97,56 %
21.04.2017 05:54 -0,3 C 89 % 1031,6 hPa 0,0 l/m 5,8 km/h (2 Bft) W-SW 238 0 min 0,000 mm 0,0 UV-I 5 W/m -1,9 C -0,3 C 8,0 km/h (2 Bft) 98,00 %
21.04.2017 05:56 -0,3 C 89 % 1031,5 hPa 0,0 l/m 5,1 km/h (1 Bft) SW 231 0 min 0,000 mm 0,0 UV-I 5 W/m -1,9 C -0,3 C 6,4 km/h (2 Bft) 98,11 %
21.04.2017 05:58 -0,3 C 89 % 1031,5 hPa 0,0 l/m 5,9 km/h (2 Bft) SW 219 0 min 0,000 mm 0,0 UV-I 6 W/m -1,9 C -0,3 C 8,0 km/h (2 Bft) 97,44 %
21.04.2017 06:00 -0,3 C 89 % 1031,6 hPa 0,0 l/m 6,5 km/h (2 Bft) SW 230 0 min 0,000 mm 0,0 UV-I 7 W/m -1,9 C -0,4 C 8,0 km/h (2 Bft) 96,00 %
21.04.2017 06:02 -0,3 C 89 % 1031,5 hPa 0,0 l/m 6,6 km/h (2 Bft) SW 232 0 min 0,000 mm 0,0 UV-I 7 W/m -1,9 C -0,5 C 9,7 km/h (2 Bft) 98,00 %
21.04.2017 06:04 -0,3 C 89 % 1031,5 hPa 0,0 l/m 6,7 km/h (2 Bft) SW 223 0 min 0,000 mm 0,0 UV-I 8 W/m -1,9 C -0,6 C 9,7 km/h (2 Bft) 97,87 %
21.04.2017 06:06 -0,3 C 89 % 1031,5 hPa 0,0 l/m 5,9 km/h (2 Bft) SW 223 0 min 0,000 mm 0,0 UV-I 9 W/m -1,9 C -0,3 C 9,7 km/h (2 Bft) 97,37 %
21.04.2017 06:08 -0,3 C 89 % 1031,6 hPa 0,0 l/m 6,8 km/h (2 Bft) SW 236 0 min 0,000 mm 0,0 UV-I 10 W/m -1,9 C -0,7 C 9,7 km/h (2 Bft) 96,23 %
21.04.2017 06:10 -0,3 C 89 % 1031,6 hPa 0,0 l/m 6,6 km/h (2 Bft) SW 222 0 min 0,000 mm 0,0 UV-I 11 W/m -1,9 C -0,5 C 9,7 km/h (2 Bft) 97,56 %
21.04.2017 06:12 -0,3 C 89 % 1031,5 hPa 0,0 l/m 7,4 km/h (2 Bft) SW 226 0 min 0,000 mm 0,0 UV-I 12 W/m -1,9 C -1,4 C 9,7 km/h (2 Bft) 94,64 %
21.04.2017 06:14 -0,3 C 89 % 1031,6 hPa 0,0 l/m 7,0 km/h (2 Bft) SW 232 2 min 0,000 mm 0,0 UV-I 12 W/m -1,9 C -0,9 C 9,7 km/h (2 Bft) 97,37 %
21.04.2017 06:16 -0,3 C 89 % 1031,5 hPa 0,0 l/m 6,4 km/h (2 Bft) SW 233 2 min 0,000 mm 0,0 UV-I 14 W/m -1,9 C -0,3 C 9,7 km/h (2 Bft) 97,87 %
21.04.2017 06:18 -0,3 C 89 % 1031,6 hPa 0,0 l/m 5,6 km/h (1 Bft) W-SW 250 0 min 0,000 mm 0,0 UV-I 14 W/m -1,9 C -0,3 C 8,0 km/h (2 Bft) 96,23 %
21.04.2017 06:20 -0,3 C 89 % 1031,6 hPa 0,0 l/m 5,2 km/h (1 Bft) W-SW 242 0 min 0,000 mm 0,0 UV-I 15 W/m -1,9 C -0,3 C 8,0 km/h (2 Bft) 95,45 %
21.04.2017 06:22 -0,3 C 89 % 1031,6 hPa 0,0 l/m 5,3 km/h (1 Bft) SW 214 0 min 0,000 mm 0,0 UV-I 16 W/m -1,9 C -0,3 C 6,4 km/h (2 Bft) 97,37 %
21.04.2017 06:24 -0,3 C 89 % 1031,6 hPa 0,0 l/m 5,8 km/h (2 Bft) W-SW 244 0 min 0,000 mm 0,0 UV-I 20 W/m -1,9 C -0,3 C 8,0 km/h (2 Bft) 96,77 %
21.04.2017 06:26 -0,3 C 89 % 1031,6 hPa 0,0 l/m 5,1 km/h (1 Bft) SW 232 0 min 0,000 mm 0,0 UV-I 22 W/m -1,9 C -0,3 C 6,4 km/h (2 Bft) 94,74 %
21.04.2017 06:28 -0,3 C 89 % 1031,6 hPa 0,0 l/m 5,6 km/h (1 Bft) W-SW 247 0 min 0,000 mm 0,0 UV-I 24 W/m -1,9 C -0,3 C 8,0 km/h (2 Bft) 98,18 %
21.04.2017 06:30 -0,3 C 88 % 1031,6 hPa 0,0 l/m 6,4 km/h (2 Bft) W-SW 246 0 min 0,000 mm 0,0 UV-I 26 W/m -2,0 C -0,3 C 11,3 km/h (2 Bft) 95,74 %
21.04.2017 06:32 -0,3 C 88 % 1031,6 hPa 0,0 l/m 8,4 km/h (2 Bft) SW 236 0 min 0,000 mm 0,0 UV-I 26 W/m -2,0 C -2,4 C 12,9 km/h (3 Bft) 95,45 %
21.04.2017 06:34 -0,3 C 88 % 1031,6 hPa 0,0 l/m 6,0 km/h (2 Bft) W-SW 242 0 min 0,000 mm 0,0 UV-I 26 W/m -2,0 C -0,3 C 9,7 km/h (2 Bft) 97,62 %
21.04.2017 06:36 -0,2 C 88 % 1031,6 hPa 0,0 l/m 7,2 km/h (2 Bft) W-SW 250 0 min 0,000 mm 0,0 UV-I 26 W/m -1,9 C -1,0 C 11,3 km/h (2 Bft) 98,00 %
21.04.2017 06:38 -0,2 C 88 % 1031,6 hPa 0,0 l/m 7,4 km/h (2 Bft) S-SW 209 0 min 0,000 mm 0,0 UV-I 28 W/m -1,9 C -1,2 C 9,7 km/h (2 Bft) 98,08 %
21.04.2017 06:40 -0,2 C 88 % 1031,6 hPa 0,0 l/m 7,1 km/h (2 Bft) SW 236 0 min 0,000 mm 0,0 UV-I 32 W/m -1,9 C -0,9 C 9,7 km/h (2 Bft) 97,44 %
21.04.2017 06:42 -0,2 C 88 % 1031,6 hPa 0,0 l/m 7,3 km/h (2 Bft) W-SW 241 0 min 0,000 mm 0,0 UV-I 33 W/m -1,9 C -1,1 C 11,3 km/h (2 Bft) 92,45 %
21.04.2017 06:44 -0,2 C 88 % 1031,7 hPa 0,0 l/m 7,6 km/h (2 Bft) W-SW 240 0 min 0,000 mm 0,0 UV-I 35 W/m -1,9 C -1,5 C 11,3 km/h (2 Bft) 97,56 %
21.04.2017 06:46 -0,1 C 88 % 1031,7 hPa 0,0 l/m 7,3 km/h (2 Bft) SW 226 0 min 0,000 mm 0,0 UV-I 36 W/m -1,8 C -1,0 C 11,3 km/h (2 Bft) 98,11 %
21.04.2017 06:48 -0,1 C 88 % 1031,6 hPa 0,0 l/m 6,2 km/h (2 Bft) SW 223 0 min 0,000 mm 0,0 UV-I 37 W/m -1,8 C -0,1 C 9,7 km/h (2 Bft) 97,87 %
21.04.2017 06:50 0,0 C 88 % 1031,6 hPa 0,0 l/m 7,2 km/h (2 Bft) SW 221 0 min 0,000 mm 0,0 UV-I 39 W/m -1,7 C -0,8 C 9,7 km/h (2 Bft) 94,29 %
21.04.2017 06:52 0,1 C 88 % 1031,6 hPa 0,0 l/m 6,0 km/h (2 Bft) SW 235 0 min 0,000 mm 0,0 UV-I 40 W/m -1,6 C 0,1 C 9,7 km/h (2 Bft) 98,21 %
21.04.2017 06:54 0,1 C 88 % 1031,6 hPa 0,0 l/m 7,7 km/h (2 Bft) SW 227 0 min 0,000 mm 0,0 UV-I 40 W/m -1,6 C -1,2 C 9,7 km/h (2 Bft) 93,18 %
21.04.2017 06:56 0,2 C 88 % 1031,6 hPa 0,0 l/m 6,5 km/h (2 Bft) SW 227 0 min 0,000 mm 0,0 UV-I 41 W/m -1,5 C 0,1 C 9,7 km/h (2 Bft) 96,23 %
21.04.2017 06:58 0,2 C 87 % 1031,7 hPa 0,0 l/m 7,4 km/h (2 Bft) SW 233 0 min 0,000 mm 0,0 UV-I 44 W/m -1,7 C -0,8 C 9,7 km/h (2 Bft) 95,45 %
21.04.2017 07:00 0,2 C 87 % 1031,7 hPa 0,0 l/m 8,0 km/h (2 Bft) SW 232 0 min 0,025 mm 0,0 UV-I 47 W/m -1,7 C -1,4 C 12,9 km/h (3 Bft) 97,56 %
21.04.2017 07:02 0,2 C 87 % 1031,7 hPa 0,0 l/m 6,3 km/h (2 Bft) SW 228 0 min 0,000 mm 0,0 UV-I 49 W/m -1,7 C 0,2 C 9,7 km/h (2 Bft) 93,62 %
21.04.2017 07:04 0,3 C 87 % 1031,8 hPa 0,0 l/m 6,7 km/h (2 Bft) SW 234 0 min 0,000 mm 0,0 UV-I 49 W/m -1,6 C 0,0 C 9,7 km/h (2 Bft) 93,62 %
21.04.2017 07:06 0,3 C 87 % 1031,8 hPa 0,0 l/m 7,3 km/h (2 Bft) W-SW 248 0 min 0,000 mm 0,0 UV-I 52 W/m -1,6 C -0,6 C 11,3 km/h (2 Bft) 96,00 %
21.04.2017 07:08 0,4 C 87 % 1031,9 hPa 0,0 l/m 8,5 km/h (2 Bft) W-SW 246 0 min 0,000 mm 0,0 UV-I 55 W/m -1,5 C -1,7 C 12,9 km/h (3 Bft) 97,73 %
21.04.2017 07:10 0,4 C 87 % 1031,8 hPa 0,0 l/m 8,9 km/h (2 Bft) SW 234 0 min 0,000 mm 0,0 UV-I 59 W/m -1,5 C -2,1 C 12,9 km/h (3 Bft) 95,24 %
21.04.2017 07:12 0,5 C 87 % 1031,9 hPa 0,0 l/m 8,8 km/h (2 Bft) SW 217 0 min 0,000 mm 0,0 UV-I 65 W/m -1,4 C -1,9 C 14,5 km/h (3 Bft) 94,00 %
21.04.2017 07:14 0,6 C 87 % 1031,8 hPa 0,0 l/m 8,9 km/h (2 Bft) SW 225 0 min 0,000 mm 0,0 UV-I 72 W/m -1,3 C -1,8 C 11,3 km/h (2 Bft) 97,87 %
21.04.2017 07:16 0,6 C 87 % 1031,8 hPa 0,0 l/m 10,3 km/h (2 Bft) S-SW 207 0 min 0,000 mm 0,0 UV-I 76 W/m -1,3 C -3,0 C 16,1 km/h (3 Bft) 94,23 %
21.04.2017 07:18 0,7 C 86 % 1031,8 hPa 0,0 l/m 11,2 km/h (2 Bft) W-SW 247 0 min 0,000 mm 0,0 UV-I 76 W/m -1,4 C -3,6 C 17,7 km/h (3 Bft) 97,44 %
21.04.2017 07:20 0,8 C 86 % 1031,8 hPa 0,0 l/m 10,7 km/h (2 Bft) S-SW 200 0 min 0,000 mm 0,0 UV-I 78 W/m -1,3 C -3,1 C 14,5 km/h (3 Bft) 100,00 %
21.04.2017 07:22 0,8 C 86 % 1031,8 hPa 0,0 l/m 12,2 km/h (2 Bft) SW 215 0 min 0,000 mm 0,0 UV-I 78 W/m -1,3 C -4,2 C 16,1 km/h (3 Bft) 98,00 %
21.04.2017 07:24 0,8 C 85 % 1031,8 hPa 0,0 l/m 9,1 km/h (2 Bft) W-SW 248 0 min 0,000 mm 0,0 UV-I 79 W/m -1,4 C -1,8 C 14,5 km/h (3 Bft) 97,56 %
21.04.2017 07:26 0,9 C 85 % 1031,8 hPa 0,0 l/m 11,2 km/h (2 Bft) W-SW 247 0 min 0,000 mm 0,0 UV-I 84 W/m -1,3 C -3,4 C 17,7 km/h (3 Bft) 100,00 %
21.04.2017 07:28 0,9 C 85 % 1031,8 hPa 0,0 l/m 10,6 km/h (2 Bft) S-SW 202 0 min 0,000 mm 0,0 UV-I 92 W/m -1,3 C -2,9 C 16,1 km/h (3 Bft) 98,00 %
21.04.2017 07:30 1,0 C 85 % 1031,8 hPa 0,0 l/m 10,4 km/h (2 Bft) W-SW 246 0 min 0,000 mm 0,0 UV-I 91 W/m -1,2 C -2,7 C 17,7 km/h (3 Bft) 97,37 %
21.04.2017 07:32 1,1 C 85 % 1031,9 hPa 0,0 l/m 10,4 km/h (2 Bft) S-SW 203 0 min 0,000 mm 0,0 UV-I 114 W/m -1,1 C -2,6 C 14,5 km/h (3 Bft) 93,62 %
21.04.2017 07:34 1,2 C 84 % 1031,8 hPa 0,0 l/m 9,8 km/h (2 Bft) SW 234 0 min 0,000 mm 0,0 UV-I 107 W/m -1,2 C -2,0 C 14,5 km/h (3 Bft) 96,00 %
21.04.2017 07:36 1,2 C 84 % 1031,9 hPa 0,0 l/m 10,8 km/h (2 Bft) SW 227 0 min 0,000 mm 0,0 UV-I 104 W/m -1,2 C -2,7 C 19,3 km/h (3 Bft) 95,45 %
21.04.2017 07:38 1,2 C 83 % 1031,9 hPa 0,0 l/m 11,1 km/h (2 Bft) W-SW 254 0 min 0,000 mm 0,0 UV-I 103 W/m -1,4 C -3,0 C 19,3 km/h (3 Bft) 98,00 %
21.04.2017 07:40 1,2 C 83 % 1031,9 hPa 0,0 l/m 10,5 km/h (2 Bft) SW 222 0 min 0,000 mm 0,0 UV-I 104 W/m -1,4 C -2,5 C 16,1 km/h (3 Bft) 92,11 %
21.04.2017 07:42 1,3 C 83 % 1031,9 hPa 0,0 l/m 10,5 km/h (2 Bft) S-SW 194 0 min 0,000 mm 0,0 UV-I 105 W/m -1,3 C -2,4 C 14,5 km/h (3 Bft) 100,00 %
21.04.2017 07:44 1,3 C 84 % 1031,9 hPa 0,0 l/m 11,3 km/h (2 Bft) S-SW 212 0 min 0,000 mm 0,0 UV-I 109 W/m -1,1 C -3,0 C 14,5 km/h (3 Bft) 97,37 %
21.04.2017 07:46 1,3 C 83 % 1031,9 hPa 0,0 l/m 12,7 km/h (3 Bft) SW 233 0 min 0,000 mm 0,0 UV-I 113 W/m -1,3 C -4,0 C 17,7 km/h (3 Bft) 96,00 %
21.04.2017 07:48 1,3 C 83 % 1031,9 hPa 0,0 l/m 9,4 km/h (2 Bft) SW 226 0 min 0,000 mm 0,0 UV-I 125 W/m -1,3 C -1,5 C 14,5 km/h (3 Bft) 100,00 %
21.04.2017 07:50 1,4 C 83 % 1031,9 hPa 0,0 l/m 10,8 km/h (2 Bft) W-SW 249 0 min 0,000 mm 0,0 UV-I 140 W/m -1,2 C -2,5 C 16,1 km/h (3 Bft) 92,68 %
21.04.2017 07:52 1,4 C 82 % 1031,9 hPa 0,0 l/m 8,9 km/h (2 Bft) W-SW 244 0 min 0,000 mm 0,0 UV-I 138 W/m -1,3 C -1,0 C 14,5 km/h (3 Bft) 97,44 %
21.04.2017 07:54 1,5 C 82 % 1031,8 hPa 0,0 l/m 8,8 km/h (2 Bft) W-SW 237 0 min 0,000 mm 0,0 UV-I 122 W/m -1,2 C -0,8 C 12,9 km/h (3 Bft) 94,64 %
21.04.2017 07:56 1,6 C 82 % 1031,8 hPa 0,0 l/m 10,5 km/h (2 Bft) W 263 0 min 0,000 mm 0,0 UV-I 114 W/m -1,1 C -2,1 C 14,5 km/h (3 Bft) 98,08 %
21.04.2017 07:58 1,6 C 81 % 1031,8 hPa 0,0 l/m 7,4 km/h (2 Bft) SW 214 0 min 0,000 mm 0,0 UV-I 113 W/m -1,3 C 0,6 C 12,9 km/h (3 Bft) 97,62 %
21.04.2017 08:00 1,7 C 81 % 1031,8 hPa 0,0 l/m 9,0 km/h (2 Bft) SW 234 0 min 0,051 mm 0,0 UV-I 116 W/m -1,2 C -0,8 C 12,9 km/h (3 Bft) 96,23 %
21.04.2017 08:02 1,7 C 81 % 1031,8 hPa 0,0 l/m 8,6 km/h (2 Bft) S-SW 213 0 min 0,000 mm 0,0 UV-I 118 W/m -1,2 C -0,4 C 12,9 km/h (3 Bft) 98,00 %
21.04.2017 08:04 1,8 C 81 % 1031,8 hPa 0,0 l/m 11,5 km/h (2 Bft) W-SW 243 0 min 0,000 mm 0,0 UV-I 117 W/m -1,1 C -2,6 C 19,3 km/h (3 Bft) 92,11 %
21.04.2017 08:06 1,8 C 81 % 1031,9 hPa 0,0 l/m 10,6 km/h (2 Bft) W-SW 239 0 min 0,000 mm 0,0 UV-I 117 W/m -1,1 C -1,9 C 17,7 km/h (3 Bft) 100,00 %
21.04.2017 08:08 1,8 C 81 % 1031,8 hPa 0,0 l/m 11,3 km/h (2 Bft) SW 217 0 min 0,000 mm 0,0 UV-I 120 W/m -1,1 C -2,4 C 17,7 km/h (3 Bft) 98,11 %
21.04.2017 08:10 1,8 C 81 % 1031,9 hPa 0,0 l/m 9,7 km/h (2 Bft) W-SW 250 0 min 0,000 mm 0,0 UV-I 122 W/m -1,1 C -1,2 C 14,5 km/h (3 Bft) 97,56 %
21.04.2017 08:12 1,9 C 81 % 1031,9 hPa 0,0 l/m 8,5 km/h (2 Bft) SW 225 0 min 0,000 mm 0,0 UV-I 124 W/m -1,0 C -0,1 C 12,9 km/h (3 Bft) 98,21 %
21.04.2017 08:14 1,9 C 81 % 1031,9 hPa 0,0 l/m 8,6 km/h (2 Bft) SW 229 0 min 0,000 mm 0,0 UV-I 129 W/m -1,0 C -0,2 C 11,3 km/h (2 Bft) 100,00 %
21.04.2017 08:16 1,9 C 81 % 1031,9 hPa 0,0 l/m 9,6 km/h (2 Bft) SW 225 0 min 0,000 mm 0,0 UV-I 134 W/m -1,0 C -1,0 C 14,5 km/h (3 Bft) 100,00 %
21.04.2017 08:18 2,0 C 80 % 1032,0 hPa 0,0 l/m 8,3 km/h (2 Bft) W-SW 243 0 min 0,000 mm 0,0 UV-I 135 W/m -1,1 C 0,2 C 11,3 km/h (2 Bft) 98,00 %
21.04.2017 08:20 2,1 C 80 % 1031,9 hPa 0,0 l/m 10,3 km/h (2 Bft) W-SW 245 0 min 0,000 mm 0,0 UV-I 140 W/m -1,0 C -1,4 C 16,1 km/h (3 Bft) 100,00 %
21.04.2017 08:22 2,1 C 80 % 1032,0 hPa 0,0 l/m 13,1 km/h (3 Bft) W-SW 251 0 min 0,000 mm 0,0 UV-I 148 W/m -1,0 C -3,3 C 22,5 km/h (4 Bft) 100,00 %
21.04.2017 08:24 2,1 C 79 % 1032,0 hPa 0,0 l/m 11,9 km/h (2 Bft) W-SW 254 0 min 0,000 mm 0,0 UV-I 155 W/m -1,2 C -2,5 C 17,7 km/h (3 Bft) 98,44 %
21.04.2017 08:26 2,2 C 79 % 1032,0 hPa 0,0 l/m 12,2 km/h (2 Bft) W-SW 255 0 min 0,000 mm 0,0 UV-I 162 W/m -1,1 C -2,6 C 19,3 km/h (3 Bft) 100,00 %
21.04.2017 08:28 2,2 C 78 % 1032,0 hPa 0,0 l/m 11,9 km/h (2 Bft) SW 219 0 min 0,000 mm 0,2 UV-I 162 W/m -1,2 C -2,4 C 17,7 km/h (3 Bft) 98,00 %
21.04.2017 08:30 2,2 C 78 % 1032,0 hPa 0,0 l/m 12,9 km/h (3 Bft) W 270 0 min 0,000 mm 0,5 UV-I 165 W/m -1,2 C -3,1 C 20,9 km/h (4 Bft) 98,00 %
21.04.2017 08:32 2,2 C 77 % 1032,0 hPa 0,0 l/m 13,2 km/h (3 Bft) SW 218 0 min 0,000 mm 0,5 UV-I 180 W/m -1,4 C -3,2 C 19,3 km/h (3 Bft) 100,00 %
21.04.2017 08:34 2,2 C 78 % 1031,9 hPa 0,0 l/m 10,0 km/h (2 Bft) W-SW 258 0 min 0,000 mm 0,5 UV-I 188 W/m -1,2 C -1,0 C 14,5 km/h (3 Bft) 95,45 %
21.04.2017 08:36 2,3 C 78 % 1032,0 hPa 0,0 l/m 11,7 km/h (2 Bft) W-SW 249 0 min 0,000 mm 0,5 UV-I 205 W/m -1,1 C -2,1 C 17,7 km/h (3 Bft) 97,78 %
21.04.2017 08:38 2,3 C 78 % 1032,0 hPa 0,0 l/m 10,7 km/h (2 Bft) W-SW 249 0 min 0,000 mm 0,5 UV-I 198 W/m -1,1 C -1,4 C 14,5 km/h (3 Bft) 98,18 %
21.04.2017 08:40 2,3 C 78 % 1032,0 hPa 0,0 l/m 11,8 km/h (2 Bft) W-SW 255 0 min 0,000 mm 0,6 UV-I 200 W/m -1,1 C -2,2 C 16,1 km/h (3 Bft) 97,62 %
21.04.2017 08:42 2,4 C 78 % 1032,0 hPa 0,0 l/m 10,6 km/h (2 Bft) W-SW 245 0 min 0,000 mm 0,6 UV-I 196 W/m -1,0 C -1,3 C 16,1 km/h (3 Bft) 98,00 %
21.04.2017 08:44 2,4 C 78 % 1031,9 hPa 0,0 l/m 9,3 km/h (2 Bft) W-SW 243 0 min 0,000 mm 0,6 UV-I 204 W/m -1,0 C -0,2 C 12,9 km/h (3 Bft) 92,68 %
21.04.2017 08:46 2,5 C 77 % 1032,0 hPa 0,0 l/m 12,8 km/h (3 Bft) SW 226 0 min 0,000 mm 0,6 UV-I 216 W/m -1,1 C -2,6 C 19,3 km/h (3 Bft) 97,73 %
21.04.2017 08:48 2,5 C 78 % 1032,0 hPa 0,0 l/m 8,5 km/h (2 Bft) SW 234 0 min 0,000 mm 0,6 UV-I 217 W/m -0,9 C 0,5 C 14,5 km/h (3 Bft) 93,22 %
21.04.2017 08:50 2,6 C 76 % 1032,0 hPa 0,0 l/m 12,4 km/h (3 Bft) W-SW 254 0 min 0,000 mm 0,7 UV-I 223 W/m -1,2 C -2,3 C 17,7 km/h (3 Bft) 97,14 %
21.04.2017 08:52 2,7 C 77 % 1032,0 hPa 0,0 l/m 8,6 km/h (2 Bft) W 275 0 min 0,000 mm 0,7 UV-I 228 W/m -0,9 C 0,7 C 17,7 km/h (3 Bft) 94,64 %
21.04.2017 08:54 2,8 C 77 % 1032,0 hPa 0,0 l/m 9,2 km/h (2 Bft) W-SW 257 0 min 0,000 mm 0,7 UV-I 225 W/m -0,8 C 0,3 C 14,5 km/h (3 Bft) 97,56 %
21.04.2017 08:56 2,8 C 77 % 1032,0 hPa 0,0 l/m 10,7 km/h (2 Bft) W-SW 249 0 min 0,000 mm 0,7 UV-I 217 W/m -0,8 C -0,9 C 16,1 km/h (3 Bft) 96,23 %
21.04.2017 08:58 2,9 C 76 % 1032,0 hPa 0,0 l/m 11,5 km/h (2 Bft) SW 217 0 min 0,000 mm 0,7 UV-I 222 W/m -0,9 C -1,3 C 14,5 km/h (3 Bft) 97,56 %
21.04.2017 09:00 2,9 C 76 % 1032,0 hPa 0,0 l/m 11,4 km/h (2 Bft) W 263 0 min 0,076 mm 0,7 UV-I 239 W/m -0,9 C -1,3 C 17,7 km/h (3 Bft) 93,18 %
21.04.2017 09:02 2,9 C 76 % 1032,0 hPa 0,0 l/m 10,6 km/h (2 Bft) W 265 0 min 0,000 mm 0,8 UV-I 251 W/m -0,9 C -0,7 C 17,7 km/h (3 Bft) 92,45 %
21.04.2017 09:04 3,1 C 76 % 1032,0 hPa 0,0 l/m 10,5 km/h (2 Bft) W-SW 255 0 min 0,000 mm 0,8 UV-I 252 W/m -0,7 C -0,4 C 16,1 km/h (3 Bft) 92,68 %
21.04.2017 09:06 3,2 C 76 % 1032,0 hPa 0,0 l/m 8,2 km/h (2 Bft) W 261 0 min 0,000 mm 0,8 UV-I 267 W/m -0,6 C 1,5 C 12,9 km/h (3 Bft) 96,23 %
21.04.2017 09:08 3,3 C 75 % 1032,0 hPa 0,0 l/m 7,9 km/h (2 Bft) W 277 2 min 0,000 mm 0,9 UV-I 285 W/m -0,7 C 1,9 C 16,1 km/h (3 Bft) 95,12 %
21.04.2017 09:10 3,4 C 76 % 1031,9 hPa 0,0 l/m 7,7 km/h (2 Bft) SW 225 2 min 0,000 mm 0,9 UV-I 293 W/m -0,4 C 2,2 C 14,5 km/h (3 Bft) 90,00 %
21.04.2017 09:12 3,5 C 75 % 1031,9 hPa 0,0 l/m 10,6 km/h (2 Bft) SW 231 2 min 0,000 mm 0,9 UV-I 290 W/m -0,5 C -0,0 C 17,7 km/h (3 Bft) 95,74 %
21.04.2017 09:14 3,5 C 73 % 1031,9 hPa 0,0 l/m 11,9 km/h (2 Bft) SW 221 2 min 0,000 mm 1,0 UV-I 294 W/m -0,9 C -0,9 C 17,7 km/h (3 Bft) 97,62 %
21.04.2017 09:16 3,5 C 73 % 1031,9 hPa 0,0 l/m 10,9 km/h (2 Bft) W-SW 249 2 min 0,000 mm 1,0 UV-I 307 W/m -0,9 C -0,2 C 16,1 km/h (3 Bft) 94,55 %
21.04.2017 09:18 3,6 C 73 % 1031,9 hPa 0,0 l/m 8,9 km/h (2 Bft) W-SW 246 2 min 0,000 mm 1,0 UV-I 303 W/m -0,8 C 1,4 C 16,1 km/h (3 Bft) 100,00 %
21.04.2017 09:20 3,6 C 73 % 1031,9 hPa 0,0 l/m 9,7 km/h (2 Bft) SW 220 2 min 0,000 mm 1,0 UV-I 297 W/m -0,8 C 0,8 C 16,1 km/h (3 Bft) 96,43 %
21.04.2017 09:22 3,7 C 74 % 1031,9 hPa 0,0 l/m 7,5 km/h (2 Bft) W-SW 245 2 min 0,000 mm 1,1 UV-I 301 W/m -0,5 C 2,7 C 12,9 km/h (3 Bft) 95,74 %
21.04.2017 09:24 3,8 C 74 % 1031,9 hPa 0,0 l/m 9,5 km/h (2 Bft) SW 217 2 min 0,000 mm 1,1 UV-I 325 W/m -0,4 C 1,1 C 14,5 km/h (3 Bft) 95,12 %
21.04.2017 09:26 3,9 C 73 % 1031,9 hPa 0,0 l/m 9,9 km/h (2 Bft) W-SW 252 2 min 0,000 mm 1,1 UV-I 333 W/m -0,5 C 0,9 C 14,5 km/h (3 Bft) 100,00 %
21.04.2017 09:28 4,1 C 72 % 1031,9 hPa 0,0 l/m 8,9 km/h (2 Bft) W-SW 242 2 min 0,000 mm 1,1 UV-I 333 W/m -0,5 C 1,9 C 12,9 km/h (3 Bft) 94,74 %
21.04.2017 09:30 4,2 C 70 % 1031,8 hPa 0,0 l/m 11,9 km/h (2 Bft) W 273 2 min 0,000 mm 1,1 UV-I 320 W/m -0,8 C -0,1 C 17,7 km/h (3 Bft) 98,11 %
21.04.2017 09:32 4,3 C 69 % 1031,8 hPa 0,0 l/m 14,6 km/h (3 Bft) W-SW 242 2 min 0,000 mm 1,2 UV-I 332 W/m -0,9 C -1,6 C 20,9 km/h (4 Bft) 95,12 %
21.04.2017 09:34 4,3 C 68 % 1031,8 hPa 0,0 l/m 12,7 km/h (3 Bft) SW 225 2 min 0,000 mm 1,3 UV-I 388 W/m -1,1 C -0,5 C 20,9 km/h (4 Bft) 94,64 %
21.04.2017 09:36 4,3 C 68 % 1031,8 hPa 0,0 l/m 11,0 km/h (2 Bft) SW 233 2 min 0,000 mm 1,2 UV-I 312 W/m -1,1 C 0,6 C 19,3 km/h (3 Bft) 100,00 %
21.04.2017 09:38 4,3 C 68 % 1031,8 hPa 0,0 l/m 15,1 km/h (3 Bft) W-SW 250 0 min 0,000 mm 1,2 UV-I 292 W/m -1,1 C -1,8 C 20,9 km/h (4 Bft) 100,00 %
21.04.2017 09:40 4,3 C 67 % 1031,8 hPa 0,0 l/m 14,5 km/h (3 Bft) W 278 0 min 0,000 mm 1,3 UV-I 303 W/m -1,3 C -1,5 C 19,3 km/h (3 Bft) 100,00 %
21.04.2017 09:42 4,3 C 66 % 1031,8 hPa 0,0 l/m 11,0 km/h (2 Bft) W 265 2 min 0,000 mm 1,3 UV-I 316 W/m -1,5 C 0,6 C 19,3 km/h (3 Bft) 95,74 %
21.04.2017 09:44 4,4 C 68 % 1031,8 hPa 0,0 l/m 8,7 km/h (2 Bft) W-SW 246 2 min 0,000 mm 1,3 UV-I 327 W/m -1,0 C 2,4 C 17,7 km/h (3 Bft) 94,34 %
21.04.2017 09:46 4,5 C 67 % 1031,9 hPa 0,0 l/m 13,7 km/h (3 Bft) W-SW 255 2 min 0,000 mm 1,4 UV-I 340 W/m -1,1 C -0,8 C 17,7 km/h (3 Bft) 100,00 %
21.04.2017 09:48 4,6 C 68 % 1031,9 hPa 0,0 l/m 7,7 km/h (2 Bft) SW 215 2 min 0,000 mm 1,5 UV-I 389 W/m -0,8 C 3,4 C 12,9 km/h (3 Bft) 94,64 %
21.04.2017 09:50 4,7 C 68 % 1031,9 hPa 0,0 l/m 8,1 km/h (2 Bft) S 185 2 min 0,000 mm 1,5 UV-I 368 W/m -0,7 C 3,2 C 16,1 km/h (3 Bft) 95,45 %
21.04.2017 09:52 4,8 C 68 % 1031,9 hPa 0,0 l/m 7,3 km/h (2 Bft) W-SW 242 2 min 0,000 mm 1,5 UV-I 422 W/m -0,6 C 4,0 C 11,3 km/h (2 Bft) 98,00 %
21.04.2017 09:54 4,9 C 66 % 1031,9 hPa 0,0 l/m 13,5 km/h (3 Bft) SW 231 2 min 0,000 mm 1,5 UV-I 384 W/m -0,9 C -0,2 C 19,3 km/h (3 Bft) 94,87 %
21.04.2017 09:56 5,0 C 65 % 1031,8 hPa 0,0 l/m 9,5 km/h (2 Bft) SW 220 2 min 0,000 mm 1,6 UV-I 420 W/m -1,0 C 2,4 C 16,1 km/h (3 Bft) 96,00 %
21.04.2017 09:58 5,1 C 65 % 1031,9 hPa 0,0 l/m 12,2 km/h (2 Bft) SW 222 2 min 0,000 mm 1,7 UV-I 431 W/m -0,9 C 0,8 C 19,3 km/h (3 Bft) 97,56 %
21.04.2017 10:00 5,3 C 66 % 1031,8 hPa 0,0 l/m 8,7 km/h (2 Bft) W-SW 247 2 min 0,153 mm 1,8 UV-I 496 W/m -0,5 C 3,4 C 14,5 km/h (3 Bft) 96,23 %
21.04.2017 10:02 5,6 C 64 % 1031,8 hPa 0,0 l/m 8,7 km/h (2 Bft) N-NW 341 2 min 0,000 mm 2,0 UV-I 610 W/m -0,7 C 3,7 C 17,7 km/h (3 Bft) 98,11 %
21.04.2017 10:04 5,6 C 67 % 1031,9 hPa 0,0 l/m 6,9 km/h (2 Bft) NW 323 2 min 0,000 mm 1,8 UV-I 573 W/m -0,0 C 5,2 C 14,5 km/h (3 Bft) 95,12 %
21.04.2017 10:06 5,6 C 68 % 1031,9 hPa 0,0 l/m 1,6 km/h (1 Bft) NW 315 2 min 0,000 mm 2,0 UV-I 465 W/m 0,2 C 5,6 C 4,8 km/h (1 Bft) 96,23 %
21.04.2017 10:08 5,8 C 67 % 1031,9 hPa 0,0 l/m 4,2 km/h (1 Bft) W-SW 254 2 min 0,000 mm 2,1 UV-I 733 W/m 0,2 C 5,8 C 8,0 km/h (2 Bft) 95,12 %
21.04.2017 10:10 6,0 C 67 % 1031,9 hPa 0,0 l/m 3,7 km/h (1 Bft) W-NW 296 2 min 0,000 mm 2,2 UV-I 770 W/m 0,3 C 6,0 C 6,4 km/h (2 Bft) 93,62 %
21.04.2017 10:12 6,3 C 68 % 1031,9 hPa 0,0 l/m 6,4 km/h (2 Bft) W 263 2 min 0,000 mm 2,2 UV-I 797 W/m 0,8 C 6,3 C 12,9 km/h (3 Bft) 92,00 %
21.04.2017 10:14 6,5 C 65 % 1031,9 hPa 0,0 l/m 11,3 km/h (2 Bft) W 263 2 min 0,000 mm 2,3 UV-I 815 W/m 0,4 C 2,9 C 19,3 km/h (3 Bft) 97,56 %
21.04.2017 10:16 6,5 C 61 % 1031,8 hPa 0,0 l/m 11,8 km/h (2 Bft) S 182 2 min 0,000 mm 2,0 UV-I 721 W/m -0,5 C 2,6 C 17,7 km/h (3 Bft) 95,45 %
21.04.2017 10:18 6,5 C 60 % 1031,8 hPa 0,0 l/m 11,7 km/h (2 Bft) W-NW 284 2 min 0,000 mm 2,0 UV-I 420 W/m -0,7 C 2,7 C 20,9 km/h (4 Bft) 96,43 %
21.04.2017 10:20 6,3 C 58 % 1031,8 hPa 0,0 l/m 10,2 km/h (2 Bft) W 267 2 min 0,000 mm 2,1 UV-I 433 W/m -1,3 C 3,4 C 16,1 km/h (3 Bft) 91,49 %
21.04.2017 10:22 6,4 C 60 % 1031,8 hPa 0,0 l/m 11,5 km/h (2 Bft) W 267 2 min 0,000 mm 2,1 UV-I 431 W/m -0,8 C 2,7 C 22,5 km/h (4 Bft) 97,73 %
21.04.2017 10:24 6,4 C 59 % 1031,8 hPa 0,0 l/m 9,5 km/h (2 Bft) W-NW 293 2 min 0,000 mm 2,1 UV-I 431 W/m -1,0 C 4,0 C 14,5 km/h (3 Bft) 97,37 %
21.04.2017 10:26 6,4 C 59 % 1031,7 hPa 0,0 l/m 10,1 km/h (2 Bft) W-SW 255 2 min 0,000 mm 2,0 UV-I 444 W/m -1,0 C 3,6 C 17,7 km/h (3 Bft) 98,04 %
21.04.2017 10:28 6,3 C 56 % 1031,7 hPa 0,0 l/m 8,2 km/h (2 Bft) W 267 2 min 0,000 mm 2,3 UV-I 432 W/m -1,8 C 4,8 C 19,3 km/h (3 Bft) 98,11 %
21.04.2017 10:30 6,3 C 57 % 1031,8 hPa 0,0 l/m 11,3 km/h (2 Bft) W-SW 254 2 min 0,000 mm 2,1 UV-I 420 W/m -1,6 C 2,7 C 20,9 km/h (4 Bft) 91,67 %
21.04.2017 10:32 6,2 C 55 % 1031,8 hPa 0,0 l/m 11,4 km/h (2 Bft) W 263 2 min 0,000 mm 2,3 UV-I 514 W/m -2,2 C 2,5 C 17,7 km/h (3 Bft) 89,71 %
21.04.2017 10:34 6,3 C 57 % 1031,8 hPa 0,0 l/m 11,3 km/h (2 Bft) W 275 2 min 0,000 mm 2,3 UV-I 646 W/m -1,6 C 2,7 C 22,5 km/h (4 Bft) 92,86 %
21.04.2017 10:36 6,4 C 58 % 1031,8 hPa 0,0 l/m 11,5 km/h (2 Bft) W 265 2 min 0,000 mm 2,3 UV-I 518 W/m -1,2 C 2,7 C 20,9 km/h (4 Bft) 96,23 %
21.04.2017 10:38 6,5 C 56 % 1031,8 hPa 0,0 l/m 12,6 km/h (3 Bft) W-SW 252 2 min 0,000 mm 2,1 UV-I 439 W/m -1,6 C 2,1 C 29,0 km/h (5 Bft) 95,74 %
21.04.2017 10:40 6,3 C 56 % 1031,8 hPa 0,0 l/m 12,5 km/h (3 Bft) W-NW 286 2 min 0,000 mm 2,0 UV-I 416 W/m -1,8 C 2,0 C 19,3 km/h (3 Bft) 95,12 %
21.04.2017 10:42 6,4 C 56 % 1031,7 hPa 0,0 l/m 10,2 km/h (2 Bft) W-NW 286 2 min 0,000 mm 2,1 UV-I 438 W/m -1,7 C 3,5 C 16,1 km/h (3 Bft) 92,00 %
21.04.2017 10:44 6,4 C 56 % 1031,8 hPa 0,0 l/m 11,4 km/h (2 Bft) W 262 2 min 0,000 mm 2,1 UV-I 442 W/m -1,7 C 2,7 C 22,5 km/h (4 Bft) 91,49 %
21.04.2017 10:46 6,4 C 55 % 1031,7 hPa 0,0 l/m 14,4 km/h (3 Bft) W-NW 290 2 min 0,000 mm 2,0 UV-I 433 W/m -2,0 C 1,1 C 25,7 km/h (4 Bft) 95,12 %
21.04.2017 10:48 6,4 C 54 % 1031,7 hPa 0,0 l/m 16,0 km/h (3 Bft) SW 236 2 min 0,000 mm 2,3 UV-I 470 W/m -2,2 C 0,3 C 24,1 km/h (4 Bft) 94,92 %
21.04.2017 10:50 6,5 C 55 % 1031,7 hPa 0,0 l/m 12,2 km/h (2 Bft) W 275 2 min 0,000 mm 2,5 UV-I 523 W/m -1,9 C 2,4 C 20,9 km/h (4 Bft) 95,45 %
21.04.2017 10:52 6,6 C 55 % 1031,7 hPa 0,0 l/m 11,2 km/h (2 Bft) W-NW 288 2 min 0,000 mm 2,1 UV-I 423 W/m -1,8 C 3,1 C 22,5 km/h (4 Bft) 97,37 %
21.04.2017 10:54 6,6 C 54 % 1031,6 hPa 0,0 l/m 14,8 km/h (3 Bft) W-NW 285 0 min 0,000 mm 2,1 UV-I 371 W/m -2,0 C 1,1 C 20,9 km/h (4 Bft) 94,92 %
21.04.2017 10:56 6,5 C 56 % 1031,7 hPa 0,0 l/m 12,1 km/h (2 Bft) W-SW 250 0 min 0,000 mm 1,9 UV-I 331 W/m -1,6 C 2,4 C 20,9 km/h (4 Bft) 92,68 %
21.04.2017 10:58 6,4 C 54 % 1031,6 hPa 0,0 l/m 14,7 km/h (3 Bft) W 266 0 min 0,000 mm 2,1 UV-I 341 W/m -2,2 C 0,9 C 25,7 km/h (4 Bft) 97,87 %
21.04.2017 11:00 6,3 C 55 % 1031,6 hPa 0,0 l/m 15,8 km/h (3 Bft) W-SW 237 0 min 0,254 mm 2,1 UV-I 338 W/m -2,1 C 0,3 C 24,1 km/h (4 Bft) 97,56 %
21.04.2017 11:02 6,3 C 55 % 1031,6 hPa 0,0 l/m 13,6 km/h (3 Bft) W-NW 288 2 min 0,000 mm 2,6 UV-I 403 W/m -2,1 C 1,4 C 22,5 km/h (4 Bft) 98,11 %
21.04.2017 11:04 6,3 C 55 % 1031,6 hPa 0,0 l/m 9,6 km/h (2 Bft) W-NW 295 2 min 0,000 mm 3,0 UV-I 478 W/m -2,1 C 3,8 C 20,9 km/h (4 Bft) 100,00 %
21.04.2017 11:06 6,6 C 56 % 1031,5 hPa 0,0 l/m 9,3 km/h (2 Bft) W-NW 283 2 min 0,000 mm 2,8 UV-I 587 W/m -1,5 C 4,3 C 14,5 km/h (3 Bft) 98,21 %
21.04.2017 11:08 6,8 C 56 % 1031,5 hPa 0,0 l/m 7,4 km/h (2 Bft) W-SW 249 2 min 0,000 mm 2,5 UV-I 520 W/m -1,4 C 6,0 C 17,7 km/h (3 Bft) 100,00 %
21.04.2017 11:10 7,1 C 55 % 1031,5 hPa 0,0 l/m 15,8 km/h (3 Bft) W-SW 245 2 min 0,000 mm 2,3 UV-I 415 W/m -1,3 C 1,3 C 20,9 km/h (4 Bft) 100,00 %
21.04.2017 11:12 7,1 C 55 % 1031,5 hPa 0,0 l/m 16,3 km/h (3 Bft) W-SW 254 0 min 0,000 mm 2,1 UV-I 363 W/m -1,3 C 1,0 C 22,5 km/h (4 Bft) 100,00 %
21.04.2017 11:14 7,0 C 52 % 1031,5 hPa 0,0 l/m 16,9 km/h (3 Bft) W 273 0 min 0,000 mm 2,2 UV-I 371 W/m -2,2 C 0,6 C 24,1 km/h (4 Bft) 98,11 %
21.04.2017 11:16 6,9 C 54 % 1031,5 hPa 0,0 l/m 8,0 km/h (2 Bft) SW 234 2 min 0,000 mm 2,5 UV-I 406 W/m -1,8 C 5,6 C 14,5 km/h (3 Bft) 98,00 %
21.04.2017 11:18 6,9 C 54 % 1031,4 hPa 0,0 l/m 8,4 km/h (2 Bft) W-SW 244 0 min 0,000 mm 2,2 UV-I 394 W/m -1,8 C 5,3 C 16,1 km/h (3 Bft) 98,00 %
21.04.2017 11:20 6,9 C 55 % 1031,4 hPa 0,0 l/m 14,2 km/h (3 Bft) W-SW 254 0 min 0,000 mm 2,2 UV-I 372 W/m -1,5 C 1,8 C 20,9 km/h (4 Bft) 100,00 %
21.04.2017 11:22 6,9 C 54 % 1031,5 hPa 0,0 l/m 15,6 km/h (3 Bft) W 259 0 min 0,000 mm 2,2 UV-I 385 W/m -1,8 C 1,1 C 19,3 km/h (3 Bft) 98,00 %
21.04.2017 11:24 6,9 C 55 % 1031,5 hPa 0,0 l/m 16,1 km/h (3 Bft) W-SW 247 2 min 0,000 mm 2,4 UV-I 423 W/m -1,5 C 0,9 C 27,4 km/h (4 Bft) 100,00 %
21.04.2017 11:26 6,9 C 55 % 1031,4 hPa 0,0 l/m 16,8 km/h (3 Bft) W 262 2 min 0,000 mm 2,6 UV-I 460 W/m -1,5 C 0,6 C 20,9 km/h (4 Bft) 100,00 %
21.04.2017 11:28 6,8 C 55 % 1031,4 hPa 0,0 l/m 11,6 km/h (2 Bft) W 259 2 min 0,000 mm 2,6 UV-I 505 W/m -1,6 C 3,1 C 19,3 km/h (3 Bft) 100,00 %
21.04.2017 11:30 7,0 C 56 % 1031,4 hPa 0,0 l/m 9,5 km/h (2 Bft) W 259 2 min 0,000 mm 2,3 UV-I 527 W/m -1,2 C 4,6 C 19,3 km/h (3 Bft) 100,00 %
21.04.2017 11:32 7,2 C 56 % 1031,4 hPa 0,0 l/m 10,0 km/h (2 Bft) W-NW 283 0 min 0,000 mm 2,2 UV-I 401 W/m -1,0 C 4,5 C 20,9 km/h (4 Bft) 97,18 %
21.04.2017 11:34 7,3 C 57 % 1031,5 hPa 0,0 l/m 10,4 km/h (2 Bft) SW 229 0 min 0,000 mm 2,3 UV-I 376 W/m -0,6 C 4,4 C 19,3 km/h (3 Bft) 100,00 %
21.04.2017 11:36 7,3 C 53 % 1031,4 hPa 0,0 l/m 15,6 km/h (3 Bft) SW 225 0 min 0,000 mm 2,4 UV-I 385 W/m -1,6 C 1,6 C 22,5 km/h (4 Bft) 100,00 %
21.04.2017 11:38 7,1 C 52 % 1031,4 hPa 0,0 l/m 12,5 km/h (3 Bft) W-SW 257 0 min 0,000 mm 2,4 UV-I 389 W/m -2,1 C 2,9 C 16,1 km/h (3 Bft) 94,74 %
21.04.2017 11:40 7,1 C 53 % 1031,3 hPa 0,0 l/m 15,4 km/h (3 Bft) SW 235 2 min 0,000 mm 2,9 UV-I 502 W/m -1,8 C 1,4 C 20,9 km/h (4 Bft) 98,00 %
21.04.2017 11:42 7,2 C 54 % 1031,2 hPa 0,0 l/m 13,3 km/h (3 Bft) SW 228 2 min 0,000 mm 3,7 UV-I 834 W/m -1,5 C 2,6 C 19,3 km/h (3 Bft) 92,45 %
21.04.2017 11:44 7,4 C 53 % 1031,2 hPa 0,0 l/m 19,2 km/h (3 Bft) W-SW 255 2 min 0,000 mm 3,0 UV-I 997 W/m -1,5 C 0,2 C 27,4 km/h (4 Bft) 97,56 %
21.04.2017 11:46 7,5 C 52 % 1031,2 hPa 0,0 l/m 16,5 km/h (3 Bft) S-SW 198 2 min 0,000 mm 3,4 UV-I 984 W/m -1,7 C 1,4 C 24,1 km/h (4 Bft) 100,00 %
21.04.2017 11:48 7,6 C 52 % 1031,2 hPa 0,0 l/m 12,6 km/h (3 Bft) SW 235 2 min 0,000 mm 3,6 UV-I 950 W/m -1,6 C 3,4 C 22,5 km/h (4 Bft) 98,31 %
21.04.2017 11:50 7,7 C 54 % 1031,1 hPa 0,0 l/m 14,4 km/h (3 Bft) W-SW 257 2 min 0,000 mm 2,6 UV-I 752 W/m -1,0 C 2,6 C 24,1 km/h (4 Bft) 100,00 %
21.04.2017 11:52 7,7 C 53 % 1031,2 hPa 0,0 l/m 13,1 km/h (3 Bft) W 259 0 min 0,000 mm 2,5 UV-I 374 W/m -1,3 C 3,3 C 20,9 km/h (4 Bft) 100,00 %
21.04.2017 11:54 7,7 C 54 % 1031,2 hPa 0,0 l/m 9,5 km/h (2 Bft) W-SW 246 2 min 0,000 mm 2,9 UV-I 499 W/m -1,0 C 5,4 C 17,7 km/h (3 Bft) 97,62 %
21.04.2017 11:56 7,7 C 52 % 1031,2 hPa 0,0 l/m 16,0 km/h (3 Bft) W-SW 255 2 min 0,000 mm 2,5 UV-I 499 W/m -1,5 C 1,9 C 24,1 km/h (4 Bft) 92,11 %
21.04.2017 11:58 7,6 C 53 % 1031,1 hPa 0,0 l/m 16,4 km/h (3 Bft) W 267 0 min 0,000 mm 3,0 UV-I 388 W/m -1,4 C 1,6 C 24,1 km/h (4 Bft) 94,92 %
21.04.2017 12:00 7,7 C 54 % 1031,1 hPa 0,0 l/m 16,6 km/h (3 Bft) W-SW 240 2 min 0,279 mm 3,8 UV-I 871 W/m -1,0 C 1,6 C 24,1 km/h (4 Bft) 92,31 %
21.04.2017 12:02 7,9 C 52 % 1031,1 hPa 0,0 l/m 21,0 km/h (4 Bft) W-SW 257 2 min 0,000 mm 4,0 UV-I 908 W/m -1,3 C 0,2 C 29,0 km/h (5 Bft) 100,00 %
21.04.2017 12:04 8,1 C 49 % 1031,1 hPa 0,0 l/m 13,4 km/h (3 Bft) SW 229 2 min 0,000 mm 4,0 UV-I 1037 W/m -2,0 C 3,6 C 24,1 km/h (4 Bft) 100,00 %
21.04.2017 12:06 8,2 C 50 % 1031,0 hPa 0,0 l/m 23,6 km/h (4 Bft) W-SW 242 2 min 0,000 mm 4,0 UV-I 1060 W/m -1,6 C -0,2 C 33,8 km/h (5 Bft) 100,00 %
21.04.2017 12:08 8,2 C 50 % 1031,1 hPa 0,0 l/m 15,1 km/h (3 Bft) W-SW 248 2 min 0,000 mm 3,5 UV-I 1063 W/m -1,6 C 2,9 C 27,4 km/h (4 Bft) 97,73 %
21.04.2017 12:10 8,2 C 49 % 1031,0 hPa 0,0 l/m 10,1 km/h (2 Bft) W-SW 258 2 min 0,000 mm 2,5 UV-I 742 W/m -1,9 C 5,5 C 16,1 km/h (3 Bft) 96,43 %
21.04.2017 12:12 8,0 C 48 % 1031,0 hPa 0,0 l/m 8,0 km/h (2 Bft) SW 215 0 min 0,000 mm 2,4 UV-I 302 W/m -2,3 C 6,8 C 14,5 km/h (3 Bft) 90,24 %
21.04.2017 12:14 7,8 C 50 % 1031,0 hPa 0,0 l/m 13,9 km/h (3 Bft) W-SW 244 0 min 0,000 mm 2,3 UV-I 279 W/m -2,0 C 3,0 C 24,1 km/h (4 Bft) 95,74 %
21.04.2017 12:16 7,8 C 50 % 1031,1 hPa 0,0 l/m 16,8 km/h (3 Bft) W 279 0 min 0,000 mm 3,8 UV-I 295 W/m -2,0 C 1,7 C 22,5 km/h (4 Bft) 95,12 %
21.04.2017 12:18 7,9 C 50 % 1031,0 hPa 0,0 l/m 11,2 km/h (2 Bft) W-SW 258 0 min 0,000 mm 2,6 UV-I 305 W/m -1,9 C 4,5 C 17,7 km/h (3 Bft) 96,23 %
21.04.2017 12:20 7,7 C 50 % 1031,0 hPa 0,0 l/m 7,7 km/h (2 Bft) W 265 0 min 0,000 mm 2,7 UV-I 353 W/m -2,1 C 6,7 C 14,5 km/h (3 Bft) 95,45 %
21.04.2017 12:22 7,7 C 51 % 1031,0 hPa 0,0 l/m 17,4 km/h (3 Bft) W-SW 250 0 min 0,000 mm 2,2 UV-I 284 W/m -1,8 C 1,3 C 25,7 km/h (4 Bft) 94,34 %
21.04.2017 12:24 7,6 C 50 % 1031,0 hPa 0,0 l/m 14,3 km/h (3 Bft) SW 234 0 min 0,000 mm 2,1 UV-I 233 W/m -2,1 C 2,6 C 22,5 km/h (4 Bft) 97,37 %
21.04.2017 12:26 7,4 C 50 % 1030,8 hPa 0,0 l/m 10,0 km/h (2 Bft) W 278 0 min 0,000 mm 2,9 UV-I 228 W/m -2,3 C 4,7 C 17,7 km/h (3 Bft) 93,22 %
21.04.2017 12:28 7,7 C 52 % 1030,8 hPa 0,0 l/m 9,2 km/h (2 Bft) W 278 2 min 0,000 mm 4,0 UV-I 905 W/m -1,5 C 5,6 C 17,7 km/h (3 Bft) 97,56 %
21.04.2017 12:30 8,1 C 55 % 1030,7 hPa 0,0 l/m 9,8 km/h (2 Bft) W 265 2 min 0,000 mm 3,8 UV-I 936 W/m -0,4 C 5,6 C 16,1 km/h (3 Bft) 94,87 %
21.04.2017 12:32 8,3 C 51 % 1030,8 hPa 0,0 l/m 11,9 km/h (2 Bft) W-SW 247 2 min 0,000 mm 2,7 UV-I 453 W/m -1,2 C 4,6 C 24,1 km/h (4 Bft) 94,55 %
21.04.2017 12:34 8,3 C 51 % 1030,7 hPa 0,0 l/m 8,0 km/h (2 Bft) W-SW 245 0 min 0,000 mm 2,5 UV-I 346 W/m -1,2 C 7,1 C 16,1 km/h (3 Bft) 95,56 %
21.04.2017 12:36 8,3 C 51 % 1030,7 hPa 0,0 l/m 12,9 km/h (3 Bft) W-SW 256 0 min 0,000 mm 3,3 UV-I 366 W/m -1,2 C 4,1 C 27,4 km/h (4 Bft) 97,87 %
21.04.2017 12:38 8,3 C 48 % 1030,7 hPa 0,0 l/m 20,3 km/h (4 Bft) W 259 0 min 0,000 mm 2,8 UV-I 349 W/m -2,1 C 1,0 C 32,2 km/h (5 Bft) 100,00 %
21.04.2017 12:40 8,1 C 49 % 1030,7 hPa 0,0 l/m 17,8 km/h (3 Bft) W 261 0 min 0,000 mm 3,1 UV-I 308 W/m -2,0 C 1,6 C 24,1 km/h (4 Bft) 97,56 %
21.04.2017 12:42 8,2 C 51 % 1030,6 hPa 0,0 l/m 12,1 km/h (2 Bft) W-SW 246 2 min 0,000 mm 3,5 UV-I 801 W/m -1,3 C 4,4 C 19,3 km/h (3 Bft) 100,00 %
21.04.2017 12:44 8,2 C 49 % 1030,5 hPa 0,0 l/m 14,4 km/h (3 Bft) W-NW 285 0 min 0,000 mm 2,6 UV-I 413 W/m -1,9 C 3,2 C 24,1 km/h (4 Bft) 100,00 %
21.04.2017 12:46 8,1 C 49 % 1030,5 hPa 0,0 l/m 16,8 km/h (3 Bft) W 264 0 min 0,000 mm 2,5 UV-I 297 W/m -2,0 C 2,1 C 22,5 km/h (4 Bft) 94,00 %
21.04.2017 12:48 8,0 C 51 % 1030,6 hPa 0,0 l/m 12,0 km/h (2 Bft) SW 224 0 min 0,000 mm 2,8 UV-I 307 W/m -1,5 C 4,2 C 19,3 km/h (3 Bft) 95,12 %
21.04.2017 12:50 8,1 C 48 % 1030,7 hPa 0,0 l/m 11,4 km/h (2 Bft) SW 234 0 min 0,000 mm 4,0 UV-I 436 W/m -2,2 C 4,7 C 22,5 km/h (4 Bft) 96,00 %
21.04.2017 12:52 8,2 C 49 % 1030,5 hPa 0,0 l/m 10,1 km/h (2 Bft) S 182 2 min 0,000 mm 4,3 UV-I 915 W/m -1,9 C 5,5 C 16,1 km/h (3 Bft) 97,78 %
21.04.2017 12:54 8,9 C 53 % 1030,5 hPa 0,0 l/m 8,8 km/h (2 Bft) W-SW 253 2 min 0,000 mm 4,4 UV-I 938 W/m -0,1 C 7,1 C 17,7 km/h (3 Bft) 100,00 %
21.04.2017 12:56 9,2 C 49 % 1030,5 hPa 0,0 l/m 16,6 km/h (3 Bft) W-SW 250 2 min 0,000 mm 3,8 UV-I 977 W/m -0,9 C 3,5 C 24,1 km/h (4 Bft) 100,00 %
21.04.2017 12:58 9,1 C 49 % 1030,5 hPa 0,0 l/m 14,4 km/h (3 Bft) W-SW 243 2 min 0,000 mm 3,6 UV-I 447 W/m -1,0 C 4,3 C 25,7 km/h (4 Bft) 98,31 %
21.04.2017 13:00 9,1 C 47 % 1030,5 hPa 0,0 l/m 17,0 km/h (3 Bft) W-SW 255 2 min 0,330 mm 4,1 UV-I 979 W/m -1,6 C 3,2 C 27,4 km/h (4 Bft) 96,30 %
21.04.2017 13:02 8,9 C 48 % 1030,4 hPa 0,0 l/m 13,1 km/h (3 Bft) S-SW 212 2 min 0,000 mm 3,0 UV-I 695 W/m -1,5 C 4,7 C 19,3 km/h (3 Bft) 95,31 %
21.04.2017 13:04 8,8 C 48 % 1030,5 hPa 0,0 l/m 17,6 km/h (3 Bft) W-SW 243 0 min 0,000 mm 2,7 UV-I 339 W/m -1,6 C 2,6 C 25,7 km/h (4 Bft) 98,00 %
21.04.2017 13:06 8,7 C 48 % 1030,5 hPa 0,0 l/m 17,0 km/h (3 Bft) W-SW 238 0 min 0,000 mm 3,8 UV-I 359 W/m -1,7 C 2,7 C 27,4 km/h (4 Bft) 94,74 %
21.04.2017 13:08 8,8 C 49 % 1030,4 hPa 0,0 l/m 17,6 km/h (3 Bft) W-NW 283 0 min 0,000 mm 4,4 UV-I 359 W/m -1,3 C 2,6 C 27,4 km/h (4 Bft) 93,75 %
21.04.2017 13:10 8,9 C 47 % 1030,3 hPa 0,0 l/m 11,1 km/h (2 Bft) SW 221 0 min 0,000 mm 3,3 UV-I 365 W/m -1,8 C 5,7 C 24,1 km/h (4 Bft) 96,15 %
21.04.2017 13:12 8,8 C 48 % 1030,3 hPa 0,0 l/m 17,7 km/h (3 Bft) W 267 0 min 0,000 mm 2,7 UV-I 401 W/m -1,6 C 2,6 C 29,0 km/h (5 Bft) 98,00 %
21.04.2017 13:14 8,7 C 47 % 1030,2 hPa 0,0 l/m 17,7 km/h (3 Bft) W-NW 285 0 min 0,000 mm 3,1 UV-I 424 W/m -2,0 C 2,4 C 29,0 km/h (5 Bft) 100,00 %
21.04.2017 13:16 8,7 C 48 % 1030,3 hPa 0,0 l/m 17,3 km/h (3 Bft) W-SW 244 2 min 0,000 mm 3,0 UV-I 502 W/m -1,7 C 2,6 C 27,4 km/h (4 Bft) 100,00 %
21.04.2017 13:18 8,9 C 51 % 1030,2 hPa 0,0 l/m 12,4 km/h (3 Bft) W 275 2 min 0,000 mm 3,8 UV-I 490 W/m -0,7 C 5,0 C 25,7 km/h (4 Bft) 100,00 %
21.04.2017 13:20 9,1 C 49 % 1030,2 hPa 0,0 l/m 13,6 km/h (3 Bft) W 264 0 min 0,000 mm 3,9 UV-I 435 W/m -1,0 C 4,7 C 19,3 km/h (3 Bft) 97,87 %
21.04.2017 13:22 9,2 C 49 % 1030,2 hPa 0,0 l/m 10,1 km/h (2 Bft) W-SW 250 2 min 0,000 mm 3,5 UV-I 455 W/m -0,9 C 6,7 C 20,9 km/h (4 Bft) 95,74 %
21.04.2017 13:24 9,3 C 48 % 1030,3 hPa 0,0 l/m 15,4 km/h (3 Bft) W 262 2 min 0,000 mm 4,0 UV-I 455 W/m -1,1 C 4,1 C 25,7 km/h (4 Bft) 97,37 %
21.04.2017 13:26 9,3 C 50 % 1030,2 hPa 0,0 l/m 13,3 km/h (3 Bft) W 270 2 min 0,000 mm 3,2 UV-I 525 W/m -0,6 C 5,1 C 22,5 km/h (4 Bft) 96,43 %
21.04.2017 13:28 9,3 C 47 % 1030,1 hPa 0,0 l/m 9,3 km/h (2 Bft) W-SW 252 2 min 0,000 mm 2,6 UV-I 473 W/m -1,4 C 7,3 C 14,5 km/h (3 Bft) 98,00 %
21.04.2017 13:30 9,3 C 50 % 1030,0 hPa 0,0 l/m 8,9 km/h (2 Bft) W-SW 243 2 min 0,000 mm 3,2 UV-I 455 W/m -0,6 C 7,5 C 14,5 km/h (3 Bft) 92,68 %
21.04.2017 13:32 9,3 C 49 % 1030,0 hPa 0,0 l/m 9,1 km/h (2 Bft) W-SW 252 2 min 0,000 mm 3,1 UV-I 473 W/m -0,9 C 7,4 C 12,9 km/h (3 Bft) 100,00 %
21.04.2017 13:34 9,3 C 49 % 1030,1 hPa 0,0 l/m 12,3 km/h (3 Bft) W-SW 255 2 min 0,000 mm 3,0 UV-I 512 W/m -0,9 C 5,6 C 20,9 km/h (4 Bft) 100,00 %
21.04.2017 13:36 9,3 C 47 % 1030,0 hPa 0,0 l/m 19,3 km/h (3 Bft) W-SW 246 2 min 0,000 mm 3,4 UV-I 624 W/m -1,4 C 2,6 C 30,6 km/h (5 Bft) 92,68 %
21.04.2017 13:38 9,2 C 47 % 1029,9 hPa 0,0 l/m 17,7 km/h (3 Bft) W 259 2 min 0,000 mm 3,1 UV-I 717 W/m -1,5 C 3,1 C 24,1 km/h (4 Bft) 97,87 %
21.04.2017 13:40 9,2 C 49 % 1029,9 hPa 0,0 l/m 12,2 km/h (2 Bft) W-SW 243 2 min 0,000 mm 2,9 UV-I 519 W/m -0,9 C 5,5 C 17,7 km/h (3 Bft) 96,00 %
21.04.2017 13:42 9,4 C 50 % 1029,9 hPa 0,0 l/m 14,7 km/h (3 Bft) W 264 2 min 0,000 mm 3,3 UV-I 536 W/m -0,5 C 4,5 C 20,9 km/h (4 Bft) 95,12 %
21.04.2017 13:44 9,4 C 47 % 1029,8 hPa 0,0 l/m 10,0 km/h (2 Bft) SW 234 2 min 0,000 mm 3,3 UV-I 612 W/m -1,3 C 6,9 C 17,7 km/h (3 Bft) 100,00 %
21.04.2017 13:46 9,5 C 49 % 1029,9 hPa 0,0 l/m 8,7 km/h (2 Bft) SW 229 2 min 0,000 mm 3,3 UV-I 561 W/m -0,7 C 7,9 C 16,1 km/h (3 Bft) 98,00 %
21.04.2017 13:48 9,6 C 47 % 1029,9 hPa 0,0 l/m 16,2 km/h (3 Bft) SW 221 2 min 0,000 mm 3,2 UV-I 622 W/m -1,1 C 4,2 C 25,7 km/h (4 Bft) 92,68 %
21.04.2017 13:50 9,4 C 46 % 1029,7 hPa 0,0 l/m 17,6 km/h (3 Bft) W-SW 256 2 min 0,000 mm 3,1 UV-I 621 W/m -1,6 C 3,4 C 27,4 km/h (4 Bft) 96,00 %
21.04.2017 13:52 9,4 C 48 % 1029,7 hPa 0,0 l/m 18,1 km/h (3 Bft) SW 232 2 min 0,000 mm 2,7 UV-I 607 W/m -1,0 C 3,2 C 29,0 km/h (5 Bft) 96,00 %
21.04.2017 13:54 9,4 C 47 % 1029,8 hPa 0,0 l/m 18,0 km/h (3 Bft) SW 236 2 min 0,000 mm 2,5 UV-I 493 W/m -1,3 C 3,2 C 29,0 km/h (5 Bft) 97,37 %
21.04.2017 13:56 9,4 C 49 % 1029,8 hPa 0,0 l/m 14,3 km/h (3 Bft) W 267 2 min 0,000 mm 2,8 UV-I 551 W/m -0,8 C 4,7 C 20,9 km/h (4 Bft) 93,62 %
21.04.2017 13:58 9,4 C 48 % 1029,7 hPa 0,0 l/m 10,9 km/h (2 Bft) W-SW 245 2 min 0,000 mm 2,9 UV-I 583 W/m -1,0 C 6,4 C 20,9 km/h (4 Bft) 98,31 %
21.04.2017 14:00 9,4 C 47 % 1029,8 hPa 0,0 l/m 13,6 km/h (3 Bft) W 277 2 min 0,331 mm 2,8 UV-I 550 W/m -1,3 C 5,0 C 19,3 km/h (3 Bft) 95,45 %
21.04.2017 14:02 9,4 C 48 % 1029,7 hPa 0,0 l/m 12,0 km/h (2 Bft) W-SW 240 2 min 0,000 mm 2,7 UV-I 537 W/m -1,0 C 5,8 C 17,7 km/h (3 Bft) 97,73 %
21.04.2017 14:04 9,6 C 48 % 1029,7 hPa 0,0 l/m 16,7 km/h (3 Bft) SW 230 2 min 0,000 mm 2,7 UV-I 538 W/m -0,9 C 4,0 C 25,7 km/h (4 Bft) 95,74 %
21.04.2017 14:06 9,5 C 45 % 1029,7 hPa 0,0 l/m 19,5 km/h (3 Bft) W-SW 255 2 min 0,000 mm 2,6 UV-I 520 W/m -1,8 C 2,8 C 25,7 km/h (4 Bft) 92,31 %
21.04.2017 14:08 9,4 C 45 % 1029,6 hPa 0,0 l/m 18,6 km/h (3 Bft) W-NW 284 2 min 0,000 mm 2,5 UV-I 467 W/m -1,9 C 3,0 C 32,2 km/h (5 Bft) 94,37 %
21.04.2017 14:10 9,3 C 47 % 1029,7 hPa 0,0 l/m 11,6 km/h (2 Bft) W 277 2 min 0,000 mm 2,4 UV-I 471 W/m -1,4 C 5,9 C 20,9 km/h (4 Bft) 93,62 %
21.04.2017 14:12 9,3 C 47 % 1029,6 hPa 0,0 l/m 18,6 km/h (3 Bft) W-SW 250 2 min 0,000 mm 2,5 UV-I 487 W/m -1,4 C 2,9 C 27,4 km/h (4 Bft) 97,73 %
21.04.2017 14:14 9,4 C 47 % 1029,6 hPa 0,0 l/m 13,1 km/h (3 Bft) SW 219 2 min 0,000 mm 2,5 UV-I 490 W/m -1,3 C 5,3 C 19,3 km/h (3 Bft) 95,12 %
21.04.2017 14:16 9,5 C 48 % 1029,6 hPa 0,0 l/m 15,4 km/h (3 Bft) W 273 2 min 0,000 mm 2,5 UV-I 485 W/m -1,0 C 4,4 C 24,1 km/h (4 Bft) 90,00 %
21.04.2017 14:18 9,4 C 46 % 1029,6 hPa 0,0 l/m 16,2 km/h (3 Bft) W 261 2 min 0,000 mm 2,5 UV-I 480 W/m -1,6 C 3,9 C 20,9 km/h (4 Bft) 97,73 %
21.04.2017 14:20 9,4 C 46 % 1029,6 hPa 0,0 l/m 15,6 km/h (3 Bft) W 259 2 min 0,000 mm 2,4 UV-I 467 W/m -1,6 C 4,2 C 22,5 km/h (4 Bft) 98,21 %
21.04.2017 14:22 9,4 C 47 % 1029,6 hPa 0,0 l/m 11,8 km/h (2 Bft) W-SW 242 2 min 0,000 mm 2,3 UV-I 448 W/m -1,3 C 5,9 C 20,9 km/h (4 Bft) 97,56 %
21.04.2017 14:24 9,5 C 47 % 1029,7 hPa 0,0 l/m 14,7 km/h (3 Bft) W-SW 257 2 min 0,000 mm 2,3 UV-I 442 W/m -1,2 C 4,7 C 29,0 km/h (5 Bft) 100,00 %
21.04.2017 14:26 9,4 C 47 % 1029,5 hPa 0,0 l/m 14,0 km/h (3 Bft) W 260 2 min 0,000 mm 2,3 UV-I 444 W/m -1,3 C 4,9 C 20,9 km/h (4 Bft) 97,30 %
21.04.2017 14:28 9,4 C 48 % 1029,4 hPa 0,0 l/m 14,9 km/h (3 Bft) W 262 2 min 0,000 mm 2,4 UV-I 461 W/m -1,0 C 4,5 C 25,7 km/h (4 Bft) 96,15 %
21.04.2017 14:30 9,4 C 47 % 1029,3 hPa 0,0 l/m 14,2 km/h (3 Bft) W 261 2 min 0,000 mm 2,4 UV-I 462 W/m -1,3 C 4,8 C 30,6 km/h (5 Bft) 100,00 %
21.04.2017 14:32 9,4 C 47 % 1029,4 hPa 0,0 l/m 16,4 km/h (3 Bft) W-SW 257 2 min 0,000 mm 2,4 UV-I 475 W/m -1,3 C 3,8 C 25,7 km/h (4 Bft) 98,21 %
21.04.2017 14:34 9,5 C 47 % 1029,3 hPa 0,0 l/m 14,9 km/h (3 Bft) W-NW 292 2 min 0,000 mm 2,5 UV-I 520 W/m -1,2 C 4,6 C 22,5 km/h (4 Bft) 98,00 %
21.04.2017 14:36 9,5 C 46 % 1029,3 hPa 0,0 l/m 13,5 km/h (3 Bft) NW 309 2 min 0,000 mm 2,6 UV-I 548 W/m -1,5 C 5,2 C 22,5 km/h (4 Bft) 97,87 %
21.04.2017 14:38 9,6 C 46 % 1029,3 hPa 0,0 l/m 13,5 km/h (3 Bft) W 273 2 min 0,000 mm 2,6 UV-I 551 W/m -1,4 C 5,3 C 25,7 km/h (4 Bft) 92,11 %
21.04.2017 14:40 9,7 C 47 % 1029,3 hPa 0,0 l/m 13,7 km/h (3 Bft) W-SW 240 2 min 0,000 mm 2,5 UV-I 520 W/m -1,1 C 5,3 C 25,7 km/h (4 Bft) 100,00 %
21.04.2017 14:42 9,7 C 46 % 1029,3 hPa 0,0 l/m 18,6 km/h (3 Bft) SW 230 2 min 0,000 mm 2,5 UV-I 496 W/m -1,3 C 3,4 C 27,4 km/h (4 Bft) 97,87 %
21.04.2017 14:44 9,7 C 45 % 1029,2 hPa 0,0 l/m 12,8 km/h (3 Bft) W-NW 301 2 min 0,000 mm 2,5 UV-I 518 W/m -1,6 C 5,8 C 22,5 km/h (4 Bft) 100,00 %
21.04.2017 14:46 9,7 C 46 % 1029,2 hPa 0,0 l/m 14,0 km/h (3 Bft) W-NW 286 2 min 0,000 mm 2,6 UV-I 561 W/m -1,3 C 5,2 C 29,0 km/h (5 Bft) 97,87 %
21.04.2017 14:48 9,7 C 46 % 1029,1 hPa 0,0 l/m 14,1 km/h (3 Bft) S-SO 164 2 min 0,000 mm 2,6 UV-I 570 W/m -1,3 C 5,2 C 29,0 km/h (5 Bft) 96,23 %
21.04.2017 14:50 9,7 C 48 % 1029,1 hPa 0,0 l/m 10,4 km/h (2 Bft) W-SW 250 2 min 0,000 mm 2,6 UV-I 540 W/m -0,8 C 7,0 C 17,7 km/h (3 Bft) 100,00 %
21.04.2017 14:52 9,9 C 47 % 1029,0 hPa 0,0 l/m 11,9 km/h (2 Bft) W-SW 257 2 min 0,000 mm 2,5 UV-I 515 W/m -0,9 C 6,4 C 20,9 km/h (4 Bft) 100,00 %
21.04.2017 14:54 9,9 C 46 % 1029,0 hPa 0,0 l/m 14,6 km/h (3 Bft) W 277 2 min 0,000 mm 2,5 UV-I 494 W/m -1,2 C 5,2 C 25,7 km/h (4 Bft) 100,00 %
21.04.2017 14:56 9,9 C 47 % 1029,0 hPa 0,0 l/m 10,3 km/h (2 Bft) SW 217 2 min 0,000 mm 2,4 UV-I 493 W/m -0,9 C 7,3 C 25,7 km/h (4 Bft) 98,11 %
21.04.2017 14:58 9,8 C 46 % 1028,9 hPa 0,0 l/m 15,6 km/h (3 Bft) W-SW 249 2 min 0,000 mm 2,8 UV-I 592 W/m -1,3 C 4,6 C 29,0 km/h (5 Bft) 100,00 %
21.04.2017 15:00 9,9 C 46 % 1028,9 hPa 0,0 l/m 15,1 km/h (3 Bft) W 259 2 min 0,000 mm 2,7 UV-I 614 W/m -1,2 C 5,0 C 22,5 km/h (4 Bft) 100,00 %
21.04.2017 15:02 10,0 C 48 % 1028,9 hPa 0,0 l/m 11,7 km/h (2 Bft) W-NW 286 2 min 0,304 mm 2,6 UV-I 551 W/m -0,5 C 6,7 C 19,3 km/h (3 Bft) 98,00 %
21.04.2017 15:04 10,1 C 45 % 1028,9 hPa 0,0 l/m 10,7 km/h (2 Bft) W-SW 252 2 min 0,000 mm 2,6 UV-I 570 W/m -1,3 C 7,3 C 17,7 km/h (3 Bft) 97,87 %
21.04.2017 15:06 10,1 C 45 % 1028,9 hPa 0,0 l/m 13,0 km/h (3 Bft) W-SW 257 2 min 0,000 mm 2,6 UV-I 652 W/m -1,3 C 6,1 C 20,9 km/h (4 Bft) 100,00 %
21.04.2017 15:08 10,3 C 48 % 1028,9 hPa 0,0 l/m 13,0 km/h (3 Bft) W-SW 256 2 min 0,000 mm 2,7 UV-I 693 W/m -0,2 C 6,4 C 24,1 km/h (4 Bft) 94,44 %
21.04.2017 15:10 10,3 C 43 % 1028,9 hPa 0,0 l/m 13,0 km/h (3 Bft) N-NO 23 2 min 0,000 mm 2,4 UV-I 539 W/m -1,7 C 6,4 C 24,1 km/h (4 Bft) 96,55 %
21.04.2017 15:12 10,3 C 45 % 1028,8 hPa 0,0 l/m 10,7 km/h (2 Bft) W 260 2 min 0,000 mm 2,4 UV-I 534 W/m -1,1 C 7,5 C 32,2 km/h (5 Bft) 100,00 %
21.04.2017 15:14 10,2 C 44 % 1028,9 hPa 0,0 l/m 12,2 km/h (2 Bft) W-SW 249 2 min 0,000 mm 2,3 UV-I 509 W/m -1,5 C 6,6 C 17,7 km/h (3 Bft) 94,64 %
21.04.2017 15:16 10,1 C 45 % 1028,8 hPa 0,0 l/m 10,4 km/h (2 Bft) W 268 2 min 0,000 mm 2,3 UV-I 548 W/m -1,3 C 7,5 C 19,3 km/h (3 Bft) 97,56 %
21.04.2017 15:18 10,1 C 44 % 1028,7 hPa 0,0 l/m 9,9 km/h (2 Bft) W 267 2 min 0,000 mm 2,3 UV-I 574 W/m -1,6 C 7,8 C 16,1 km/h (3 Bft) 97,56 %
21.04.2017 15:20 10,1 C 46 % 1028,7 hPa 0,0 l/m 11,2 km/h (2 Bft) W-SW 254 2 min 0,000 mm 2,2 UV-I 506 W/m -1,0 C 7,0 C 22,5 km/h (4 Bft) 98,00 %
21.04.2017 15:22 10,2 C 46 % 1028,6 hPa 0,0 l/m 16,4 km/h (3 Bft) SW 227 2 min 0,000 mm 2,1 UV-I 476 W/m -0,9 C 4,8 C 27,4 km/h (4 Bft) 95,45 %
21.04.2017 15:24 10,2 C 46 % 1028,7 hPa 0,0 l/m 10,1 km/h (2 Bft) W 279 2 min 0,000 mm 2,0 UV-I 416 W/m -0,9 C 7,8 C 16,1 km/h (3 Bft) 96,23 %
21.04.2017 15:26 10,2 C 46 % 1028,7 hPa 0,0 l/m 8,9 km/h (2 Bft) W-SW 247 2 min 0,000 mm 1,9 UV-I 401 W/m -0,9 C 8,5 C 16,1 km/h (3 Bft) 97,73 %
21.04.2017 15:28 10,0 C 46 % 1028,6 hPa 0,0 l/m 10,2 km/h (2 Bft) SW 234 0 min 0,000 mm 1,8 UV-I 372 W/m -1,1 C 7,5 C 22,5 km/h (4 Bft) 98,00 %
21.04.2017 15:30 10,0 C 48 % 1028,6 hPa 0,0 l/m 16,4 km/h (3 Bft) W 279 0 min 0,000 mm 1,7 UV-I 354 W/m -0,5 C 4,6 C 30,6 km/h (5 Bft) 96,00 %
21.04.2017 15:32 9,9 C 47 % 1028,6 hPa 0,0 l/m 14,9 km/h (3 Bft) W 261 0 min 0,000 mm 1,6 UV-I 355 W/m -0,9 C 5,1 C 22,5 km/h (4 Bft) 93,62 %
21.04.2017 15:34 9,9 C 46 % 1028,6 hPa 0,0 l/m 17,6 km/h (3 Bft) W-SW 255 0 min 0,000 mm 1,5 UV-I 320 W/m -1,2 C 4,0 C 29,0 km/h (5 Bft) 95,74 %
21.04.2017 15:36 9,8 C 46 % 1028,5 hPa 0,0 l/m 12,1 km/h (2 Bft) SW 217 0 min 0,000 mm 1,5 UV-I 311 W/m -1,3 C 6,2 C 17,7 km/h (3 Bft) 90,91 %
21.04.2017 15:38 9,8 C 47 % 1028,5 hPa 0,0 l/m 11,8 km/h (2 Bft) SW 233 0 min 0,000 mm 1,4 UV-I 299 W/m -1,0 C 6,4 C 19,3 km/h (3 Bft) 95,45 %
21.04.2017 15:40 9,7 C 46 % 1028,4 hPa 0,0 l/m 10,0 km/h (2 Bft) W 267 0 min 0,000 mm 1,4 UV-I 293 W/m -1,3 C 7,3 C 19,3 km/h (3 Bft) 96,23 %
21.04.2017 15:42 9,7 C 47 % 1028,4 hPa 0,0 l/m 11,7 km/h (2 Bft) SW 231 0 min 0,000 mm 1,3 UV-I 291 W/m -1,1 C 6,3 C 19,3 km/h (3 Bft) 93,18 %
21.04.2017 15:44 9,7 C 47 % 1028,4 hPa 0,0 l/m 13,7 km/h (3 Bft) W 268 0 min 0,000 mm 1,3 UV-I 292 W/m -1,1 C 5,3 C 29,0 km/h (5 Bft) 93,18 %
21.04.2017 15:46 9,6 C 48 % 1028,3 hPa 0,0 l/m 16,6 km/h (3 Bft) W 262 0 min 0,000 mm 1,3 UV-I 294 W/m -0,9 C 4,0 C 29,0 km/h (5 Bft) 95,74 %
21.04.2017 15:48 9,6 C 47 % 1028,3 hPa 0,0 l/m 13,1 km/h (3 Bft) W-SW 244 0 min 0,000 mm 1,3 UV-I 300 W/m -1,1 C 5,5 C 27,4 km/h (4 Bft) 95,24 %
21.04.2017 15:50 9,7 C 49 % 1028,2 hPa 0,0 l/m 12,9 km/h (3 Bft) W-SW 241 0 min 0,000 mm 1,4 UV-I 312 W/m -0,5 C 5,7 C 24,1 km/h (4 Bft) 98,18 %
21.04.2017 15:52 9,7 C 46 % 1028,2 hPa 0,0 l/m 15,5 km/h (3 Bft) W-SW 248 0 min 0,000 mm 1,4 UV-I 335 W/m -1,3 C 4,6 C 24,1 km/h (4 Bft) 94,87 %
21.04.2017 15:54 9,6 C 46 % 1028,2 hPa 0,0 l/m 14,3 km/h (3 Bft) W-SW 244 2 min 0,000 mm 1,5 UV-I 372 W/m -1,4 C 5,0 C 20,9 km/h (4 Bft) 94,00 %
21.04.2017 15:56 9,7 C 49 % 1028,1 hPa 0,0 l/m 8,3 km/h (2 Bft) W 272 2 min 0,000 mm 1,6 UV-I 399 W/m -0,5 C 8,3 C 16,1 km/h (3 Bft) 92,68 %
21.04.2017 15:58 9,8 C 48 % 1028,1 hPa 0,0 l/m 8,6 km/h (2 Bft) W 260 2 min 0,000 mm 1,5 UV-I 379 W/m -0,7 C 8,2 C 16,1 km/h (3 Bft) 92,45 %
21.04.2017 16:00 9,8 C 46 % 1028,1 hPa 0,0 l/m 18,1 km/h (3 Bft) W 267 2 min 0,254 mm 1,5 UV-I 370 W/m -1,3 C 3,7 C 27,4 km/h (4 Bft) 96,23 %
21.04.2017 16:02 9,9 C 47 % 1028,0 hPa 0,0 l/m 11,6 km/h (2 Bft) W-SW 250 2 min 0,000 mm 1,5 UV-I 371 W/m -0,9 C 6,6 C 19,3 km/h (3 Bft) 94,74 %
21.04.2017 16:04 9,9 C 48 % 1028,0 hPa 0,0 l/m 10,5 km/h (2 Bft) W 263 2 min 0,000 mm 1,5 UV-I 373 W/m -0,6 C 7,2 C 16,1 km/h (3 Bft) 96,23 %
21.04.2017 16:06 10,1 C 47 % 1028,0 hPa 0,0 l/m 15,9 km/h (3 Bft) W 259 2 min 0,000 mm 1,5 UV-I 369 W/m -0,7 C 4,9 C 24,1 km/h (4 Bft) 97,37 %
21.04.2017 16:08 10,1 C 48 % 1028,0 hPa 0,0 l/m 9,5 km/h (2 Bft) W-SW 244 2 min 0,000 mm 1,4 UV-I 354 W/m -0,4 C 8,0 C 22,5 km/h (4 Bft) 96,61 %
21.04.2017 16:10 10,1 C 49 % 1028,0 hPa 0,0 l/m 12,4 km/h (3 Bft) W 259 2 min 0,000 mm 1,4 UV-I 333 W/m -0,1 C 6,4 C 30,6 km/h (5 Bft) 95,12 %
21.04.2017 16:12 10,1 C 49 % 1027,8 hPa 0,0 l/m 12,8 km/h (3 Bft) SW 215 0 min 0,000 mm 1,3 UV-I 325 W/m -0,1 C 6,2 C 22,5 km/h (4 Bft) 90,24 %
21.04.2017 16:14 10,0 C 48 % 1027,8 hPa 0,0 l/m 17,4 km/h (3 Bft) W-SW 250 2 min 0,000 mm 1,3 UV-I 333 W/m -0,5 C 4,2 C 25,7 km/h (4 Bft) 97,87 %
21.04.2017 16:16 10,0 C 49 % 1027,9 hPa 0,0 l/m 17,4 km/h (3 Bft) W-SW 257 2 min 0,000 mm 1,4 UV-I 364 W/m -0,2 C 4,2 C 24,1 km/h (4 Bft) 96,23 %
21.04.2017 16:18 10,0 C 48 % 1027,8 hPa 0,0 l/m 13,3 km/h (3 Bft) W-SW 249 2 min 0,000 mm 1,5 UV-I 406 W/m -0,5 C 5,9 C 19,3 km/h (3 Bft) 94,74 %
21.04.2017 16:20 10,1 C 48 % 1027,8 hPa 0,0 l/m 15,9 km/h (3 Bft) W-SW 252 2 min 0,000 mm 1,5 UV-I 372 W/m -0,4 C 4,9 C 25,7 km/h (4 Bft) 94,34 %
21.04.2017 16:22 10,1 C 48 % 1027,8 hPa 0,0 l/m 13,4 km/h (3 Bft) W-SW 242 2 min 0,000 mm 1,5 UV-I 368 W/m -0,4 C 6,0 C 19,3 km/h (3 Bft) 98,11 %
21.04.2017 16:24 10,2 C 49 % 1027,8 hPa 0,0 l/m 14,6 km/h (3 Bft) W 267 2 min 0,000 mm 1,4 UV-I 336 W/m -0,0 C 5,5 C 24,1 km/h (4 Bft) 97,56 %
21.04.2017 16:26 10,2 C 48 % 1027,7 hPa 0,0 l/m 16,9 km/h (3 Bft) SW 225 2 min 0,000 mm 1,4 UV-I 353 W/m -0,3 C 4,6 C 24,1 km/h (4 Bft) 100,00 %
21.04.2017 16:28 10,1 C 46 % 1027,6 hPa 0,0 l/m 15,8 km/h (3 Bft) SW 227 0 min 0,000 mm 1,3 UV-I 278 W/m -1,0 C 4,9 C 24,1 km/h (4 Bft) 100,00 %
21.04.2017 16:30 10,0 C 47 % 1027,6 hPa 0,0 l/m 14,9 km/h (3 Bft) W 273 0 min 0,000 mm 1,3 UV-I 207 W/m -0,8 C 5,2 C 22,5 km/h (4 Bft) 100,00 %
21.04.2017 16:32 9,9 C 48 % 1027,6 hPa 0,0 l/m 11,2 km/h (2 Bft) W-SW 254 0 min 0,000 mm 1,3 UV-I 218 W/m -0,6 C 6,8 C 17,7 km/h (3 Bft) 100,00 %
21.04.2017 16:34 10,0 C 50 % 1027,6 hPa 0,0 l/m 12,1 km/h (2 Bft) W-SW 255 0 min 0,000 mm 1,3 UV-I 218 W/m 0,1 C 6,5 C 19,3 km/h (3 Bft) 97,56 %
21.04.2017 16:36 10,2 C 48 % 1027,5 hPa 0,0 l/m 17,7 km/h (3 Bft) W 270 0 min 0,000 mm 1,4 UV-I 271 W/m -0,3 C 4,3 C 27,4 km/h (4 Bft) 100,00 %
21.04.2017 16:38 10,2 C 47 % 1027,5 hPa 0,0 l/m 10,9 km/h (2 Bft) W 269 0 min 0,000 mm 1,3 UV-I 271 W/m -0,6 C 7,3 C 17,7 km/h (3 Bft) 100,00 %
21.04.2017 16:40 10,2 C 46 % 1027,5 hPa 0,0 l/m 15,8 km/h (3 Bft) W-NW 283 0 min 0,000 mm 1,3 UV-I 274 W/m -0,9 C 5,1 C 27,4 km/h (4 Bft) 100,00 %
21.04.2017 16:42 10,2 C 48 % 1027,4 hPa 0,0 l/m 11,3 km/h (2 Bft) S-SW 212 2 min 0,000 mm 1,5 UV-I 552 W/m -0,3 C 7,1 C 17,7 km/h (3 Bft) 98,00 %
21.04.2017 16:44 10,4 C 48 % 1027,4 hPa 0,0 l/m 12,3 km/h (3 Bft) SW 231 2 min 0,000 mm 1,5 UV-I 557 W/m -0,1 C 6,8 C 20,9 km/h (4 Bft) 100,00 %
21.04.2017 16:46 10,6 C 46 % 1027,3 hPa 0,0 l/m 11,5 km/h (2 Bft) W 262 2 min 0,000 mm 1,4 UV-I 543 W/m -0,5 C 7,5 C 24,1 km/h (4 Bft) 98,00 %
21.04.2017 16:48 10,8 C 48 % 1027,3 hPa 0,0 l/m 17,2 km/h (3 Bft) SW 234 2 min 0,000 mm 1,4 UV-I 532 W/m 0,2 C 5,3 C 30,6 km/h (5 Bft) 98,11 %
21.04.2017 16:50 10,8 C 47 % 1027,3 hPa 0,0 l/m 16,8 km/h (3 Bft) W-SW 244 2 min 0,000 mm 1,4 UV-I 533 W/m -0,1 C 5,4 C 25,7 km/h (4 Bft) 100,00 %
21.04.2017 16:52 10,8 C 46 % 1027,3 hPa 0,0 l/m 17,3 km/h (3 Bft) W-SW 251 2 min 0,000 mm 1,3 UV-I 505 W/m -0,3 C 5,2 C 25,7 km/h (4 Bft) 100,00 %
21.04.2017 16:54 10,7 C 46 % 1027,3 hPa 0,0 l/m 16,6 km/h (3 Bft) W-SW 250 2 min 0,000 mm 1,2 UV-I 489 W/m -0,4 C 5,4 C 22,5 km/h (4 Bft) 100,00 %
21.04.2017 16:56 10,7 C 47 % 1027,3 hPa 0,0 l/m 14,3 km/h (3 Bft) W-SW 244 0 min 0,000 mm 1,0 UV-I 256 W/m -0,1 C 6,3 C 19,3 km/h (3 Bft) 98,11 %
21.04.2017 16:58 10,5 C 49 % 1027,3 hPa 0,0 l/m 11,0 km/h (2 Bft) W 275 0 min 0,000 mm 1,0 UV-I 158 W/m 0,2 C 7,6 C 17,7 km/h (3 Bft) 100,00 %
21.04.2017 17:00 10,3 C 47 % 1027,2 hPa 0,0 l/m 12,7 km/h (3 Bft) W 268 0 min 0,254 mm 1,1 UV-I 260 W/m -0,5 C 6,5 C 20,9 km/h (4 Bft) 100,00 %
21.04.2017 17:02 10,4 C 48 % 1027,2 hPa 0,0 l/m 12,2 km/h (2 Bft) W-SW 257 2 min 0,000 mm 1,2 UV-I 506 W/m -0,1 C 6,9 C 19,3 km/h (3 Bft) 100,00 %
21.04.2017 17:04 10,7 C 50 % 1027,2 hPa 0,0 l/m 13,0 km/h (3 Bft) W-SW 246 2 min 0,000 mm 1,2 UV-I 491 W/m 0,7 C 6,8 C 22,5 km/h (4 Bft) 98,08 %
21.04.2017 17:06 10,8 C 49 % 1027,1 hPa 0,0 l/m 15,7 km/h (3 Bft) W 265 2 min 0,000 mm 1,1 UV-I 459 W/m 0,5 C 5,8 C 25,7 km/h (4 Bft) 98,11 %
21.04.2017 17:08 10,9 C 46 % 1027,1 hPa 0,0 l/m 22,0 km/h (4 Bft) W 264 2 min 0,000 mm 1,1 UV-I 443 W/m -0,3 C 3,9 C 35,4 km/h (5 Bft) 100,00 %
21.04.2017 17:10 10,8 C 45 % 1027,0 hPa 0,0 l/m 19,2 km/h (3 Bft) W-SW 249 2 min 0,000 mm 1,1 UV-I 431 W/m -0,6 C 4,6 C 27,4 km/h (4 Bft) 100,00 %
21.04.2017 17:12 10,7 C 47 % 1027,0 hPa 0,0 l/m 17,3 km/h (3 Bft) SW 230 2 min 0,000 mm 1,0 UV-I 404 W/m -0,1 C 5,1 C 24,1 km/h (4 Bft) 95,12 %
21.04.2017 17:14 10,7 C 45 % 1027,0 hPa 0,0 l/m 19,8 km/h (3 Bft) W-SW 240 2 min 0,000 mm 1,0 UV-I 381 W/m -0,7 C 4,3 C 29,0 km/h (5 Bft) 100,00 %
21.04.2017 17:16 10,6 C 46 % 1027,0 hPa 0,0 l/m 15,3 km/h (3 Bft) SW 236 2 min 0,000 mm 0,9 UV-I 381 W/m -0,5 C 5,7 C 24,1 km/h (4 Bft) 97,37 %
21.04.2017 17:18 10,6 C 47 % 1027,0 hPa 0,0 l/m 14,3 km/h (3 Bft) SW 236 2 min 0,000 mm 0,9 UV-I 391 W/m -0,2 C 6,2 C 20,9 km/h (4 Bft) 96,77 %
21.04.2017 17:20 10,7 C 47 % 1027,0 hPa 0,0 l/m 14,3 km/h (3 Bft) W 261 2 min 0,000 mm 0,9 UV-I 378 W/m -0,1 C 6,3 C 19,3 km/h (3 Bft) 97,37 %
21.04.2017 17:22 10,7 C 46 % 1026,9 hPa 0,0 l/m 13,8 km/h (3 Bft) W-SW 250 2 min 0,000 mm 0,9 UV-I 368 W/m -0,4 C 6,5 C 22,5 km/h (4 Bft) 96,43 %
21.04.2017 17:24 10,6 C 44 % 1026,9 hPa 0,0 l/m 17,2 km/h (3 Bft) W-SW 257 2 min 0,000 mm 0,9 UV-I 386 W/m -1,1 C 5,0 C 25,7 km/h (4 Bft) 97,37 %
21.04.2017 17:26 10,6 C 45 % 1026,9 hPa 0,0 l/m 14,2 km/h (3 Bft) W-SW 254 2 min 0,000 mm 0,8 UV-I 382 W/m -0,8 C 6,2 C 24,1 km/h (4 Bft) 97,73 %
21.04.2017 17:28 10,7 C 46 % 1026,8 hPa 0,0 l/m 14,3 km/h (3 Bft) W 269 2 min 0,000 mm 0,8 UV-I 352 W/m -0,4 C 6,3 C 24,1 km/h (4 Bft) 98,11 %
21.04.2017 17:30 10,8 C 45 % 1026,9 hPa 0,0 l/m 14,4 km/h (3 Bft) SW 227 2 min 0,000 mm 0,8 UV-I 374 W/m -0,6 C 6,4 C 25,7 km/h (4 Bft) 96,00 %
21.04.2017 17:32 10,8 C 46 % 1026,8 hPa 0,0 l/m 12,9 km/h (3 Bft) SW 214 2 min 0,000 mm 0,8 UV-I 354 W/m -0,3 C 7,0 C 24,1 km/h (4 Bft) 97,87 %
21.04.2017 17:34 10,8 C 46 % 1026,8 hPa 0,0 l/m 15,7 km/h (3 Bft) W 263 2 min 0,000 mm 0,8 UV-I 358 W/m -0,3 C 5,8 C 24,1 km/h (4 Bft) 97,37 %
21.04.2017 17:36 10,9 C 47 % 1026,8 hPa 0,0 l/m 14,7 km/h (3 Bft) W 267 2 min 0,000 mm 0,7 UV-I 355 W/m 0,0 C 6,3 C 25,7 km/h (4 Bft) 97,73 %
21.04.2017 17:38 10,8 C 47 % 1026,8 hPa 0,0 l/m 15,5 km/h (3 Bft) W-SW 242 2 min 0,000 mm 0,7 UV-I 249 W/m -0,1 C 5,9 C 24,1 km/h (4 Bft) 96,43 %
21.04.2017 17:40 10,8 C 46 % 1026,8 hPa 0,0 l/m 19,2 km/h (3 Bft) W-SW 242 2 min 0,000 mm 0,7 UV-I 343 W/m -0,3 C 4,6 C 32,2 km/h (5 Bft) 98,00 %
21.04.2017 17:42 10,7 C 46 % 1026,8 hPa 0,0 l/m 15,1 km/h (3 Bft) SW 225 2 min 0,000 mm 0,7 UV-I 343 W/m -0,4 C 5,9 C 24,1 km/h (4 Bft) 97,56 %
21.04.2017 17:44 10,7 C 47 % 1026,8 hPa 0,0 l/m 15,0 km/h (3 Bft) W-SW 248 2 min 0,000 mm 0,7 UV-I 317 W/m -0,1 C 6,0 C 25,7 km/h (4 Bft) 96,00 %
21.04.2017 17:46 10,7 C 47 % 1026,7 hPa 0,0 l/m 17,5 km/h (3 Bft) SW 236 2 min 0,000 mm 0,6 UV-I 317 W/m -0,1 C 5,0 C 25,7 km/h (4 Bft) 98,00 %
21.04.2017 17:48 10,7 C 47 % 1026,8 hPa 0,0 l/m 19,0 km/h (3 Bft) W 263 2 min 0,000 mm 0,6 UV-I 302 W/m -0,1 C 4,5 C 25,7 km/h (4 Bft) 97,62 %
21.04.2017 17:50 10,6 C 46 % 1026,7 hPa 0,0 l/m 19,2 km/h (3 Bft) SW 228 2 min 0,000 mm 0,6 UV-I 296 W/m -0,5 C 4,3 C 32,2 km/h (5 Bft) 100,00 %
21.04.2017 17:52 10,4 C 46 % 1026,7 hPa 0,0 l/m 20,2 km/h (4 Bft) SW 228 2 min 0,000 mm 0,6 UV-I 286 W/m -0,7 C 3,7 C 32,2 km/h (5 Bft) 100,00 %
21.04.2017 17:54 10,4 C 46 % 1026,8 hPa 0,0 l/m 14,5 km/h (3 Bft) SW 232 2 min 0,000 mm 0,5 UV-I 276 W/m -0,7 C 5,8 C 25,7 km/h (4 Bft) 100,00 %
21.04.2017 17:56 10,3 C 46 % 1026,7 hPa 0,0 l/m 12,3 km/h (3 Bft) W 266 0 min 0,000 mm 0,5 UV-I 174 W/m -0,8 C 6,7 C 19,3 km/h (3 Bft) 100,00 %
21.04.2017 17:58 10,2 C 47 % 1026,8 hPa 0,0 l/m 17,9 km/h (3 Bft) S-SW 202 0 min 0,000 mm 0,5 UV-I 160 W/m -0,6 C 4,3 C 27,4 km/h (4 Bft) 100,00 %
21.04.2017 18:00 10,2 C 47 % 1026,8 hPa 0,0 l/m 19,7 km/h (3 Bft) S-SW 207 2 min 0,000 mm 0,5 UV-I 291 W/m -0,6 C 3,6 C 29,0 km/h (5 Bft) 100,00 %
21.04.2017 18:02 10,2 C 47 % 1026,8 hPa 0,0 l/m 16,3 km/h (3 Bft) SW 236 2 min 0,254 mm 0,5 UV-I 307 W/m -0,6 C 4,9 C 27,4 km/h (4 Bft) 100,00 %
21.04.2017 18:04 10,2 C 47 % 1026,8 hPa 0,0 l/m 18,8 km/h (3 Bft) SW 216 2 min 0,000 mm 0,2 UV-I 303 W/m -0,6 C 3,9 C 27,4 km/h (4 Bft) 100,00 %
21.04.2017 18:06 10,2 C 48 % 1026,8 hPa 0,0 l/m 16,6 km/h (3 Bft) S-SW 208 2 min 0,000 mm 0,0 UV-I 295 W/m -0,3 C 4,7 C 27,4 km/h (4 Bft) 100,00 %
21.04.2017 18:08 10,2 C 48 % 1026,8 hPa 0,0 l/m 16,1 km/h (3 Bft) W-SW 242 2 min 0,000 mm 0,0 UV-I 278 W/m -0,3 C 4,9 C 25,7 km/h (4 Bft) 100,00 %
21.04.2017 18:10 10,2 C 48 % 1026,7 hPa 0,0 l/m 17,8 km/h (3 Bft) S 189 2 min 0,000 mm 0,0 UV-I 283 W/m -0,3 C 4,3 C 20,9 km/h (4 Bft) 100,00 %
21.04.2017 18:12 10,2 C 48 % 1026,7 hPa 0,0 l/m 17,1 km/h (3 Bft) SW 214 2 min 0,000 mm 0,0 UV-I 231 W/m -0,3 C 4,5 C 25,7 km/h (4 Bft) 100,00 %
21.04.2017 18:14 10,2 C 48 % 1026,7 hPa 0,0 l/m 18,7 km/h (3 Bft) W-SW 245 2 min 0,000 mm 0,0 UV-I 175 W/m -0,3 C 4,0 C 25,7 km/h (4 Bft) 100,00 %
21.04.2017 18:16 10,1 C 47 % 1026,7 hPa 0,0 l/m 15,9 km/h (3 Bft) SW 231 2 min 0,000 mm 0,0 UV-I 224 W/m -0,7 C 4,9 C 22,5 km/h (4 Bft) 98,00 %
21.04.2017 18:18 10,1 C 48 % 1026,7 hPa 0,0 l/m 19,0 km/h (3 Bft) W-SW 239 2 min 0,000 mm 0,0 UV-I 199 W/m -0,4 C 3,7 C 29,0 km/h (5 Bft) 100,00 %
21.04.2017 18:20 10,0 C 48 % 1026,7 hPa 0,0 l/m 17,9 km/h (3 Bft) SW 221 2 min 0,000 mm 0,0 UV-I 164 W/m -0,5 C 4,0 C 24,1 km/h (4 Bft) 100,00 %
21.04.2017 18:22 9,9 C 47 % 1026,7 hPa 0,0 l/m 18,8 km/h (3 Bft) W-SW 258 2 min 0,000 mm 0,0 UV-I 198 W/m -0,9 C 3,6 C 27,4 km/h (4 Bft) 100,00 %
21.04.2017 18:24 9,8 C 48 % 1026,7 hPa 0,0 l/m 15,0 km/h (3 Bft) W-SW 254 2 min 0,000 mm 0,0 UV-I 193 W/m -0,7 C 4,9 C 25,7 km/h (4 Bft) 97,56 %
21.04.2017 18:26 9,8 C 48 % 1026,7 hPa 0,0 l/m 21,1 km/h (4 Bft) SW 223 2 min 0,000 mm 0,0 UV-I 187 W/m -0,7 C 2,7 C 29,0 km/h (5 Bft) 100,00 %
21.04.2017 18:28 9,8 C 48 % 1026,7 hPa 0,0 l/m 15,4 km/h (3 Bft) S-SW 207 2 min 0,000 mm 0,0 UV-I 183 W/m -0,7 C 4,7 C 20,9 km/h (4 Bft) 96,61 %
21.04.2017 18:30 9,8 C 48 % 1026,7 hPa 0,0 l/m 19,1 km/h (3 Bft) SW 227 2 min 0,000 mm 0,0 UV-I 179 W/m -0,7 C 3,3 C 25,7 km/h (4 Bft) 95,00 %
21.04.2017 18:32 9,8 C 50 % 1026,7 hPa 0,0 l/m 13,7 km/h (3 Bft) W-SW 245 2 min 0,000 mm 0,0 UV-I 174 W/m -0,1 C 5,5 C 19,3 km/h (3 Bft) 95,45 %
21.04.2017 18:34 9,8 C 48 % 1026,6 hPa 0,0 l/m 18,1 km/h (3 Bft) SW 223 2 min 0,000 mm 0,0 UV-I 170 W/m -0,7 C 3,7 C 24,1 km/h (4 Bft) 98,21 %
21.04.2017 18:36 9,8 C 48 % 1026,5 hPa 0,0 l/m 18,9 km/h (3 Bft) SW 234 2 min 0,000 mm 0,0 UV-I 164 W/m -0,7 C 3,4 C 25,7 km/h (4 Bft) 97,37 %
21.04.2017 18:38 9,8 C 48 % 1026,5 hPa 0,0 l/m 17,3 km/h (3 Bft) SW 230 2 min 0,000 mm 0,0 UV-I 144 W/m -0,7 C 4,0 C 29,0 km/h (5 Bft) 100,00 %
21.04.2017 18:40 9,8 C 48 % 1026,5 hPa 0,0 l/m 16,6 km/h (3 Bft) SW 220 2 min 0,000 mm 0,0 UV-I 146 W/m -0,7 C 4,2 C 27,4 km/h (4 Bft) 100,00 %
21.04.2017 18:42 9,8 C 49 % 1026,5 hPa 0,0 l/m 18,4 km/h (3 Bft) W-SW 244 2 min 0,000 mm 0,0 UV-I 145 W/m -0,4 C 3,6 C 27,4 km/h (4 Bft) 96,77 %
21.04.2017 18:44 9,7 C 48 % 1026,5 hPa 0,0 l/m 18,0 km/h (3 Bft) W-SW 246 2 min 0,000 mm 0,0 UV-I 139 W/m -0,8 C 3,6 C 25,7 km/h (4 Bft) 97,87 %
21.04.2017 18:46 9,7 C 49 % 1026,5 hPa 0,0 l/m 14,3 km/h (3 Bft) W-SW 247 2 min 0,000 mm 0,0 UV-I 134 W/m -0,5 C 5,1 C 20,9 km/h (4 Bft) 100,00 %
21.04.2017 18:48 9,7 C 49 % 1026,5 hPa 0,0 l/m 17,1 km/h (3 Bft) S-SO 153 2 min 0,000 mm 0,0 UV-I 129 W/m -0,5 C 3,9 C 25,7 km/h (4 Bft) 97,87 %
21.04.2017 18:50 9,6 C 48 % 1026,4 hPa 0,0 l/m 22,4 km/h (4 Bft) W-SW 244 2 min 0,000 mm 0,0 UV-I 124 W/m -0,9 C 2,0 C 32,2 km/h (5 Bft) 98,11 %
21.04.2017 18:52 9,6 C 50 % 1026,4 hPa 0,0 l/m 15,1 km/h (3 Bft) SW 227 2 min 0,000 mm 0,0 UV-I 119 W/m -0,3 C 4,6 C 20,9 km/h (4 Bft) 100,00 %
21.04.2017 18:54 9,5 C 50 % 1026,4 hPa 0,0 l/m 13,0 km/h (3 Bft) S-SW 202 2 min 0,000 mm 0,0 UV-I 115 W/m -0,4 C 5,4 C 17,7 km/h (3 Bft) 100,00 %
21.04.2017 18:56 9,4 C 50 % 1026,4 hPa 0,0 l/m 18,0 km/h (3 Bft) W-SW 237 2 min 0,000 mm 0,0 UV-I 109 W/m -0,5 C 3,2 C 27,4 km/h (4 Bft) 100,00 %
21.04.2017 18:58 9,4 C 49 % 1026,4 hPa 0,0 l/m 18,5 km/h (3 Bft) SW 218 2 min 0,000 mm 0,0 UV-I 105 W/m -0,8 C 3,0 C 27,4 km/h (4 Bft) 95,74 %
21.04.2017 19:00 9,4 C 49 % 1026,4 hPa 0,0 l/m 14,0 km/h (3 Bft) W-SW 249 2 min 0,000 mm 0,0 UV-I 102 W/m -0,8 C 4,9 C 19,3 km/h (3 Bft) 91,49 %
21.04.2017 19:02 9,4 C 50 % 1026,4 hPa 0,0 l/m 15,6 km/h (3 Bft) SW 223 2 min 0,178 mm 0,0 UV-I 99 W/m -0,5 C 4,2 C 22,5 km/h (4 Bft) 97,78 %
21.04.2017 19:04 9,4 C 49 % 1026,4 hPa 0,0 l/m 13,0 km/h (3 Bft) W-SW 246 2 min 0,000 mm 0,0 UV-I 94 W/m -0,8 C 5,3 C 19,3 km/h (3 Bft) 100,00 %
21.04.2017 19:06 9,3 C 49 % 1026,4 hPa 0,0 l/m 17,0 km/h (3 Bft) SW 214 2 min 0,000 mm 0,0 UV-I 81 W/m -0,9 C 3,5 C 25,7 km/h (4 Bft) 98,00 %
21.04.2017 19:08 9,3 C 49 % 1026,3 hPa 0,0 l/m 17,7 km/h (3 Bft) W-SW 254 0 min 0,000 mm 0,0 UV-I 54 W/m -0,9 C 3,2 C 27,4 km/h (4 Bft) 97,73 %
21.04.2017 19:10 9,2 C 50 % 1026,4 hPa 0,0 l/m 13,2 km/h (3 Bft) SW 224 0 min 0,000 mm 0,0 UV-I 65 W/m -0,7 C 5,0 C 20,9 km/h (4 Bft) 94,64 %
21.04.2017 19:12 9,2 C 50 % 1026,3 hPa 0,0 l/m 15,8 km/h (3 Bft) SW 217 2 min 0,000 mm 0,0 UV-I 72 W/m -0,7 C 3,8 C 22,5 km/h (4 Bft) 94,74 %
21.04.2017 19:14 9,2 C 50 % 1026,3 hPa 0,0 l/m 15,3 km/h (3 Bft) SW 225 0 min 0,000 mm 0,0 UV-I 56 W/m -0,7 C 4,0 C 24,1 km/h (4 Bft) 98,00 %
21.04.2017 19:16 9,1 C 50 % 1026,3 hPa 0,0 l/m 16,7 km/h (3 Bft) SW 217 0 min 0,000 mm 0,0 UV-I 45 W/m -0,8 C 3,3 C 22,5 km/h (4 Bft) 95,45 %
21.04.2017 19:18 9,0 C 51 % 1026,3 hPa 0,0 l/m 15,6 km/h (3 Bft) W-SW 239 2 min 0,000 mm 0,0 UV-I 61 W/m -0,6 C 3,7 C 24,1 km/h (4 Bft) 98,00 %
21.04.2017 19:20 9,0 C 51 % 1026,3 hPa 0,0 l/m 13,8 km/h (3 Bft) SW 231 0 min 0,000 mm 0,0 UV-I 54 W/m -0,6 C 4,5 C 20,9 km/h (4 Bft) 92,45 %
21.04.2017 19:22 8,9 C 51 % 1026,4 hPa 0,0 l/m 11,8 km/h (2 Bft) W-SW 240 0 min 0,000 mm 0,0 UV-I 50 W/m -0,7 C 5,4 C 17,7 km/h (3 Bft) 100,00 %
21.04.2017 19:24 8,9 C 52 % 1026,3 hPa 0,0 l/m 13,0 km/h (3 Bft) S-SW 212 0 min 0,000 mm 0,0 UV-I 45 W/m -0,4 C 4,7 C 19,3 km/h (3 Bft) 94,34 %
21.04.2017 19:26 8,8 C 52 % 1026,3 hPa 0,0 l/m 12,8 km/h (3 Bft) W 277 0 min 0,000 mm 0,0 UV-I 40 W/m -0,5 C 4,7 C 20,9 km/h (4 Bft) 93,62 %
21.04.2017 19:28 8,8 C 52 % 1026,3 hPa 0,0 l/m 15,4 km/h (3 Bft) SW 229 0 min 0,000 mm 0,0 UV-I 40 W/m -0,5 C 3,5 C 22,5 km/h (4 Bft) 95,74 %
21.04.2017 19:30 8,8 C 52 % 1026,3 hPa 0,0 l/m 13,1 km/h (3 Bft) W-SW 237 0 min 0,000 mm 0,0 UV-I 38 W/m -0,5 C 4,6 C 20,9 km/h (4 Bft) 97,56 %
21.04.2017 19:32 8,7 C 53 % 1026,3 hPa 0,0 l/m 10,2 km/h (2 Bft) W-SW 246 0 min 0,000 mm 0,0 UV-I 34 W/m -0,3 C 6,0 C 17,7 km/h (3 Bft) 95,45 %
21.04.2017 19:34 8,7 C 53 % 1026,3 hPa 0,0 l/m 9,2 km/h (2 Bft) S-SW 197 2 min 0,000 mm 0,0 UV-I 36 W/m -0,3 C 6,7 C 14,5 km/h (3 Bft) 97,56 %
21.04.2017 19:36 8,6 C 54 % 1026,3 hPa 0,0 l/m 10,6 km/h (2 Bft) SW 227 2 min 0,000 mm 0,0 UV-I 35 W/m -0,2 C 5,7 C 14,5 km/h (3 Bft) 93,22 %
21.04.2017 19:38 8,6 C 54 % 1026,3 hPa 0,0 l/m 10,5 km/h (2 Bft) S-SW 213 2 min 0,000 mm 0,0 UV-I 34 W/m -0,2 C 5,7 C 16,1 km/h (3 Bft) 96,30 %
21.04.2017 19:40 8,5 C 54 % 1026,3 hPa 0,0 l/m 9,0 km/h (2 Bft) SW 219 2 min 0,000 mm 0,0 UV-I 32 W/m -0,3 C 6,6 C 12,9 km/h (3 Bft) 96,88 %
21.04.2017 19:43 8,4 C 54 % 1026,2 hPa 0,0 l/m 10,4 km/h (2 Bft) S-SW 209 3 min 0,000 mm 0,0 UV-I 26 W/m -0,4 C 5,6 C 17,7 km/h (3 Bft) 97,18 %
21.04.2017 19:44 8,3 C 54 % 1026,2 hPa 0,0 l/m 12,6 km/h (3 Bft) S-SW 207 1 min 0,000 mm 0,0 UV-I 25 W/m -0,5 C 4,2 C 16,1 km/h (3 Bft) 93,33 %
21.04.2017 19:46 8,3 C 54 % 1026,2 hPa 0,0 l/m 11,1 km/h (2 Bft) W-SW 245 2 min 0,000 mm 0,0 UV-I 22 W/m -0,5 C 5,1 C 16,1 km/h (3 Bft) 98,00 %
21.04.2017 19:48 8,2 C 54 % 1026,2 hPa 0,0 l/m 11,5 km/h (2 Bft) S-SW 197 2 min 0,000 mm 0,0 UV-I 20 W/m -0,5 C 4,7 C 14,5 km/h (3 Bft) 96,43 %
21.04.2017 19:50 8,2 C 53 % 1026,2 hPa 0,0 l/m 10,5 km/h (2 Bft) SW 229 2 min 0,000 mm 0,0 UV-I 18 W/m -0,8 C 5,3 C 14,5 km/h (3 Bft) 97,37 %
21.04.2017 19:52 8,1 C 54 % 1026,1 hPa 0,0 l/m 13,0 km/h (3 Bft) W-SW 248 2 min 0,000 mm 0,0 UV-I 16 W/m -0,6 C 3,8 C 17,7 km/h (3 Bft) 100,00 %
21.04.2017 19:54 8,1 C 54 % 1026,2 hPa 0,0 l/m 8,5 km/h (2 Bft) SW 225 0 min 0,000 mm 0,0 UV-I 14 W/m -0,6 C 6,5 C 12,9 km/h (3 Bft) 98,21 %
21.04.2017 19:56 8,0 C 54 % 1026,1 hPa 0,0 l/m 10,0 km/h (2 Bft) SW 222 0 min 0,000 mm 0,0 UV-I 13 W/m -0,7 C 5,4 C 16,1 km/h (3 Bft) 98,00 %
21.04.2017 19:58 7,9 C 54 % 1026,1 hPa 0,0 l/m 10,1 km/h (2 Bft) S 171 0 min 0,000 mm 0,0 UV-I 11 W/m -0,8 C 5,2 C 19,3 km/h (3 Bft) 97,73 %
21.04.2017 20:00 7,8 C 54 % 1026,1 hPa 0,0 l/m 7,7 km/h (2 Bft) SW 218 0 min 0,000 mm 0,0 UV-I 11 W/m -0,9 C 6,8 C 14,5 km/h (3 Bft) 97,73 %
21.04.2017 20:02 7,8 C 55 % 1026,1 hPa 0,0 l/m 9,2 km/h (2 Bft) S-SW 208 0 min 0,076 mm 0,0 UV-I 9 W/m -0,7 C 5,7 C 12,9 km/h (3 Bft) 100,00 %
21.04.2017 20:04 7,7 C 54 % 1026,1 hPa 0,0 l/m 9,1 km/h (2 Bft) SW 225 0 min 0,000 mm 0,0 UV-I 9 W/m -1,0 C 5,6 C 14,5 km/h (3 Bft) 98,21 %
21.04.2017 20:06 7,7 C 54 % 1026,1 hPa 0,0 l/m 11,0 km/h (2 Bft) S-SW 206 0 min 0,000 mm 0,0 UV-I 7 W/m -1,0 C 4,4 C 16,1 km/h (3 Bft) 97,73 %
21.04.2017 20:08 7,6 C 54 % 1026,1 hPa 0,0 l/m 9,2 km/h (2 Bft) SW 223 0 min 0,000 mm 0,0 UV-I 7 W/m -1,1 C 5,5 C 12,9 km/h (3 Bft) 100,00 %
21.04.2017 20:10 7,6 C 54 % 1026,1 hPa 0,0 l/m 9,4 km/h (2 Bft) S-SW 213 0 min 0,000 mm 0,0 UV-I 7 W/m -1,1 C 5,3 C 14,5 km/h (3 Bft) 96,00 %
21.04.2017 20:12 7,5 C 54 % 1026,1 hPa 0,0 l/m 8,0 km/h (2 Bft) S-SW 202 0 min 0,000 mm 0,0 UV-I 5 W/m -1,2 C 6,2 C 12,9 km/h (3 Bft) 96,23 %
21.04.2017 20:14 7,4 C 54 % 1026,1 hPa 0,0 l/m 7,9 km/h (2 Bft) S-SW 209 0 min 0,000 mm 0,0 UV-I 5 W/m -1,3 C 6,2 C 12,9 km/h (3 Bft) 97,87 %
21.04.2017 20:16 7,4 C 54 % 1026,1 hPa 0,0 l/m 9,1 km/h (2 Bft) S-SW 206 0 min 0,000 mm 0,0 UV-I 5 W/m -1,3 C 5,3 C 12,9 km/h (3 Bft) 97,37 %
21.04.2017 20:18 7,3 C 54 % 1026,1 hPa 0,0 l/m 9,6 km/h (2 Bft) S-SW 211 0 min 0,000 mm 0,0 UV-I 2 W/m -1,4 C 4,9 C 14,5 km/h (3 Bft) 96,23 %
21.04.2017 20:20 7,3 C 53 % 1026,1 hPa 0,0 l/m 8,6 km/h (2 Bft) SW 234 0 min 0,000 mm 0,0 UV-I 0 W/m -1,6 C 5,6 C 12,9 km/h (3 Bft) 97,73 %
21.04.2017 20:22 7,3 C 53 % 1026,0 hPa 0,0 l/m 9,5 km/h (2 Bft) S-SW 208 0 min 0,000 mm 0,0 UV-I 0 W/m -1,6 C 4,9 C 12,9 km/h (3 Bft) 94,34 %
21.04.2017 20:24 7,2 C 52 % 1026,1 hPa 0,0 l/m 10,8 km/h (2 Bft) SW 232 0 min 0,000 mm 0,0 UV-I 0 W/m -2,0 C 4,0 C 14,5 km/h (3 Bft) 94,87 %
21.04.2017 20:26 7,3 C 52 % 1026,1 hPa 0,0 l/m 9,4 km/h (2 Bft) S-SW 200 0 min 0,000 mm 0,0 UV-I 0 W/m -1,9 C 5,0 C 14,5 km/h (3 Bft) 95,45 %
21.04.2017 20:28 7,3 C 52 % 1026,1 hPa 0,0 l/m 7,8 km/h (2 Bft) S-SW 208 0 min 0,000 mm 0,0 UV-I 0 W/m -1,9 C 6,2 C 11,3 km/h (2 Bft) 96,00 %
21.04.2017 20:30 7,2 C 52 % 1026,1 hPa 0,0 l/m 10,4 km/h (2 Bft) SW 227 0 min 0,000 mm 0,0 UV-I 0 W/m -2,0 C 4,2 C 14,5 km/h (3 Bft) 98,00 %
21.04.2017 20:32 7,2 C 52 % 1026,1 hPa 0,0 l/m 8,2 km/h (2 Bft) S-SW 197 0 min 0,000 mm 0,0 UV-I 0 W/m -2,0 C 5,8 C 14,5 km/h (3 Bft) 95,12 %
21.04.2017 20:34 7,2 C 52 % 1026,1 hPa 0,0 l/m 7,8 km/h (2 Bft) SW 230 0 min 0,000 mm 0,0 UV-I 0 W/m -2,0 C 6,1 C 12,9 km/h (3 Bft) 94,34 %
21.04.2017 20:36 7,1 C 52 % 1026,1 hPa 0,0 l/m 11,6 km/h (2 Bft) S-SW 199 0 min 0,000 mm 0,0 UV-I 0 W/m -2,1 C 3,4 C 17,7 km/h (3 Bft) 94,00 %
21.04.2017 20:38 7,0 C 53 % 1026,1 hPa 0,0 l/m 8,6 km/h (2 Bft) S 188 0 min 0,000 mm 0,0 UV-I 0 W/m -1,9 C 5,3 C 12,9 km/h (3 Bft) 95,45 %
21.04.2017 20:40 6,9 C 53 % 1026,1 hPa 0,0 l/m 8,4 km/h (2 Bft) SW 215 0 min 0,000 mm 0,0 UV-I 0 W/m -2,0 C 5,3 C 11,3 km/h (2 Bft) 95,74 %
21.04.2017 20:42 6,8 C 54 % 1026,2 hPa 0,0 l/m 7,6 km/h (2 Bft) S-SW 193 0 min 0,000 mm 0,0 UV-I 0 W/m -1,8 C 5,8 C 11,3 km/h (2 Bft) 93,62 %
21.04.2017 20:44 6,7 C 55 % 1026,1 hPa 0,0 l/m 6,1 km/h (2 Bft) S-SW 213 0 min 0,000 mm 0,0 UV-I 0 W/m -1,7 C 6,7 C 9,7 km/h (2 Bft) 94,74 %
21.04.2017 20:46 6,7 C 55 % 1026,1 hPa 0,0 l/m 6,9 km/h (2 Bft) S-SW 194 0 min 0,000 mm 0,0 UV-I 0 W/m -1,7 C 6,3 C 11,3 km/h (2 Bft) 92,86 %
21.04.2017 20:48 6,6 C 56 % 1026,2 hPa 0,0 l/m 8,7 km/h (2 Bft) S-SW 208 0 min 0,000 mm 0,0 UV-I 0 W/m -1,5 C 4,8 C 14,5 km/h (3 Bft) 95,12 %
21.04.2017 20:50 6,5 C 56 % 1026,2 hPa 0,0 l/m 11,7 km/h (2 Bft) S 187 0 min 0,000 mm 0,0 UV-I 0 W/m -1,6 C 2,7 C 17,7 km/h (3 Bft) 95,74 %
21.04.2017 20:52 6,5 C 55 % 1026,2 hPa 0,0 l/m 11,8 km/h (2 Bft) S 188 0 min 0,000 mm 0,0 UV-I 0 W/m -1,9 C 2,6 C 16,1 km/h (3 Bft) 96,00 %
21.04.2017 20:54 6,6 C 54 % 1026,2 hPa 0,0 l/m 12,0 km/h (2 Bft) SW 216 0 min 0,000 mm 0,0 UV-I 0 W/m -2,0 C 2,6 C 17,7 km/h (3 Bft) 92,00 %
21.04.2017 20:56 6,6 C 55 % 1026,2 hPa 0,0 l/m 11,1 km/h (2 Bft) S-SW 200 0 min 0,000 mm 0,0 UV-I 0 W/m -1,8 C 3,1 C 16,1 km/h (3 Bft) 94,74 %
21.04.2017 20:58 6,6 C 55 % 1026,2 hPa 0,0 l/m 12,7 km/h (3 Bft) SW 219 0 min 0,000 mm 0,0 UV-I 0 W/m -1,8 C 2,2 C 17,7 km/h (3 Bft) 96,00 %
21.04.2017 21:00 6,6 C 54 % 1026,2 hPa 0,0 l/m 13,1 km/h (3 Bft) SW 227 0 min 0,000 mm 0,0 UV-I 0 W/m -2,0 C 2,0 C 19,3 km/h (3 Bft) 90,00 %
21.04.2017 21:02 6,6 C 54 % 1026,2 hPa 0,0 l/m 11,3 km/h (2 Bft) S 188 0 min 0,051 mm 0,0 UV-I 0 W/m -2,0 C 3,0 C 19,3 km/h (3 Bft) 97,44 %
21.04.2017 21:04 6,6 C 54 % 1026,2 hPa 0,0 l/m 12,2 km/h (2 Bft) S-SW 201 0 min 0,000 mm 0,0 UV-I 0 W/m -2,0 C 2,5 C 20,9 km/h (4 Bft) 94,23 %
21.04.2017 21:06 6,6 C 54 % 1026,2 hPa 0,0 l/m 11,4 km/h (2 Bft) S-SW 209 0 min 0,000 mm 0,0 UV-I 0 W/m -2,0 C 3,0 C 19,3 km/h (3 Bft) 93,62 %
21.04.2017 21:08 6,6 C 54 % 1026,2 hPa 0,0 l/m 10,8 km/h (2 Bft) S 187 0 min 0,000 mm 0,0 UV-I 0 W/m -2,0 C 3,3 C 14,5 km/h (3 Bft) 95,45 %
21.04.2017 21:10 6,6 C 54 % 1026,2 hPa 0,0 l/m 9,8 km/h (2 Bft) SW 218 0 min 0,000 mm 0,0 UV-I 0 W/m -2,0 C 4,0 C 14,5 km/h (3 Bft) 97,87 %
21.04.2017 21:13 6,5 C 55 % 1026,2 hPa 0,0 l/m 11,2 km/h (2 Bft) SW 214 0 min 0,000 mm 0,0 UV-I 0 W/m -1,9 C 3,0 C 17,7 km/h (3 Bft) 96,05 %
21.04.2017 21:14 6,4 C 55 % 1026,2 hPa 0,0 l/m 10,8 km/h (2 Bft) SW 219 0 min 0,000 mm 0,0 UV-I 0 W/m -2,0 C 3,1 C 12,9 km/h (3 Bft) 96,30 %
21.04.2017 21:16 6,4 C 55 % 1026,2 hPa 0,0 l/m 11,9 km/h (2 Bft) SW 217 0 min 0,000 mm 0,0 UV-I 0 W/m -2,0 C 2,4 C 17,7 km/h (3 Bft) 95,12 %
21.04.2017 21:18 6,4 C 55 % 1026,1 hPa 0,0 l/m 12,2 km/h (2 Bft) SW 221 0 min 0,000 mm 0,0 UV-I 0 W/m -2,0 C 2,3 C 19,3 km/h (3 Bft) 92,31 %
21.04.2017 21:20 6,4 C 55 % 1026,2 hPa 0,0 l/m 9,1 km/h (2 Bft) S-SW 211 0 min 0,000 mm 0,0 UV-I 0 W/m -2,0 C 4,2 C 14,5 km/h (3 Bft) 95,12 %
21.04.2017 21:22 6,4 C 55 % 1026,2 hPa 0,0 l/m 10,9 km/h (2 Bft) SW 217 0 min 0,000 mm 0,0 UV-I 0 W/m -2,0 C 3,0 C 16,1 km/h (3 Bft) 88,68 %
21.04.2017 21:24 6,4 C 55 % 1026,2 hPa 0,0 l/m 11,8 km/h (2 Bft) SW 215 0 min 0,000 mm 0,0 UV-I 0 W/m -2,0 C 2,5 C 16,1 km/h (3 Bft) 100,00 %
21.04.2017 21:26 6,4 C 55 % 1026,2 hPa 0,0 l/m 10,2 km/h (2 Bft) S-SW 209 0 min 0,000 mm 0,0 UV-I 0 W/m -2,0 C 3,5 C 16,1 km/h (3 Bft) 87,50 %
21.04.2017 21:28 6,3 C 55 % 1026,2 hPa 0,0 l/m 11,7 km/h (2 Bft) S 191 0 min 0,000 mm 0,0 UV-I 0 W/m -2,1 C 2,4 C 16,1 km/h (3 Bft) 98,00 %
21.04.2017 21:30 6,3 C 55 % 1026,2 hPa 0,0 l/m 11,8 km/h (2 Bft) S-SW 205 0 min 0,000 mm 0,0 UV-I 0 W/m -2,1 C 2,4 C 16,1 km/h (3 Bft) 97,56 %
21.04.2017 21:32 6,3 C 55 % 1026,2 hPa 0,0 l/m 11,1 km/h (2 Bft) S-SW 205 0 min 0,000 mm 0,0 UV-I 0 W/m -2,1 C 2,8 C 17,7 km/h (3 Bft) 97,56 %
21.04.2017 21:34 6,3 C 55 % 1026,2 hPa 0,0 l/m 10,4 km/h (2 Bft) SW 215 0 min 0,000 mm 0,0 UV-I 0 W/m -2,1 C 3,2 C 16,1 km/h (3 Bft) 96,23 %
21.04.2017 21:36 6,3 C 55 % 1026,2 hPa 0,0 l/m 12,8 km/h (3 Bft) SW 215 0 min 0,000 mm 0,0 UV-I 0 W/m -2,1 C 1,8 C 17,7 km/h (3 Bft) 95,45 %
21.04.2017 21:38 6,3 C 55 % 1026,1 hPa 0,0 l/m 10,8 km/h (2 Bft) S-SW 211 0 min 0,000 mm 0,0 UV-I 0 W/m -2,1 C 3,0 C 16,1 km/h (3 Bft) 92,31 %
21.04.2017 21:40 6,3 C 55 % 1026,2 hPa 0,0 l/m 8,9 km/h (2 Bft) S-SW 202 0 min 0,000 mm 0,0 UV-I 0 W/m -2,1 C 4,3 C 16,1 km/h (3 Bft) 96,23 %
21.04.2017 21:42 6,3 C 56 % 1026,1 hPa 0,0 l/m 8,9 km/h (2 Bft) S-SW 192 0 min 0,000 mm 0,0 UV-I 0 W/m -1,8 C 4,3 C 12,9 km/h (3 Bft) 97,87 %
21.04.2017 21:44 6,3 C 55 % 1026,1 hPa 0,0 l/m 10,9 km/h (2 Bft) S-SW 207 0 min 0,000 mm 0,0 UV-I 0 W/m -2,1 C 2,9 C 14,5 km/h (3 Bft) 95,12 %
21.04.2017 21:46 6,3 C 55 % 1026,1 hPa 0,0 l/m 10,2 km/h (2 Bft) SW 225 0 min 0,000 mm 0,0 UV-I 0 W/m -2,1 C 3,4 C 14,5 km/h (3 Bft) 94,92 %
21.04.2017 21:48 6,3 C 55 % 1026,1 hPa 0,0 l/m 9,3 km/h (2 Bft) S-SW 207 0 min 0,000 mm 0,0 UV-I 0 W/m -2,1 C 4,0 C 14,5 km/h (3 Bft) 93,18 %
21.04.2017 21:50 6,3 C 55 % 1026,1 hPa 0,0 l/m 11,0 km/h (2 Bft) SW 232 0 min 0,000 mm 0,0 UV-I 0 W/m -2,1 C 2,9 C 17,7 km/h (3 Bft) 94,34 %
21.04.2017 21:52 6,3 C 56 % 1026,1 hPa 0,0 l/m 12,0 km/h (2 Bft) W-SW 242 0 min 0,000 mm 0,0 UV-I 0 W/m -1,8 C 2,3 C 17,7 km/h (3 Bft) 96,55 %
21.04.2017 21:54 6,3 C 56 % 1026,1 hPa 0,0 l/m 8,6 km/h (2 Bft) W-SW 238 0 min 0,000 mm 0,0 UV-I 0 W/m -1,8 C 4,5 C 11,3 km/h (2 Bft) 96,43 %
21.04.2017 21:56 6,3 C 56 % 1026,1 hPa 0,0 l/m 8,6 km/h (2 Bft) SW 215 0 min 0,000 mm 0,0 UV-I 0 W/m -1,8 C 4,5 C 12,9 km/h (3 Bft) 97,87 %
21.04.2017 21:58 6,2 C 56 % 1026,0 hPa 0,0 l/m 10,6 km/h (2 Bft) SW 229 0 min 0,000 mm 0,0 UV-I 0 W/m -1,9 C 3,0 C 19,3 km/h (3 Bft) 95,74 %
21.04.2017 22:00 6,3 C 56 % 1026,0 hPa 0,0 l/m 9,1 km/h (2 Bft) SW 220 0 min 0,051 mm 0,0 UV-I 0 W/m -1,8 C 4,1 C 14,5 km/h (3 Bft) 98,11 %
21.04.2017 22:02 6,2 C 56 % 1026,0 hPa 0,0 l/m 9,8 km/h (2 Bft) SW 222 0 min 0,000 mm 0,0 UV-I 0 W/m -1,9 C 3,5 C 14,5 km/h (3 Bft) 97,37 %
21.04.2017 22:04 6,2 C 56 % 1026,0 hPa 0,0 l/m 10,9 km/h (2 Bft) S-SW 204 0 min 0,000 mm 0,0 UV-I 0 W/m -1,9 C 2,8 C 14,5 km/h (3 Bft) 96,00 %
21.04.2017 22:06 6,3 C 56 % 1026,0 hPa 0,0 l/m 10,2 km/h (2 Bft) S-SW 211 0 min 0,000 mm 0,0 UV-I 0 W/m -1,8 C 3,4 C 14,5 km/h (3 Bft) 98,11 %
21.04.2017 22:08 6,3 C 56 % 1026,0 hPa 0,0 l/m 10,3 km/h (2 Bft) S-SW 196 0 min 0,000 mm 0,0 UV-I 0 W/m -1,8 C 3,3 C 14,5 km/h (3 Bft) 97,87 %
21.04.2017 22:10 6,3 C 56 % 1025,9 hPa 0,0 l/m 11,8 km/h (2 Bft) SW 225 0 min 0,000 mm 0,0 UV-I 0 W/m -1,8 C 2,4 C 17,7 km/h (3 Bft) 97,37 %
21.04.2017 22:12 6,3 C 56 % 1026,0 hPa 0,0 l/m 10,6 km/h (2 Bft) S-SW 211 0 min 0,000 mm 0,0 UV-I 0 W/m -1,8 C 3,1 C 16,1 km/h (3 Bft) 96,00 %
21.04.2017 22:14 6,3 C 56 % 1025,9 hPa 0,0 l/m 10,2 km/h (2 Bft) W-SW 238 0 min 0,000 mm 0,0 UV-I 0 W/m -1,8 C 3,4 C 14,5 km/h (3 Bft) 94,87 %
21.04.2017 22:16 6,3 C 56 % 1025,9 hPa 0,0 l/m 10,0 km/h (2 Bft) S-SW 203 0 min 0,000 mm 0,0 UV-I 0 W/m -1,8 C 3,5 C 14,5 km/h (3 Bft) 96,55 %
21.04.2017 22:18 6,3 C 57 % 1025,9 hPa 0,0 l/m 10,2 km/h (2 Bft) S-SW 210 0 min 0,000 mm 0,0 UV-I 0 W/m -1,6 C 3,4 C 16,1 km/h (3 Bft) 96,00 %
21.04.2017 22:20 6,3 C 57 % 1025,9 hPa 0,0 l/m 7,4 km/h (2 Bft) W-SW 239 0 min 0,000 mm 0,0 UV-I 0 W/m -1,6 C 5,5 C 14,5 km/h (3 Bft) 97,73 %
21.04.2017 22:22 6,3 C 57 % 1025,9 hPa 0,0 l/m 8,6 km/h (2 Bft) S-SW 209 0 min 0,000 mm 0,0 UV-I 0 W/m -1,6 C 4,5 C 14,5 km/h (3 Bft) 100,00 %
21.04.2017 22:24 6,2 C 58 % 1025,9 hPa 0,0 l/m 10,4 km/h (2 Bft) SW 215 0 min 0,000 mm 0,0 UV-I 0 W/m -1,4 C 3,1 C 17,7 km/h (3 Bft) 98,11 %
21.04.2017 22:26 6,2 C 58 % 1025,9 hPa 0,0 l/m 9,7 km/h (2 Bft) S-SW 195 0 min 0,000 mm 0,0 UV-I 0 W/m -1,4 C 3,6 C 16,1 km/h (3 Bft) 98,00 %
21.04.2017 22:28 6,2 C 58 % 1025,9 hPa 0,0 l/m 11,0 km/h (2 Bft) SW 219 0 min 0,000 mm 0,0 UV-I 0 W/m -1,4 C 2,7 C 16,1 km/h (3 Bft) 100,00 %
21.04.2017 22:30 6,2 C 58 % 1025,9 hPa 0,0 l/m 10,9 km/h (2 Bft) SW 219 0 min 0,000 mm 0,0 UV-I 0 W/m -1,4 C 2,8 C 16,1 km/h (3 Bft) 97,56 %
21.04.2017 22:33 6,2 C 58 % 1025,9 hPa 0,0 l/m 8,8 km/h (2 Bft) S-SW 211 0 min 0,000 mm 0,0 UV-I 0 W/m -1,4 C 4,2 C 12,9 km/h (3 Bft) 98,73 %
21.04.2017 22:34 6,2 C 58 % 1025,9 hPa 0,0 l/m 8,0 km/h (2 Bft) S 191 0 min 0,000 mm 0,0 UV-I 0 W/m -1,4 C 4,9 C 9,7 km/h (2 Bft) 100,00 %
21.04.2017 22:36 6,2 C 59 % 1025,8 hPa 0,0 l/m 9,2 km/h (2 Bft) S 190 0 min 0,000 mm 0,0 UV-I 0 W/m -1,2 C 4,0 C 14,5 km/h (3 Bft) 100,00 %
21.04.2017 22:38 6,2 C 59 % 1025,8 hPa 0,0 l/m 10,3 km/h (2 Bft) S-SW 213 0 min 0,000 mm 0,0 UV-I 0 W/m -1,2 C 3,2 C 17,7 km/h (3 Bft) 93,62 %
21.04.2017 22:40 6,2 C 59 % 1025,8 hPa 0,0 l/m 9,1 km/h (2 Bft) SW 233 0 min 0,000 mm 0,0 UV-I 0 W/m -1,2 C 4,0 C 12,9 km/h (3 Bft) 100,00 %
21.04.2017 22:42 6,1 C 59 % 1025,8 hPa 0,0 l/m 8,4 km/h (2 Bft) SW 234 0 min 0,000 mm 0,0 UV-I 0 W/m -1,3 C 4,4 C 14,5 km/h (3 Bft) 96,30 %
21.04.2017 22:44 6,0 C 60 % 1025,7 hPa 0,0 l/m 11,0 km/h (2 Bft) SW 231 0 min 0,000 mm 0,0 UV-I 0 W/m -1,2 C 2,5 C 16,1 km/h (3 Bft) 98,21 %
21.04.2017 22:46 5,9 C 61 % 1025,7 hPa 0,0 l/m 10,0 km/h (2 Bft) SW 232 0 min 0,000 mm 0,0 UV-I 0 W/m -1,0 C 3,1 C 16,1 km/h (3 Bft) 97,73 %
21.04.2017 22:48 5,8 C 61 % 1025,7 hPa 0,0 l/m 12,1 km/h (2 Bft) SW 236 0 min 0,000 mm 0,0 UV-I 0 W/m -1,1 C 1,6 C 16,1 km/h (3 Bft) 95,65 %
21.04.2017 22:50 5,7 C 61 % 1025,7 hPa 0,0 l/m 10,1 km/h (2 Bft) W-SW 242 0 min 0,000 mm 0,0 UV-I 0 W/m -1,2 C 2,8 C 16,1 km/h (3 Bft) 94,00 %
21.04.2017 22:52 5,6 C 62 % 1025,6 hPa 0,0 l/m 9,5 km/h (2 Bft) SW 222 0 min 0,000 mm 0,0 UV-I 0 W/m -1,1 C 3,1 C 16,1 km/h (3 Bft) 95,45 %
21.04.2017 22:54 5,6 C 62 % 1025,6 hPa 0,0 l/m 8,7 km/h (2 Bft) W-SW 251 0 min 0,000 mm 0,0 UV-I 0 W/m -1,1 C 3,7 C 14,5 km/h (3 Bft) 95,74 %
21.04.2017 22:56 5,6 C 62 % 1025,6 hPa 0,0 l/m 8,0 km/h (2 Bft) SW 229 0 min 0,000 mm 0,0 UV-I 0 W/m -1,1 C 4,2 C 12,9 km/h (3 Bft) 98,00 %
21.04.2017 22:58 5,6 C 63 % 1025,6 hPa 0,0 l/m 9,0 km/h (2 Bft) SW 215 0 min 0,000 mm 0,0 UV-I 0 W/m -0,9 C 3,5 C 14,5 km/h (3 Bft) 97,83 %
21.04.2017 23:00 5,6 C 62 % 1025,5 hPa 0,0 l/m 11,2 km/h (2 Bft) SW 226 0 min 0,000 mm 0,0 UV-I 0 W/m -1,1 C 1,9 C 16,1 km/h (3 Bft) 97,62 %
21.04.2017 23:02 5,7 C 62 % 1025,5 hPa 0,0 l/m 9,0 km/h (2 Bft) SW 232 0 min 0,051 mm 0,0 UV-I 0 W/m -1,0 C 3,6 C 12,9 km/h (3 Bft) 97,73 %
21.04.2017 23:04 5,7 C 62 % 1025,5 hPa 0,0 l/m 11,9 km/h (2 Bft) W-SW 242 0 min 0,000 mm 0,0 UV-I 0 W/m -1,0 C 1,6 C 16,1 km/h (3 Bft) 97,87 %
21.04.2017 23:06 5,8 C 62 % 1025,5 hPa 0,0 l/m 9,8 km/h (2 Bft) SW 218 0 min 0,000 mm 0,0 UV-I 0 W/m -0,9 C 3,1 C 12,9 km/h (3 Bft) 94,34 %
21.04.2017 23:08 5,8 C 61 % 1025,5 hPa 0,0 l/m 10,9 km/h (2 Bft) S-SW 209 0 min 0,000 mm 0,0 UV-I 0 W/m -1,1 C 2,4 C 16,1 km/h (3 Bft) 97,87 %
21.04.2017 23:10 5,9 C 61 % 1025,5 hPa 0,0 l/m 11,6 km/h (2 Bft) S-SW 206 0 min 0,000 mm 0,0 UV-I 0 W/m -1,0 C 2,0 C 20,9 km/h (4 Bft) 97,37 %
21.04.2017 23:12 6,0 C 60 % 1025,5 hPa 0,0 l/m 13,9 km/h (3 Bft) SW 233 0 min 0,000 mm 0,0 UV-I 0 W/m -1,2 C 0,8 C 22,5 km/h (4 Bft) 98,31 %
21.04.2017 23:14 6,1 C 60 % 1025,5 hPa 0,0 l/m 13,1 km/h (3 Bft) W-SW 247 0 min 0,000 mm 0,0 UV-I 0 W/m -1,1 C 1,4 C 20,9 km/h (4 Bft) 91,43 %
21.04.2017 23:16 6,2 C 59 % 1025,4 hPa 0,0 l/m 11,4 km/h (2 Bft) S-SW 194 0 min 0,000 mm 0,0 UV-I 0 W/m -1,2 C 2,5 C 20,9 km/h (4 Bft) 98,31 %
21.04.2017 23:18 6,3 C 59 % 1025,4 hPa 0,0 l/m 13,1 km/h (3 Bft) W-SW 240 0 min 0,000 mm 0,0 UV-I 0 W/m -1,1 C 1,6 C 20,9 km/h (4 Bft) 100,00 %
21.04.2017 23:20 6,3 C 59 % 1025,4 hPa 0,0 l/m 12,3 km/h (3 Bft) SW 217 0 min 0,000 mm 0,0 UV-I 0 W/m -1,1 C 2,1 C 19,3 km/h (3 Bft) 96,92 %
21.04.2017 23:22 6,3 C 58 % 1025,4 hPa 0,0 l/m 11,5 km/h (2 Bft) W-SW 237 0 min 0,000 mm 0,0 UV-I 0 W/m -1,3 C 2,6 C 16,1 km/h (3 Bft) 96,00 %
21.04.2017 23:24 6,3 C 58 % 1025,5 hPa 0,0 l/m 12,5 km/h (3 Bft) SW 227 0 min 0,000 mm 0,0 UV-I 0 W/m -1,3 C 2,0 C 17,7 km/h (3 Bft) 97,73 %
21.04.2017 23:26 6,4 C 58 % 1025,4 hPa 0,0 l/m 13,4 km/h (3 Bft) S-SW 202 0 min 0,000 mm 0,0 UV-I 0 W/m -1,2 C 1,6 C 19,3 km/h (3 Bft) 100,00 %
21.04.2017 23:28 6,4 C 58 % 1025,4 hPa 0,0 l/m 12,6 km/h (3 Bft) S-SW 200 0 min 0,000 mm 0,0 UV-I 0 W/m -1,2 C 2,0 C 20,9 km/h (4 Bft) 96,23 %
21.04.2017 23:30 6,4 C 58 % 1025,4 hPa 0,0 l/m 13,3 km/h (3 Bft) SW 221 0 min 0,000 mm 0,0 UV-I 0 W/m -1,2 C 1,6 C 17,7 km/h (3 Bft) 94,74 %
21.04.2017 23:32 6,4 C 58 % 1025,3 hPa 0,0 l/m 12,7 km/h (3 Bft) W-SW 250 0 min 0,000 mm 0,0 UV-I 0 W/m -1,2 C 2,0 C 19,3 km/h (3 Bft) 98,11 %
21.04.2017 23:34 6,4 C 58 % 1025,3 hPa 0,0 l/m 12,1 km/h (2 Bft) SW 214 0 min 0,000 mm 0,0 UV-I 0 W/m -1,2 C 2,3 C 16,1 km/h (3 Bft) 95,12 %
21.04.2017 23:36 6,4 C 58 % 1025,3 hPa 0,0 l/m 13,4 km/h (3 Bft) S-SW 202 0 min 0,000 mm 0,0 UV-I 0 W/m -1,2 C 1,6 C 16,1 km/h (3 Bft) 96,00 %
21.04.2017 23:38 6,4 C 58 % 1025,4 hPa 0,0 l/m 12,3 km/h (3 Bft) W-SW 248 0 min 0,000 mm 0,0 UV-I 0 W/m -1,2 C 2,2 C 16,1 km/h (3 Bft) 95,45 %
21.04.2017 23:40 6,4 C 58 % 1025,3 hPa 0,0 l/m 12,3 km/h (3 Bft) SW 229 0 min 0,000 mm 0,0 UV-I 0 W/m -1,2 C 2,2 C 17,7 km/h (3 Bft) 94,00 %
21.04.2017 23:42 6,4 C 59 % 1025,3 hPa 0,0 l/m 11,0 km/h (2 Bft) SW 218 0 min 0,000 mm 0,0 UV-I 0 W/m -1,0 C 3,0 C 16,1 km/h (3 Bft) 94,00 %
21.04.2017 23:44 6,3 C 59 % 1025,2 hPa 0,0 l/m 10,7 km/h (2 Bft) S-SW 209 0 min 0,000 mm 0,0 UV-I 0 W/m -1,1 C 3,0 C 16,1 km/h (3 Bft) 100,00 %
21.04.2017 23:46 6,3 C 59 % 1025,2 hPa 0,0 l/m 11,7 km/h (2 Bft) S-SW 206 0 min 0,000 mm 0,0 UV-I 0 W/m -1,1 C 2,4 C 17,7 km/h (3 Bft) 94,92 %
21.04.2017 23:48 6,3 C 59 % 1025,2 hPa 0,0 l/m 11,2 km/h (2 Bft) S-SW 210 0 min 0,000 mm 0,0 UV-I 0 W/m -1,1 C 2,7 C 17,7 km/h (3 Bft) 92,31 %
21.04.2017 23:50 6,2 C 59 % 1025,2 hPa 0,0 l/m 12,6 km/h (3 Bft) SW 219 0 min 0,000 mm 0,0 UV-I 0 W/m -1,2 C 1,8 C 19,3 km/h (3 Bft) 93,85 %
21.04.2017 23:52 6,2 C 60 % 1025,2 hPa 0,0 l/m 10,3 km/h (2 Bft) SW 228 0 min 0,000 mm 0,0 UV-I 0 W/m -1,0 C 3,2 C 16,1 km/h (3 Bft) 93,18 %
21.04.2017 23:54 6,1 C 60 % 1025,2 hPa 0,0 l/m 10,5 km/h (2 Bft) S-SW 205 0 min 0,000 mm 0,0 UV-I 0 W/m -1,1 C 3,0 C 16,1 km/h (3 Bft) 96,00 %
21.04.2017 23:56 6,1 C 60 % 1025,2 hPa 0,0 l/m 11,3 km/h (2 Bft) SW 216 0 min 0,000 mm 0,0 UV-I 0 W/m -1,1 C 2,4 C 17,7 km/h (3 Bft) 92,00 %
21.04.2017 23:58 6,1 C 60 % 1025,2 hPa 0,0 l/m 11,0 km/h (2 Bft) SW 236 0 min 0,000 mm 0,0 UV-I 0 W/m -1,1 C 2,6 C 16,1 km/h (3 Bft) 97,73 %
_ Min-Zeit 06:26 15:10 23:44 - 10:06 - - - - - - 12:26 07:22 02:02 21:26
Minimum _ -0,4 C 43 % 1025,2 hPa - 1,6 km/h (1 Bft) - - - - - - -2,3 C -4,2 C 4,8 km/h (1 Bft) 87,50 %
_ Max-Zeit 17:08 05:46 00:00 00:00 12:06 - - 19:43 14:00 12:54 12:08 10:12 15:26 17:08 00:00
Maximum _ 10,9 C 89 % 1033,5 hPa 0,0 l/m 23,6 km/h
W-SW (4 Bft)
- - 3 min 0,331 mm 4,4 UV-I 1063 W/m 0,8 C 8,5 C 35,4 km/h
W-SW (5 Bft)
100,00 %
Durchschnitt _ 5,3 C 65 % 1029,8 hPa #0,0 l/m 10,7 km/h (2 Bft) SW - #8:16 h #2,972 mm 2,0 UV-I 318 W/m -1,2 C 2,4 C 16,7 km/h (3 Bft) 97,09 %